     2.10           OBSERVATION DATA    G (GPS)             RINEX VERSION / TYPE
teqc 2005May6 SOPAC 20050822 21:29:22UTC                    PGM / RUN BY / DATE
Linux 2.4.20-8|Pentium IV|gcc|Linux|486/DX+                 COMMENT
BIT 2 OF LLI FLAGS DATA COLLECTED UNDER A/S CONDITION       COMMENT
E 1436                                                      MARKER NAME
1436                                                        MARKER NUMBER
Jason Long                                                  OBSERVER / AGENCY
0220247382 TRIMBLE 5700 2.01                                REC # / TYPE / VERS
12237024 TRM41249.00 NONE                                   ANT # / TYPE
 -2734204.0000 -4085766.0000  4049771.0000                  APPROX POSITION XYZ
        2.0000        0.0000        0.0000                  ANTENNA: DELTA H/E/N
     1     1                                                WAVELENGTH FACT L1/2
     6    L1    L2    C1    P2    P1    D1                  # / TYPES OF OBSERV
    15.0000                                                 INTERVAL
Northern California Height Modernization 2004               COMMENT
                                                            COMMENT
SOPAC - Scripps Orbit and Permanent Array Center            COMMENT
IGPP - Institute of Geophysics and Planetary Physics        COMMENT
SIO - Scripps Institution of Oceanography                   COMMENT
UCSD - University of California, San Diego                  COMMENT
                                                            COMMENT
email: archive@gpsmail.ucsd.edu                             COMMENT
ftp://garner.ucsd.edu                                       COMMENT
http://sopac.ucsd.edu                                       COMMENT
                                                            COMMENT
                                                            COMMENT
Approximate Lat, Lon : 39.669, -123.791                     COMMENT
                                                            COMMENT
SNR is mapped to RINEX snr flag value [0-9]                 COMMENT
L1 & L2: 2-19 dBHz = 1, 20-27 dBHz = 2, 28-31 dBHz = 3      COMMENT
32-35 dBHz = 4, 36-38 dBHz = 5, 39-41 dBHz = 6              COMMENT
42-44 dBHz = 7, 45-48 dBHz = 8, >= 49 dBHz = 9              COMMENT
  2004     9    14    20    44   45.0000000     GPS         TIME OF FIRST OBS
                                                            END OF HEADER
 04  9 14 20 44 45.0000000  0  6G 3G 8G13G19G23G27
       250.82857     -4149.49252  23326715.2664   23326714.7114

    -80897.55158    -59754.52754  22774872.8444   22774871.3244
     50959.46159
     31264.34857                  20368980.9144   20368977.3444

    -83147.17657    -56268.69552  24188561.2894   24188558.1374

    178331.19559    118045.82855  21763017.4454   21763013.5784
    -12373.96559
    -12891.08656                  21501371.1414   21501368.7074

 04  9 14 20 45  0.0000000  0  6G 3G 8G13G19G23G27
       403.89847     -4030.21142  23326745.3054   23326745.0274
       -10.2054
   -103368.16048    -77264.08244  22770597.0474   22770594.9344
      1498.0414
     65074.90249     42263.37946  20371667.2034   20371663.4144
      -941.0294
   -107190.08248    -75003.43442  24183986.1094   24183982.5824
      1602.8604
    227600.35949    156437.35545  21772392.9534   21772389.2034
     -3284.6114
    -15917.90249    -15652.59446  21500696.7894   21500694.5594
       236.2624
 04  9 14 20 45 15.0000000  0  6G 3G 8G13G19G23G27
       702.00847     -3797.93042  23326801.6564   23326800.5354
       -19.8744
   -125776.14848    -94724.83644  22766332.9064   22766330.9104
      1493.8664
     79316.55149     53360.76647  20374377.1954   20374373.7624
      -949.4434
   -131167.13747    -93686.82842  24179423.4534   24179420.6684
      1598.4704
    276973.72349    194910.06645  21781788.6024   21781784.7584
     -3291.5584
    -19398.27749    -18364.57446  21500034.6094   21500032.3094
       232.0254
 04  9 14 20 45 30.0000000  0  6G 3G 8G13G19G23G27
      1156.30547     -3443.92242  23326888.0554   23326886.9964
       -30.2864
   -148110.64148   -112128.31644  22762082.7424   22762080.9264
      1488.9664
     93695.26249     64564.94946  20377113.5084   20377110.4694
      -958.5814
   -155067.10547   -112310.14142  24174875.5704   24174872.7274
      1593.3314
    326462.01249    233472.35245  21791206.3364   21791201.3094
     -3299.2194
    -22804.43449    -21018.72346  21499386.1484   21499384.0474
       227.0774
 04  9 14 20 45 45.0000000  0  6G 3G 8G13G19G23G27
      1768.80147     -2966.64142  23327004.3914   23327002.9614
       -40.8334
   -170369.84848   -129473.14544  22757847.0394   22757844.7274
      1483.9474
    108213.07449     75877.52046  20379876.1024   20379872.3954
      -967.8544
   -178887.94147   -130871.81642  24170341.6884   24170338.9144
      1588.0564
    376066.86349    272125.46545  21800645.5634   21800640.9184
     -3306.9904
    -26134.28149    -23613.40646  21498752.3444   21498750.3054
       221.9904
 04  9 14 20 46  0.0000000  0  6G 3G 8G13G19G23G27
      2542.16447     -2364.02342  23327151.8984   23327150.7424
       -51.5584
   -192551.37548   -146757.43744  22753625.9384   22753624.1884
      1478.7684
    122872.46149     87300.41047  20382665.5944   20382662.0084
      -977.2924
   -202626.71947   -149369.50842  24165824.4844   24165822.4614
      1582.5854
    425790.61349    310871.22745  21810107.7274   21810102.7234
     -3314.9174
    -29385.62149    -26146.91046  21498133.8674   21498131.4884
       216.7564
 04  9 14 20 46 15.0000000  0  6G 3G 8G13G19G23G27
      3475.48047     -1636.78942  23327329.8284   23327328.9184
       -62.2214
   -214656.22348   -163981.97744  22749419.4224   22749417.6644
      1473.6574
    137672.55949     98832.95347  20385482.0004   20385478.6764
      -986.6734
   -226284.14547   -167803.80543  24161322.9064   24161320.6954
      1577.1624
    475632.24249    349708.83645  21819592.0474   21819587.7504
     -3322.7754
    -32559.47749    -28620.04746  21497529.7814   21497527.5354
       211.5904
 04  9 14 20 46 30.0010000  0  6G 3G 8G13G19G23G27
      4567.45347      -785.89142  23327536.8414   23327537.6924
       -72.7984
   -236687.39848   -181149.10544  22745226.8964   22745225.2824
      1468.7454
    152612.94149    110474.80547  20388325.1144   20388321.5444
      -996.0264
   -249863.00447   -186176.88742  24156835.7864   24156833.6534
      1571.9244
    525593.40649    388639.59045  21829099.5914   21829095.2744
     -3330.7444
    -35657.61349    -31034.17246  21496940.0134   21496937.7004
       206.5424
 04  9 14 20 46 45.0010000  0  6G 3G 8G13G19G23G27
      5815.63347       186.75442  23327774.6144   23327775.1734
       -83.2124
   -258644.32448   -198258.36744  22741048.2084   22741046.8494
      1463.7954
    167689.13749    122222.48446  20391193.8494   20391190.4074
     -1005.0804
   -273362.23447   -204487.91443  24152364.5284   24152362.1224
      1566.6154
    575664.87549    427656.27745  21838627.7714   21838623.6184
     -3338.0984
    -38682.23049    -33391.01646  21496364.9974   21496362.2044
       201.6414
 04  9 14 20 47  0.0010000  0  6G 3G 8G13G19G23G27
      7218.79747      1280.11742  23328041.8494   23328040.9704
       -93.5444
   -280530.11748   -215312.21944  22736884.0674   22736882.5134
      1459.0534
    182900.62949    134075.59047  20394088.7084   20394085.1884
     -1014.0994
   -296784.68447   -222739.10942  24147907.3724   24147904.7084
      1561.4974
    625848.17649    466760.11745  21848177.5674   21848173.0484
     -3345.5534
    -41635.15649    -35691.99246  21495802.8494   21495800.3924
       196.8624
 04  9 14 20 47 15.0010000  0  6G 3G 8G13G19G23G27
      8773.82047      2491.79742  23328338.0444   23328336.8564
      -103.6684
   -302347.91048   -232313.09044  22732732.0834   22732730.5214
      1454.5204
    198244.28149    146031.68447  20397008.4194   20397005.0174
     -1022.9104
   -320133.12147   -240932.65243  24143464.2004   24143461.7244
      1556.5634
    676139.96549    505948.50045  21857747.7784   21857742.6814
     -3352.7864
    -44519.59449    -37939.60546  21495253.9584   21495251.4234
       192.2964
 04  9 14 20 47 30.0010000  0  6G 3G 8G13G19G23G27
     10481.02747      3822.08642  23328662.2004   23328662.1534
      -113.8144
   -324097.78548   -249261.02044  22728593.5674   22728591.4544
      1449.9924
    213720.39849    158090.98447  20399953.5914   20399949.7944
     -1031.7414
   -343407.28947   -259068.29343  24139035.2394   24139032.3964
      1551.6114
    726540.30549    545221.48045  21867338.6854   21867333.4664
     -3360.0234
    -47335.56649    -40133.86746  21494717.7864   21494715.5564
       187.7324
 04  9 14 20 47 45.0010000  0  6G 3G 8G13G19G23G27
     12338.43847      5269.43042  23329015.8414   23329015.8644
      -123.8274
   -345781.88748   -266157.70744  22724466.6144   22724465.3924
      1445.6074
    229326.78949    170251.80547  20402923.0364   20402919.6224
     -1040.4264
   -366608.96547   -277147.47343  24134619.8964   24134617.5094
      1546.7784
    777046.89849    584577.24245  21876949.5754   21876945.1924
     -3367.1064
    -50085.25449    -42276.48046  21494194.6064   21494192.2314
       183.3134
 04  9 14 20 48  0.0010000  0  6G 3G 8G13G19G23G27
     14344.53147      6832.64142  23329397.5444   23329397.5094
      -133.7404
   -367401.83248   -283004.39544  22720352.6614   22720351.1034
      1441.3304
    245061.96549    182512.97747  20405917.5134   20405914.0524
     -1049.0124
   -389739.39847   -295171.13343  24130218.8414   24130215.8294
      1542.0294
    827657.95749    624014.40645  21886580.5674   21886576.2784
     -3374.0714
    -52770.42649    -44368.82046  21493684.0284   21493681.4704
       179.0114
 04  9 14 20 48 15.0010000  0  6G 3G 8G13G19G23G27
     16498.08647      8510.71542  23329807.0604   23329807.0214
      -143.5704
   -388958.97748   -299802.14844  22716250.2864   22716249.1774
      1437.1434
    260924.57849    194873.44947  20408935.8174   20408932.5954
     -1057.5084
   -412799.48847   -313139.95743  24125829.4584   24125827.8174
      1537.3394
    878371.94549    663531.77045  21896231.2554   21896227.0324
     -3380.9334
    -55392.30949    -46411.84046  21493185.0364   21493182.4384
       174.7924
 04  9 14 20 48 30.0010000  0  6G 3G 8G13G19G23G27
     18797.47747     10302.47342  23330244.4114   23330244.9814
      -153.2934
   -410455.04748   -316552.32044  22712159.7784   22712158.2824
      1433.0714
    276912.91049    207331.88347  20411978.3494   20411975.0564
     -1065.8894
   -435790.87147   -331055.25043  24121454.8174   24121452.6104
      1532.7594
    929186.84449    703127.75445  21905901.2314   21905896.9354
     -3387.6604
    -57952.98049    -48407.16446  21492697.6694   21492695.4894
       170.7114
 04  9 14 20 48 45.0010000  0  6G 3G 8G13G19G23G27
     21243.33647     12208.32442  23330710.1384   23330710.3604
      -163.0574
   -431889.59848   -333254.55944  22708081.3334   22708079.3414
      1428.9704
    293027.49649    219888.70347  20415045.0134   20415041.4664
     -1074.3064
   -458712.82047   -348916.44943  24117092.7314   24117090.4894
      1528.1304
    980103.02049    742802.68445  21915590.0444   21915586.1344
     -3394.4124
    -60452.03549    -50354.47746  21492221.9354   21492219.3994
       166.6044
 04  9 14 20 49  0.0010000  0  6G 3G 8G13G19G23G27
     23833.60547     14226.73442  23331203.4274   23331202.8064
      -172.6854
   -453264.95348   -349910.66044  22704013.5214   22704012.0834
      1425.0244
    309266.31649    232542.32046  20418135.5134   20418132.0604
     -1082.5884
   -481566.98847   -366724.81643  24112744.0214   24112741.4354
      1523.6114
   1031118.24649    782554.78545  21925297.4974   21925293.4974
     -3401.0154
    -62891.53949    -52255.38346  21491757.8414   21491755.5014
       162.6344
 04  9 14 20 49 15.0010000  0  6G 3G 8G13G19G23G27
     26568.85247     16358.09442  23331723.5284   23331723.7244
      -182.3504
   -474580.58648   -366520.22744  22699957.0524   22699955.3884
      1421.0424
    325629.66049    245292.98047  20421248.9504   20421245.6734
     -1090.8904
   -504352.73047   -384479.88343  24108407.3884   24108404.9234
      1519.0494
   1082232.74248    822384.23845  21935024.3644   21935019.8804
     -3407.6334
    -65271.35549    -54109.78946  21491305.0054   21491302.4974
       158.6544
 04  9 14 20 49 30.0010000  0  6G 3G 8G13G19G23G27
     29448.98047     18602.35242  23332271.9034   23332271.1464
      -192.0094
   -495836.85248   -383083.52744  22695912.7554   22695910.7824
      1417.0844
    342117.53149    258140.66046  20424386.2784   20424382.9114
     -1099.1914
   -527069.94947   -402181.52342  24104084.8334   24104082.3884
      1514.4814
   1133446.14548    862290.77045  21944770.1694   21944765.4464
     -3414.2274
    -67591.64849    -55917.80146  21490863.7084   21490861.4934
       154.6864
 04  9 14 20 49 45.0010000  0  6G 3G 8G13G19G23G27
     32471.73047     20957.73842  23332847.3104   23332846.4234
      -201.5174
   -517036.16048   -399602.46544  22691878.4504   22691876.7984
      1413.2874
    358727.50849    271083.49247  20427547.2394   20427544.0054
     -1107.3324
   -549720.69547   -419831.39842  24099774.0914   24099772.0214
      1510.0504
   1184755.84848    902272.33645  21954534.2714   21954529.7394
     -3420.6474
    -69854.98049    -57681.43446  21490432.7394   21490430.2514
       150.8894
 04  9 14 20 50  0.0010000  0  6G 3G 8G13G19G23G27
     35637.37547     23424.48842  23333448.8964   23333448.9354
      -211.0434
   -538178.60948   -416077.07444  22687854.9354   22687853.2864
      1409.4974
    375459.76249    284121.60947  20430731.3884   20430728.1224
     -1115.4844
   -572304.61747   -437429.16043  24095476.4894   24095474.3104
      1505.5954
   1236161.81649    942328.91445  21964316.7164   21964312.7244
     -3427.0654
    -72061.30949    -59400.64546  21490012.7314   21490010.4584
       147.0894
 04  9 14 20 50 15.0010000  0  6G 3G 8G13G19G23G27
     38945.09447     26001.94542  23334079.1224   23334078.5994
      -220.5154
   -559264.86348   -432507.90644  22683842.2314   22683840.4424
      1405.7504
    392313.41049    297254.31347  20433938.6774   20433935.4314
     -1123.5774
   -594822.33646   -454975.37543  24091191.8174   24091189.1184
      1501.1814
   1287662.96148    982459.65245  21974116.9274   21974112.8254
     -3433.4104
    -74211.67249    -61076.24246  21489603.7164   21489601.3994
       143.3584
 04  9 14 20 50 30.0010000  0  6G 3G 8G13G19G23G27
     42394.72348     28689.96142  23334735.8414   23334734.6964
      -229.9754
   -580295.33648   -448895.27344  22679840.1614   22679838.7434
      1402.0324
    409288.02749    310481.28147  20437168.9744   20437165.2354
     -1131.6414
   -617273.84846   -472469.98042  24086919.0364   24086916.3294
      1496.7674
   1339258.67649   1022664.07445  21983934.8644   21983931.4114
     -3439.7144
    -76306.48049    -62708.56246  21489205.0754   21489202.6654
       139.6544
 04  9 14 20 50 45.0010000  0  6G 3G 8G13G19G23G27
     45984.95347     31487.53942  23335418.6924   23335418.3294
      -239.3494
   -601271.67648   -465240.45744  22675848.8644   22675846.8134
      1398.4234
    426382.34449    323801.53146  20440421.8964   20440418.7044
     -1139.6214
   -639660.36747   -489913.96143  24082659.1774   24082656.6384
      1492.4354
   1390947.50448   1062941.05545  21993771.1304   21993767.1224
     -3445.9224
    -78347.18749    -64298.72346  21488816.6614   21488814.1924
       136.0474
 04  9 14 20 51  0.0010000  0  6G 3G 8G13G19G23G27
     49715.34847     34394.35942  23336128.3804   23336127.4154
      -248.6934
   -622194.30548   -481543.78144  22671867.1144   22671865.8454
      1394.8424
    443595.78949    337214.59847  20443697.1614   20443693.9464
     -1147.5634
   -661981.97747   -507307.35243  24078411.5214   24078409.3254
      1488.1074
   1442728.75049   1103290.05945  22003624.9114   22003620.5444
     -3452.0834
    -80334.51649    -65847.28946  21488438.4584   21488435.9934
       132.4894
 04  9 14 20 51 15.0010000  0  6G 3G 8G13G19G23G27
     53585.91848     37410.41442  23336865.0524   23336864.3334
      -258.0384
   -643063.38748   -497805.39544  22667896.1224   22667894.5364
      1391.2724
    460928.44149    350720.55947  20446995.4354   20446992.4234
     -1155.5104
   -684238.51646   -524650.02343  24074175.8564   24074174.0794
      1483.7694
   1494602.14149   1143710.86345  22013495.9034   22013491.2314
     -3458.2264
    -82268.49649    -67354.27746  21488070.4504   21488068.3724
       128.9324
 04  9 14 20 51 30.0010000  0  6G 3G 8G13G19G23G27
     57598.98848     40537.46142  23337628.4894   23337626.8214
      -267.5384
   -663876.61348   -514023.48044  22663935.6464   22663933.6494
      1387.5484
    478382.45749    364321.07847  20450316.9424   20450313.5324
     -1163.6014
   -706427.55947   -541940.12943  24069953.6304   24069950.8134
      1479.2704
   1546569.66848   1184205.02345  22023385.3104   22023380.9584
     -3464.5024
    -84147.17649    -68818.18746  21487712.8564   21487710.7204
       125.2454
 04  9 14 20 51 45.0010000  0  6G 3G 8G13G19G23G27
     61753.22348     43774.54742  23338419.4114   23338417.7554
      -276.9494
   -684635.43748   -530199.16044  22659985.2864   22659983.1494
      1383.9224
    495956.65249    378015.25447  20453661.3804   20453657.7084
     -1171.6134
   -728550.02346   -559178.33643  24065743.7314   24065741.1884
      1474.8314
   1598629.80149   1224771.33245  22033291.7164   22033287.5214
     -3470.6764
    -85971.91049    -70240.04346  21487365.8334   21487363.3294
       121.6494
 04  9 14 20 52  0.0010000  0  6G 3G 8G13G19G23G27
     66046.31347     47119.81642  23339236.3804   23339235.0484
      -286.2064
   -705342.55948   -546334.56644  22656044.7474   22656042.9974
      1380.4754
    513648.44949    391801.06646  20457027.8174   20457024.2674
     -1179.4534
   -750608.31246   -576366.52343  24061545.6534   24061543.6884
      1470.5534
   1650779.68449   1265407.57045  22043216.0214   22043211.5094
     -3476.6594
    -87745.37549    -71621.96946  21487027.9664   21487025.2474
       118.2314
 04  9 14 20 52 15.0010000  0  6G 3G 8G13G19G23G27
     70478.48047     50573.48442  23340079.0914   23340078.4194
      -295.4784
   -725998.04748   -562429.73844  22652114.0134   22652112.2434
      1377.0334
    531457.93449    405678.58246  20460416.8804   20460413.6424
     -1187.2994
   -772601.86346   -593504.29742  24057360.1854   24057357.9154
      1466.2374
   1703019.42248   1306113.83245  22053156.6614   22053152.2244
     -3482.6494
    -89467.54749    -72963.91846  21486700.5834   21486698.0634
       114.8114
 04  9 14 20 52 30.0010000  0  6G 3G 8G13G19G23G27
     75050.68447     54136.25442  23340949.6384   23340948.3414
      -304.8144
   -746600.75048   -578483.77744  22648193.2314   22648191.6774
      1373.5144
    549385.90249    419648.42647  20463828.2944   20463825.2124
     -1195.1984
   -794529.53946   -610590.74242  24053187.5054   24053185.0604
      1461.8454
   1755349.74248   1346890.68845  22063115.0674   22063109.9314
     -3488.6884
    -91137.61349    -74265.27046  21486382.6464   21486380.0324
       111.3384
 04  9 14 20 52 45.0010000  0  6G 3G 8G13G19G23G27
     79763.07047     57808.24242  23341846.4664   23341845.2314
      -314.1594
   -767150.94548   -594496.89844  22644282.4974   22644281.1464
      1370.0134
    567432.50849    433710.70746  20467262.4894   20467259.1774
     -1203.1074
   -816391.03146   -627625.61742  24049027.1694   24049024.8174
      1457.4334
   1807770.43849   1387737.95345  22073090.3494   22073085.1734
     -3494.7134
    -92755.68049    -75526.10246  21486074.9894   21486072.4034
       107.8714
 04  9 14 20 53  0.0010000  0  6G 3G 8G13G19G23G27
     84614.24247     61588.39543  23342769.1694   23342768.0134
      -323.4114
   -787650.06648   -610470.22744  22640381.9194   22640380.2124
      1366.6084
    585596.25449    447864.27047  20470719.0524   20470715.9664
     -1210.9164
   -838187.55146   -644609.84042  24044879.5674   24044877.8564
      1453.1014
   1860279.80149   1428654.32845  22083082.4274   22083077.4544
     -3500.6244
    -94323.24249    -76747.57446  21485776.5284   21485773.8684
       104.5044
 04  9 14 20 53 15.0010000  0  6G 3G 8G13G19G23G27
     89605.98047     65478.07842  23343718.9894   23343718.0524
      -332.7834
   -808096.37949   -626402.39544  22636491.2634   22636489.5834
      1363.0884
    603878.97749    462110.54346  20474198.0754   20474194.8064
     -1218.8484
   -859917.01246   -661541.84842  24040744.9504   24040742.9784
      1448.6314
   1912879.30948   1469640.94545  22093091.4504   22093087.0524
     -3506.6344
    -95838.97749    -77928.66846  21485488.1384   21485485.6924
       101.0494
 04  9 14 20 53 30.0010000  0  6G 3G 8G13G19G23G27
     94736.47347     69475.89142  23344694.8804   23344694.2674
      -342.0334
   -828491.85948   -642294.96544  22632609.7634   22632608.2944
      1359.6994
    622278.73049    476448.01247  20477699.5134   20477696.4074
     -1226.6504
   -881581.17247   -678422.93042  24036622.5054   24036620.0014
      1444.2774
   1965566.90249   1510696.19145  22103117.6854   22103113.6774
     -3512.5064
    -97304.64149    -79070.74246  21485208.9034   21485206.6814
        97.7114
 04  9 14 20 53 45.0010000  0  6G 3G 8G13G19G23G27
    100004.87547     73581.14143  23345698.2634   23345697.4274
      -351.2274
   -848837.48048   -658148.67644  22628738.1144   22628736.4384
      1356.3754
    640794.62549    490875.97346  20481222.8884   20481219.6424
     -1234.3934
   -903180.57447   -695253.57442  24032512.5754   24032509.8844
      1439.9604
   2018341.62148   1551819.31345  22113160.4274   22113156.4744
     -3518.3154
    -98721.28149    -80174.61746  21484939.7554   21484937.4814
        94.4434
 04  9 14 20 54  0.0010000  0  6G 3G 8G13G19G23G27
    105411.36748     77794.00843  23346726.9034   23346726.0874
      -360.4334
   -869133.12548   -673963.44544  22624875.9974   22624874.5754
      1353.0434
    659426.88749    505394.61747  20484768.7164   20484765.6654
     -1242.1514
   -924714.68447   -712033.34842  24028414.5214   24028411.8414
      1435.6074
   2071203.30149   1593010.20745  22123219.8494   22123215.4974
     -3524.1124
   -100088.75849    -81240.17246  21484679.2784   21484677.0954
        91.1654
 04  9 14 20 54 15.0010000  0  6G 3G 8G13G19G23G27
    110956.74647     82115.08643  23347782.0364   23347781.4464
      -369.6924
   -889378.36349   -689738.94144  22621023.5754   22621021.7394
      1349.6834
    678176.07449    520004.36747  20488336.5604   20488333.0714
     -1249.9464
   -946182.67246   -728761.60543  24024328.9814   24024326.2314
      1431.1994
   2124152.32049   1634269.16845  22133295.8644   22133291.2944
     -3529.9354
   -101406.62549    -82267.08246  21484428.4664   21484426.3804
        87.8584
 04  9 14 20 54 30.0010000  0  6G 3G 8G13G19G23G27
    116640.27747     86543.80542  23348863.5914   23348862.4544
      -378.9024
   -909573.74248   -705475.57844  22617180.3104   22617178.7904
      1346.3594
    697041.49649    534704.68847  20491926.5364   20491923.1884
     -1257.6954
   -967584.97346   -745438.66043  24020256.0834   24020253.5324
      1426.8204
   2177187.82849   1675595.53145  22143388.0364   22143382.9194
     -3535.7014
   -102675.75449    -83256.01246  21484187.2634   21484184.8924
        84.6094
 04  9 14 20 54 45.0010000  0  6G 3G 8G13G19G23G27
    122462.48847     91080.64143  23349971.5604   23349970.7244
      -388.1474
   -929719.10548   -721173.25444  22613346.8644   22613345.2674
      1343.0244
    716023.66849    549495.99247  20495538.7864   20495535.2714
     -1265.4784
   -988920.89846   -762063.99643  24016195.9814   24016193.9114
      1422.3954
   2230310.17649   1716989.56344  22153496.7634   22153491.6964
     -3541.4904
   -103895.78549    -84206.68746  21483954.9744   21483952.0714
        81.3354
 04  9 14 20 55  0.0010000  0  6G 3G 8G13G19G23G27
    128423.82448     95725.82843  23351105.8724   23351104.9744
      -397.4224
   -949814.40649   -736831.90644  22609522.9504   22609521.3414
      1339.6874
    735122.84049    564378.45346  20499173.1384   20499169.7784
     -1273.2784
  -1010189.91047   -778637.21942  24012148.8254   24012145.7354
      1417.9344
   2283519.25448   1758451.15645  22163622.1614   22163617.3334
     -3547.2724
   -105066.67249    -85119.06646  21483732.1614   21483729.7004
        78.0594
 04  9 14 20 55 15.0010000  0  6G 3G 8G13G19G23G27
    134521.52748    100477.29343  23352266.1464   23352265.3214
      -406.5144
   -969862.29348   -752453.62544  22605708.0214   22605706.4114
      1336.5264
    754336.30549    579349.98046  20502829.4034   20502826.1884
     -1280.8984
  -1031394.44147   -795160.19542  24008114.0524   24008111.4354
      1413.6354
   2336812.08649   1799978.01245  22173763.4354   22173759.2284
     -3552.8554
   -106191.06249    -85995.21546  21483517.8414   21483515.4234
        74.9594
 04  9 14 20 55 30.0010000  0  6G 3G 8G13G19G23G27
    140758.99247    105337.66043  23353452.8884   23353452.3924
      -415.8314
   -989859.30148   -768035.69144  22601902.9274   22601901.2634
      1333.1344
    773667.07049    594412.90246  20506507.7634   20506504.4274
     -1288.7184
  -1052531.03947   -811630.24242  24004092.1384   24004088.3804
      1409.1074
   2390191.82048   1841572.59045  22183921.9274   22183917.1654
     -3558.6494
   -107265.99649    -86832.82046  21483313.5364   21483310.9974
        71.6624
 04  9 14 20 55 45.0010000  0  6G 3G 8G13G19G23G27
    147134.80948    110305.84443  23354666.6694   23354666.7674
      -425.0544
  -1009807.20348   -783579.49644  22598106.4894   22598105.1034
      1329.8604
    793113.93449    609566.30546  20510208.2944   20510205.0954
     -1296.4584
  -1073600.74647   -828048.17642  24000081.7084   24000078.6924
      1404.6474
   2443656.88749   1883233.66045  22194095.3494   22194091.1774
     -3564.3384
   -108292.89149    -87632.99646  21483118.0054   21483115.9074
        68.4604
 04  9 14 20 56  0.0010000  0  6G 3G 8G13G19G23G27
    153649.37148    115382.11743  23355906.5674   23355906.0134
      -434.3044
  -1029705.67648   -799084.78944  22594319.9584   22594318.6574
      1326.5654
    812677.16449    624810.37547  20513931.3334   20513927.9544
     -1304.2154
  -1094603.09447   -844413.61343  23996085.2634   23996082.5794
      1400.1574
   2497207.12148   1924961.09845  22204285.5754   22204281.0714
     -3570.0164
   -109271.56249    -88395.59446  21482931.5914   21482929.6344
        65.2454
 04  9 14 20 56 15.0010000  0  6G 3G 8G13G19G23G27
    160300.87947    120565.12943  23357172.1064   23357171.2744
      -443.4344
  -1049556.71548   -814553.10544  22590542.5604   22590540.9114
      1323.4034
    832354.81649    640143.60546  20517675.7164   20517672.3964
     -1311.8434
  -1115539.51647   -860727.69142  23992101.8414   23992097.9584
      1395.7614
   2550840.68848   1966753.46944  22214491.6064   22214487.4814
     -3575.5714
   -110204.05149    -89122.21146  21482754.3644   21482752.1924
        62.1664
 04  9 14 20 56 30.0010000  0  6G 3G 8G13G19G23G27
    167089.56648    125855.02743  23358464.3414   23358463.6144
      -452.5794
  -1069359.98048   -829984.20344  22586774.0524   22586772.2784
      1320.2184
    852147.21549    655566.25047  20521442.3644   20521438.8174
     -1319.4934
  -1136409.58247   -876990.03943  23988129.9034   23988127.1384
      1391.3384
   2604557.64848   2008610.81644  22224713.7474   22224709.5134
     -3581.1314
   -111090.07049    -89812.60546  21482585.8174   21482583.4464
        59.0684
 04  9 14 20 56 45.0010000  0  6G 3G 8G13G19G23G27
    174015.69547    131252.00043  23359781.6534   23359781.4504
      -461.7424
  -1089115.46149   -845378.07044  22583014.6694   22583013.2284
      1317.0324
    872054.24649    671078.21147  20525230.3724   20525226.6734
     -1327.1354
  -1157213.00848   -893200.46143  23984170.8494   23984168.3214
      1386.8954
   2658357.70748   2050532.92245  22234951.6304   22234947.2204
     -3586.6714
   -111929.89849    -90467.01646  21482426.1614   21482423.6924
        55.9894
 04  9 14 20 57  0.0010000  0  6G 3G 8G13G19G23G27
    181078.85247    136755.77343  23361125.9664   23361124.7594
      -470.8774
  -1108823.69148   -860735.11744  22579264.3334   22579262.6614
      1313.8824
    892075.61749    686679.27346  20529040.0754   20529037.0284
     -1334.7584
  -1177949.84447   -909359.02743  23980225.4814   23980222.3374
      1382.4564
   2712240.18448   2092519.26244  22245205.4894   22245200.5874
     -3592.1654
   -112723.92649    -91085.73446  21482274.8804   21482272.8764
        52.9354
 04  9 14 20 57 15.0010000  0  6G 3G 8G13G19G23G27
    188280.17247    142367.19543  23362496.7004   23362495.7164
      -480.0884
  -1128483.57048   -876054.48844  22575523.1854   22575521.6464
      1310.6594
    912212.55549    702370.38346  20532872.4114   20532869.0674
     -1342.4624
  -1198618.75447   -925464.62943  23976292.2944   23976288.7164
      1377.9274
   2766206.18048   2134570.66445  22255474.6854   22255470.5794
     -3597.7334
   -113471.17649    -91668.00846  21482132.8174   21482130.5364
        49.8174
 04  9 14 20 57 30.0010000  0  6G 3G 8G13G19G23G27
    195618.91447    148085.69143  23363893.2004   23363892.4314
      -489.2494
  -1148096.30549   -891337.12144  22571790.8334   22571789.4114
      1307.5164
    932464.09449    718150.80547  20536725.9504   20536722.5874
     -1350.1034
  -1219220.48047   -941517.89843  23972371.5214   23972368.9854
      1373.4484
   2820254.45348   2176686.18844  22265759.6924   22265755.5834
     -3603.2184
   -114172.70349    -92214.64546  21481998.9424   21481996.7674
        46.7684
 04  9 14 20 57 45.0010000  0  6G 3G 8G13G19G23G27
    203094.80947    153911.05543  23365315.8024   23365314.5834
      -498.3934
  -1167662.08248   -906583.16444  22568067.9114   22568066.3534
      1304.3854
    952830.01249    734020.34047  20540601.3254   20540597.9544
     -1357.7284
  -1239754.67247   -957518.53143  23968463.8804   23968460.8884
      1368.9464
   2874384.61348   2218865.50844  22276060.0134   22276056.2044
     -3608.6774
   -114828.67649    -92725.78946  21481874.4424   21481872.0834
        43.7324
 04  9 14 20 58  0.0010000  0  6G 3G 8G13G19G23G27
    210708.52047    159843.82043  23366764.5134   23366764.6264
      -507.5814
  -1187180.10548   -921792.00044  22564353.8024   22564351.8844
      1301.2024
    973310.76249    749979.36747  20544499.0444   20544495.7004
     -1365.3834
  -1260220.59447   -973465.97742  23964569.4744   23964566.6924
      1364.3954
   2928596.97748   2261108.87944  22286376.4114   22286372.0094
     -3614.1584
   -115438.74649    -93201.16846  21481758.0754   21481756.4584
        40.6714
 04  9 14 20 58 15.0010000  0  6G 3G 8G13G19G23G27
    218459.07448    165883.23843  23368239.2474   23368239.0604
      -516.7044
  -1206651.80549   -936964.73844  22560648.2084   22560646.2514
      1298.1134
    993905.37949    766027.10547  20548418.0054   20548414.4504
     -1372.9744
  -1280619.21547   -989360.96542  23960687.1304   23960684.0094
      1359.9084
   2982890.27048   2303415.32444  22296708.7244   22296703.4664
     -3619.5534
   -116004.17249    -93641.75446  21481650.3254   21481648.6694
        37.6954
 04  9 14 20 58 30.0010000  0  6G 3G 8G13G19G23G27
    226345.91448    172028.84043  23369740.2394   23369739.4894
      -525.7894
  -1226077.93748   -952101.96944  22556951.4584   22556949.6964
      1295.0764
   1014613.12949    782163.00847  20552358.4894   20552355.2634
     -1380.5174
  -1300950.71547  -1005203.66842  23956818.7084   23956815.3104
      1355.4334
   3037263.76648   2345784.27045  22307055.7634   22307050.4664
     -3624.9004
   -116525.59049    -94048.05546  21481551.3724   21481548.9814
        34.7614
 04  9 14 20 58 45.0010000  0  6G 3G 8G13G19G23G27
    234370.87147    178282.03143  23371266.9744   23371266.2824
      -534.9974
  -1245456.65648   -967202.25444  22553264.0284   22553262.2514
      1291.9154
   1035435.79349    798388.46147  20556320.8644   20556317.5484
     -1388.1784
  -1321213.00046  -1020992.44142  23952962.9194   23952959.4744
      1350.8194
   3091719.06348   2388216.95345  22317418.0284   22317413.7594
     -3630.3534
   -117001.23049    -94418.68046  21481460.8494   21481458.4624
        31.7094
 04  9 14 20 59  0.0010000  0  6G 3G 8G13G19G23G27
    242532.99648    184642.13743  23372819.8174   23372819.8994
      -544.1424
  -1264788.85248   -982266.28944  22549585.0054   22549583.3494
      1288.8134
   1056372.62549    814702.87147  20560305.1694   20560301.8924
     -1395.7894
  -1341406.71146  -1036727.78943  23949120.1224   23949116.6964
      1346.2474
   3146254.88748   2430712.37945  22327795.9664   22327792.1104
     -3635.7224
   -117432.23849    -94754.53546  21481379.0994   21481376.3684
        28.7344
 04  9 14 20 59 15.0010000  0  6G 3G 8G13G19G23G27
    250832.72747    191109.44543  23374399.5054   23374399.2084
      -553.3154
  -1284074.09448   -997293.73044  22545915.2474   22545913.5604
      1285.6834
   1077423.93449    831106.48047  20564310.8884   20564307.6574
     -1403.4214
  -1361531.35247  -1052409.32843  23945290.5994   23945287.1924
      1341.6434
   3200871.41448   2473270.67245  22338188.7634   22338184.8994
     -3641.1024
   -117818.42649    -95055.45346  21481305.4814   21481303.0954
        25.7464
 04  9 14 20 59 30.0010000  0  6G 3G 8G13G19G23G27
    259270.29347    197684.18043  23376005.3174   23376004.7864
      -562.5044
  -1303312.46549  -1012284.66044  22542254.5134   22542252.7744
      1282.5584
   1098589.88349    847599.42247  20568338.5834   20568335.4814
     -1411.0634
  -1381586.43047  -1068036.61743  23941473.6384   23941471.7394
      1337.0054
   3255568.67248   2515891.88745  22348597.2314   22348593.5244
     -3646.4844
   -118159.50449    -95321.22746  21481240.6924   21481238.2244
        22.7394
 04  9 14 20 59 45.0010000  0  6G 3G 8G13G19G23G27
    267846.84447    204367.21143  23377637.0284   23377636.5794
      -571.7704
  -1322503.01249  -1027238.31244  22538602.4194   22538600.4584
      1279.3704
   1119871.49649    864182.49247  20572388.2474   20572385.1184
     -1418.7744
  -1401570.75847  -1083608.82043  23937671.0834   23937667.6774
      1332.2894
   3310347.57848   2558576.72745  22359021.6224   22359017.7714
     -3651.9274
   -118454.59049    -95551.16046  21481184.1464   21481182.1774
        19.6724
 04  9 14 21  0  0.0010000  0  6G 3G 8G13G19G23G27
    276561.58647    211157.92643  23379295.6534   23379295.0604
      -580.9834
  -1341646.52348  -1042155.32044  22534959.5604   22534958.1574
      1276.2344
   1141267.91849    880855.02347  20576459.8884   20576456.9664
     -1426.4284
  -1421484.61746  -1099126.08643  23933881.7394   23933878.1734
      1327.5914
   3365206.92648   2601324.25045  22369461.2634   22369456.2744
     -3657.2904
   -118704.61349    -95745.98446  21481136.3564   21481134.3994
        16.6684
 04  9 14 21  0 15.0010000  0  6G 3G 8G13G19G23G27
    285415.75848    218057.27043  23380980.3644   23380980.2634
      -590.2784
  -1360741.87149  -1057034.80144  22531325.6064   22531324.3064
      1273.0234
   1162780.34449    897617.94147  20580553.5834   20580550.3644
     -1434.1624
  -1441326.51647  -1114587.26643  23930105.6694   23930102.8494
      1322.7934
   3420147.66848   2644135.20744  22379916.0754   22379911.0324
     -3662.7164
   -118908.50049    -95904.85546  21481097.7394   21481095.8024
        13.5924
 04  9 14 21  0 30.0010000  0  6G 3G 8G13G19G23G27
    294409.53947    225065.41443  23382691.6304   23382692.2394
      -599.5854
  -1379788.86348  -1071876.60245  22527701.3024   22527699.5794
      1269.7994
   1184408.95349    914471.39547  20584669.6854   20584666.6064
     -1441.9074
  -1461096.02746  -1129992.07043  23926344.0754   23926340.5754
      1317.9674
   3475170.00048   2687009.73444  22390386.2244   22390381.7554
     -3668.1554
   -119066.18049    -96027.72346  21481068.1384   21481065.9314
        10.5124
 04  9 14 21  0 45.0010000  0  6G 3G 8G13G19G23G27
    303545.28547    232184.16043  23384430.6534   23384430.2244
      -609.0504
  -1398785.41848  -1086679.10544  22524086.4034   22524084.2004
      1266.4374
   1206155.93849    931417.08647  20588807.7394   20588804.5794
     -1449.7994
  -1480790.62146  -1145338.47743  23922596.2474   23922593.8294
      1312.9734
   3530275.83648   2729949.32444  22400872.1064   22400868.1574
     -3673.7224
   -119175.52049    -96112.92246  21481047.3024   21481044.9544
         7.2894
 04  9 14 21  1  0.0010000  0  6G 3G 8G13G19G23G27
    312822.25847    239412.98843  23386196.0284   23386195.7984
      -618.4654
  -1417732.42248  -1101442.98844  22520481.0914   22520479.0244
      1263.1344
   1228020.51249    948454.41847  20592968.4424   20592965.3454
     -1457.6384
  -1500410.83645  -1160626.93042  23918862.4114   23918860.0834
      1308.0144
   3585464.23448   2772953.23845  22411374.4584   22411371.1614
     -3679.2274
   -119237.34049    -96161.09446  21481035.7714   21481033.2044
         4.1214
 04  9 14 21  1 15.0010000  0  6G 3G 8G13G19G23G27
    322240.45347    246751.83243  23387987.7394   23387987.2714
      -627.8804
  -1436630.13748  -1116168.47344  22516884.4974   22516882.6344
      1259.8484
   1250002.50449    965583.23847  20597151.4504   20597148.0834
     -1465.4664
  -1519956.47347  -1175857.29343  23915142.9584   23915140.2984
      1303.0424
   3640734.78148   2816021.16445  22421892.4194   22421888.5284
     -3684.7034
   -119251.93049    -96172.45346  21481032.6144   21481030.3884
         0.9734
 04  9 14 21  1 30.0010000  0  6G 3G 8G13G19G23G27
    331800.28547    254201.04343  23389807.1384   23389806.0794
      -637.3224
  -1455477.98448  -1130855.09844  22513298.0914   22513296.1574
      1256.5234
   1272102.53149    982804.03147  20601357.1144   20601353.7474
     -1473.3354
  -1539426.92245  -1191029.04743  23911437.5754   23911435.6814
      1298.0304
   3696087.71548   2859153.29745  22432425.6614   22432421.8134
     -3690.1964
   -119218.87949    -96146.70746  21481038.7714   21481036.7354
        -2.2034
 04  9 14 21  1 45.0010000  0  6G 3G 8G13G19G23G27
    341500.97747    261760.03143  23391653.0674   23391651.8334
      -646.7134
  -1474276.79748  -1145503.50844  22509720.9584   22509718.6854
      1253.2544
   1294319.72349   1000116.12147  20605584.9504   20605581.6064
     -1481.1464
  -1558822.60246  -1206142.55543  23907746.9114   23907744.2124
      1293.0454
   3751522.05948   2902348.86344  22442974.3254   22442969.8924
     -3695.6234
   -119139.14149    -96084.56646  21481053.9504   21481051.7204
        -5.3164
 04  9 14 21  2  0.0010000  0  6G 3G 8G13G19G23G27
    351343.66048    269429.64143  23393526.5364   23393524.8134
      -656.1794
  -1493025.54348  -1160112.91045  22506152.9894   22506151.1964
      1249.9164
   1316655.25049   1017520.42247  20609834.9894   20609832.1384
     -1489.0354
  -1578142.33246  -1221196.85543  23904070.5364   23904068.3254
      1287.9824
   3807038.68048   2945608.56344  22453538.8174   22453534.1424
     -3701.1084
   -119011.66849    -95985.23846  21481078.6854   21481076.0874
        -8.4984
 04  9 14 21  2 15.0010000  0  6G 3G 8G13G19G23G27
    361328.23847    277209.81643  23395426.4894   23395425.3844
      -665.6394
  -1511724.52348  -1174683.53544  22502594.8414   22502593.1614
      1246.5994
   1339109.03149   1035016.86746  20614108.0214   20614105.0794
     -1496.9194
  -1597385.89147  -1236191.81643  23900408.7004   23900406.5674
      1282.9044
   3862637.17648   2988932.04344  22464118.8334   22464114.2514
     -3706.5664
   -118836.77749    -95848.95746  21481111.5524   21481109.1654
       -11.6594
 04  9 14 21  2 30.0010000  0  6G 3G 8G13G19G23G27
    371453.35547    285099.50843  23397353.5674   23397352.4854
      -675.0084
  -1530375.14548  -1189216.47345  22499045.8564   22499043.9464
      1243.3754
   1361679.41049   1052604.16447  20618403.0914   20618399.7244
     -1504.6924
  -1616554.25047  -1251128.19943  23896761.2084   23896758.9624
      1277.8914
   3918316.01248   3032318.12545  22474714.4194   22474709.9354
     -3711.9224
   -118615.84049    -95676.79346  21481153.5524   21481151.1464
       -14.7294
 04  9 14 21  2 45.0010000  0  6G 3G 8G13G19G23G27
    381719.89147    293099.41843  23399306.7634   23399305.6654
      -684.4364
  -1548976.68048  -1203711.16044  22495505.9274   22495503.9274
      1240.1024
   1384367.16849   1070282.93047  20622720.4034   20622717.0834
     -1512.5174
  -1635646.37147  -1266005.16443  23893127.6774   23893125.4034
      1272.8084
   3974075.77348   3075767.27345  22485325.3964   22485320.8844
     -3717.3174
   -118348.14849    -95468.20346  21481204.8494   21481202.2004
       -17.8464
 04  9 14 21  3  0.0010000  0  6G 3G 8G13G19G23G27
    392126.03947    301208.08243  23401286.9664   23401286.0444
      -693.7434
  -1567530.85948  -1218168.95345  22491975.3644   22491973.3414
      1236.9454
   1407170.50449   1088051.75447  20627059.5364   20627056.3884
     -1520.2224
  -1654663.82847  -1280823.94943  23889508.8494   23889507.1494
      1267.8304
   4029914.47748   3119277.92645  22495951.0054   22495946.8994
     -3722.5804
   -118035.67649    -95224.72346  21481263.9814   21481261.5674
       -20.8324
 04  9 14 21  3 15.0010000  0  6G 3G 8G13G19G23G27
    402674.47747    309427.64843  23403294.4664   23403293.8104
      -703.2294
  -1586035.24248  -1232587.94945  22488453.9424   22488452.0524
      1233.6264
   1430091.96549   1105912.62146  20631421.4354   20631418.2554
     -1528.0974
  -1673603.68446  -1295582.26643  23885905.1224   23885902.1534
      1262.6574
   4085834.46148   3162851.91045  22506591.6694   22506587.4584
     -3727.9994
   -117675.90249    -94944.37546  21481332.6534   21481330.3414
       -23.9854
 04  9 14 21  3 30.0010000  0  6G 3G 8G13G19G23G27
    413364.74647    317757.71143  23405328.5754   23405327.9624
      -712.6854
  -1604490.28948  -1246968.49245  22484941.7554   22484940.1534
      1230.3364
   1453131.25049   1123865.30947  20635805.7714   20635802.4314
     -1535.9524
  -1692466.22347  -1310280.32843  23882315.8494   23882312.4544
      1257.5034
   4141835.16848   3206488.79344  22517248.3804   22517243.9074
     -3733.3804
   -117269.38749    -94627.60946  21481409.9744   21481407.7824
       -27.1014
 04  9 14 21  3 45.0010000  0  6G 3G 8G13G19G23G27
    424195.75847    326197.46143  23407389.6064   23407389.3214
      -722.0674
  -1622896.97348  -1261311.35244  22481439.1614   22481437.2984
      1227.1124
   1476287.15649   1141908.86347  20640212.2244   20640209.0444
     -1543.7274
  -1711252.21546  -1324918.75443  23878740.6464   23878737.8414
      1252.3994
   4197915.02048   3250187.35244  22527920.5214   22527915.0714
     -3738.6574
   -116817.37149    -94275.39146  21481496.0284   21481493.7594
       -30.1344
 04  9 14 21  4  0.0010000  0  6G 3G 8G13G19G23G27
    435167.23847    334746.67643  23409477.3414   23409476.5874
      -731.4324
  -1641255.81648  -1275616.93745  22477945.2714   22477943.9814
      1223.9234
   1499559.41849   1160043.09047  20644640.5054   20644637.3134
     -1551.4844
  -1729961.80546  -1339497.64843  23875179.8414   23875177.7594
      1247.3064
   4254073.68048   3293947.34044  22538607.2474   22538602.0014
     -3743.9114
   -116320.14149    -93887.93446  21481590.4894   21481588.4074
       -33.1494
 04  9 14 21  4 15.0010000  0  6G 3G 8G13G19G23G27
    446277.21547    343403.80543  23411591.2784   23411590.9274
      -740.6654
  -1659568.97348  -1289886.91844  22474460.5674   22474459.0754
      1220.8774
   1522945.92649   1178266.34046  20649091.1064   20649087.7594
     -1559.1014
  -1748596.68046  -1354018.32043  23871633.9664   23871631.7514
      1242.3254
   4310308.80148   3337766.89844  22549308.3174   22549303.2004
     -3749.0084
   -115779.89549    -93466.95746  21481693.5914   21481691.0674
       -36.0164
 04  9 14 21  4 30.0010000  0  6G 3G 8G13G19G23G27
    457527.57447    352170.31343  23413733.0604   23413731.8604
      -750.0244
  -1677834.72748  -1304119.96144  22470984.8644   22470983.1694
      1217.7174
   1546448.50849   1196580.03147  20653563.4664   20653560.3214
     -1566.8394
  -1767154.69947  -1368479.08243  23868102.6144   23868100.0564
      1237.2014
   4366622.08248   3381647.35944  22560024.1144   22560020.1574
     -3754.2194
   -115194.89849    -93011.10946  21481804.7084   21481802.0954
       -39.0004
 04  9 14 21  4 45.0010000  0  6G 3G 8G13G19G23G27
    468917.07847    361045.24643  23415899.6854   23415899.0484
      -759.3004
  -1696054.20348  -1318316.94544  22467517.7244   22467515.7824
      1214.6324
   1570066.00449   1214983.27047  20658057.7554   20658054.7004
     -1574.5004
  -1785636.81647  -1382880.72743  23864585.5914   23864583.2944
      1232.1414
   4423012.09848   3425587.58644  22570754.8724   22570750.9664
     -3759.3344
   -114566.45349    -92521.41846  21481924.3644   21481921.6734
       -41.8964
 04  9 14 21  5  0.0010000  0  6G 3G 8G13G19G23G27
    480446.10947    370028.89543  23418093.9744   23418093.2634
      -768.6024
  -1714227.27748  -1332477.77744  22464059.6854   22464057.6654
      1211.5384
   1593798.66449   1233476.23447  20662573.9664   20662570.6654
     -1582.1774
  -1804042.45747  -1397222.76243  23861083.1464   23861080.7164
      1227.0434
   4479478.88748   3469587.64144  22581499.8644   22581496.0324
     -3764.4534
   -113894.30949    -91997.66846  21482052.2714   21482049.9314
       -44.8104
 04  9 14 21  5 15.0010000  0  6G 3G 8G13G19G23G27
    492114.28147    379120.97343  23420314.1534   23420313.5054
      -777.8784
  -1732354.28548  -1346602.71944  22460610.4194   22460608.5794
      1208.4674
   1617646.08249   1252058.63747  20667112.0054   20667108.7984
     -1589.8284
  -1822371.50047  -1411505.10943  23857595.2554   23857593.0484
      1221.9364
   4536021.93448   3513647.13344  22592260.3104   22592255.2004
     -3769.5364
   -113178.92649    -91440.21946  21482188.5834   21482185.8414
       -47.6924
 04  9 14 21  5 30.0010000  0  6G 3G 8G13G19G23G27
    503921.71147    388321.57843  23422561.0444   23422560.0284
      -787.1624
  -1750435.10248  -1360691.65245  22457169.2714   22457167.6344
      1205.3884
   1641608.34049   1270730.51247  20671671.7164   20671668.4074
     -1597.4844
  -1840623.77347  -1425727.64843  23854122.0364   23854119.3884
      1216.8184
   4592641.07048   3557765.91844  22603034.5754   22603029.4814
     -3774.6094
   -112420.23449    -90849.03546  21482332.6224   21482330.2124
       -50.5794
 04  9 14 21  5 45.0010000  0  6G 3G 8G13G19G23G27
    515867.58647    397630.04343  23424834.7314   23424833.8564
      -796.3924
  -1768470.78149  -1374745.41845  22453737.2244   22453736.0214
      1202.3794
   1665684.49249   1289491.14847  20676253.1924   20676250.1614
     -1605.0774
  -1858799.81647  -1439890.80143  23850663.5444   23850660.5524
      1211.7364
   4649335.24248   3601943.18444  22613822.9354   22613817.5634
     -3779.6114
   -111619.29349    -90224.91846  21482485.3644   21482482.9624
       -53.3964
 04  9 14 21  6  0.0010000  0  6G 3G 8G13G19G23G27
    527952.00847    407046.46543  23427133.5284   23427132.9544
      -805.6284
  -1786461.06648  -1388763.81645  22450313.6464   22450312.2904
      1199.3524
   1689874.87549   1308340.78946  20680856.6694   20680853.2394
     -1612.6924
  -1876899.27047  -1453994.26243  23847219.6064   23847215.9704
      1206.6304
   4706104.38748   3646178.87544  22624625.5364   22624621.1854
     -3784.6104
   -110775.96149    -89567.77346  21482645.5604   21482643.0714
       -56.2224
 04  9 14 21  6 15.0010000  0  6G 3G 8G13G19G23G27
    540175.50847    416571.25843  23429459.7714   23429459.8924
      -814.9004
  -1804405.70748  -1402746.63744  22446899.2714   22446897.3804
      1196.3094
   1714179.79749   1327279.68447  20685481.6384   20685478.5014
     -1620.3284
  -1894921.40247  -1468037.45743  23843789.5134   23843786.4314
      1201.4764
   4762948.68848   3690473.10244  22635442.7714   22635438.8964
     -3789.6204
   -109889.92649    -88877.35246  21482814.5674   21482812.1614
       -59.0694
 04  9 14 21  6 30.0010000  0  6G 3G 8G13G19G23G27
    552537.96147    426204.33243  23431813.0674   23431811.9814
      -824.1644
  -1822304.90248  -1416694.05145  22443493.0214   22443491.5284
      1193.2804
   1738599.10949   1346307.70746  20690128.2004   20690125.2314
     -1627.9544
  -1912866.03547  -1482020.26643  23840374.1224   23840371.7434
      1196.3094
   4819867.84448   3734825.64144  22646274.0134   22646270.3104
     -3794.6104
   -108961.46549    -88153.87546  21482990.9114   21482988.2944
       -61.8974
 04  9 14 21  6 45.0010000  0  6G 3G 8G13G19G23G27
    565038.98447    435945.39143  23434191.9114   23434189.9234
      -833.4024
  -1840158.91448  -1430606.26644  22440095.6304   22440093.7354
      1190.2674
   1763132.35949   1365424.51647  20694797.1694   20694793.9934
     -1635.5504
  -1930733.24647  -1495942.74243  23836974.6854   23836971.6064
      1191.1474
   4876861.23448   3779236.03944  22657120.1064   22657115.9154
     -3799.5594
   -107991.01649    -87397.67646  21483175.6064   21483173.3374
       -64.6974
 04  9 14 21  7  0.0010000  0  6G 3G 8G13G19G23G27
    577678.24647    445794.15243  23436596.6384   23436595.3254
      -842.6174
  -1857968.20348  -1444483.62145  22436706.7474   22436704.7864
      1187.2864
   1787779.18449   1384629.82447  20699487.2084   20699484.1884
     -1643.1224
  -1948523.21947  -1509805.03543  23833589.1224   23833586.2554
      1185.9984
   4933928.28548   3823703.86344  22667979.4504   22667974.9314
     -3804.4704
   -106978.96149    -86609.06646  21483367.8494   21483365.3994
       -67.4704
 04  9 14 21  7 15.0010000  0  6G 3G 8G13G19G23G27
    590454.98047    455750.05943  23439028.3414   23439026.7354
      -851.7824
  -1875733.52049  -1458326.71545  22433325.7394   22433324.1964
      1184.3544
   1812538.82849   1403923.04746  20704198.8724   20704195.5244
     -1650.6434
  -1966236.27747  -1523607.41043  23830218.5524   23830215.2084
      1180.8714
   4991068.06648   3868228.35544  22678852.3254   22678848.0324
     -3809.3194
   -105926.10549    -85788.65646  21483568.6774   21483565.8104
       -70.1904
 04  9 14 21  7 30.0010000  0  6G 3G 8G13G19G23G27
    603371.43047    465814.82043  23441485.7004   23441484.2314
      -861.0974
  -1893452.74248  -1472133.89545  22429953.8104   22429952.0484
      1181.2824
   1837413.37549   1423305.80147  20708931.8644   20708928.9154
     -1658.3034
  -1983870.05147  -1537347.99243  23826862.8884   23826860.0604
      1175.5854
   5048282.46948   3912810.98044  22689739.6534   22689735.3134
     -3814.2934
   -104830.41849    -84934.86746  21483776.8104   21483774.5524
       -73.0464
 04  9 14 21  7 45.0010000  0  6G 3G 8G13G19G23G27
    616426.74247    475987.77743  23443970.1854   23443969.6574
      -870.3544
  -1911126.80549  -1485905.88745  22426590.8724   22426588.5604
      1178.2714
   1862402.07449   1442777.50447  20713687.5134   20713684.1924
     -1665.9134
  -2001425.10547  -1551027.23443  23823522.5214   23823519.1654
      1170.3374
   5105570.51248   3957450.98044  22700640.9894   22700637.3684
     -3819.2034
   -103692.77349    -84048.39546  21483993.3414   21483991.0284
       -75.8434
 04  9 14 21  8  0.0010000  0  6G 3G 8G13G19G23G27
    629620.80947    486268.85943  23446481.3964   23446480.4074
      -879.6044
  -1928755.87948  -1499642.82045  22423236.2244   22423234.2714
      1175.2724
   1887504.75849   1462338.03147  20718464.4504   20718461.4384
     -1673.5124
  -2018901.28947  -1564645.01643  23820196.8334   23820193.2084
      1165.0794
   5162931.77748   4002148.02744  22711557.6064   22711553.7474
     -3824.0844
   -102513.58649    -83129.53946  21484217.8494   21484215.8104
       -78.6124
 04  9 14 21  8 15.0010000  0  6G 3G 8G13G19G23G27
    642954.48047    496658.73843  23449018.6064   23449017.4854
      -888.9114
  -1946339.28948  -1513344.17245  22419890.1614   22419888.3174
      1172.2274
   1912722.25049   1481988.02046  20723262.7314   20723259.8644
     -1681.1664
  -2036297.55948  -1578200.53143  23816886.5054   23816882.5134
      1159.7514
   5220366.96948   4046902.69544  22722487.0914   22722483.3564
     -3829.0134
   -101291.87549    -82177.55146  21484450.3884   21484447.9114
       -81.4474
 04  9 14 21  8 30.0010000  0  6G 3G 8G13G19G23G27
    656425.96547    507155.99643  23451581.7394   23451580.7204
      -898.0994
  -1963878.94548  -1527011.42645  22416552.1064   22416550.7944
      1169.3104
   1938052.69949   1501726.02747  20728083.2084   20728080.4074
     -1688.6974
  -2053615.35947  -1591694.90643  23813591.2314   23813587.2674
      1154.5204
   5277873.96148   4091713.31644  22733429.7554   22733426.4704
     -3833.7994
   -100029.55949    -81193.93046  21484690.5604   21484687.7864
       -84.1544
 04  9 14 21  8 45.0010000  0  6G 3G 8G13G19G23G27
    670037.12147    517762.09043  23454172.0754   23454170.8724
      -907.4104
  -1981372.73448  -1540642.93745  22413223.1534   22413221.7244
      1166.2534
   1963497.94549   1521553.48046  20732925.4274   20732922.0954
     -1696.3504
  -2070852.58647  -1605126.46543  23810310.3884   23810307.2904
      1149.1484
   5335454.45748   4136581.21144  22744387.1384   22744382.9464
     -3838.7004
    -98724.84449    -80177.26646  21484938.7314   21484936.5754
       -86.9814
 04  9 14 21  9  0.0010000  0  6G 3G 8G13G19G23G27
    683786.80547    528476.12143  23456788.3804   23456787.8334
      -916.6464
  -1998821.98448  -1554239.73845  22409902.6534   22409901.1574
      1163.2834
   1989056.89549   1541469.54347  20737789.1924   20737786.3494
     -1703.9304
  -2088009.91447  -1618495.78143  23807045.8024   23807043.3924
      1143.8224
   5393107.20348   4181505.40244  22755357.3024   22755353.0364
     -3843.5164
    -97378.95349    -79128.51646  21485194.7784   21485192.4704
       -89.7264
 04  9 14 21  9 15.0010000  0  6G 3G 8G13G19G23G27
    697674.27347    539297.52343  23459430.3804   23459429.7904
      -925.8314
  -2016227.43748  -1567802.41845  22406590.8104   22406588.7784
      1160.3644
   2014728.69949   1561473.53546  20742674.2394   20742671.1384
     -1711.4544
  -2105088.11746  -1631803.43443  23803795.6534   23803792.6144
      1138.5474
   5450830.93448   4226484.90644  22766342.8884   22766338.2204
     -3848.2494
    -95992.84049    -78048.41846  21485458.8804   21485456.0134
       -92.4084
 04  9 14 21  9 30.0010000  0  6G 3G 8G13G19G23G27
    711702.24248    550228.39143  23462100.3254   23462099.4504
      -935.1984
  -2033586.43048  -1581328.89845  22403287.3884   22403285.3804
      1157.2664
   2040516.05549   1581567.57047  20747581.5754   20747578.4504
     -1719.1574
  -2122084.09446  -1645047.02343  23800562.3174   23800557.8374
      1133.0654
   5508628.21148   4271521.71144  22777341.4664   22777337.2594
     -3853.1524
    -94563.82049    -76934.90246  21485730.5604   21485728.1694
       -95.2684
 04  9 14 21  9 45.0010000  0  6G 3G 8G13G19G23G27
    725869.46548    561267.80143  23464796.6144   23464795.8684
      -944.4824
  -2050900.14548  -1594820.09845  22399992.7394   22399991.0954
      1154.2484
   2066417.55549   1601750.55147  20752510.3494   20752507.2514
     -1726.7674
  -2138998.81646  -1658227.30143  23797342.4974   23797339.2394
      1127.6484
   5566497.68448   4316614.78144  22788353.6304   22788349.4624
     -3857.9654
    -93093.23449    -75788.98446  21486010.4194   21486007.9384
       -98.0394
 04  9 14 21 10  0.0010000  0  7G10G 3G 8G13G19G23G27
    -64858.66057    -46915.16452  24548922.1774   24548921.0094

    740176.15648    572415.85943  23467519.3174   23467518.6264
      -953.7794
  -2068168.81248  -1608276.19545  22396706.4974   22396704.7084
      1151.2454
   2092433.45349   1622022.67647  20757460.7244   20757457.8644
     -1734.3934
  -2155831.79346  -1671343.88743  23794139.0994   23794136.1494
      1122.1984
   5624439.23048   4361764.00444  22799379.0674   22799376.0214
     -3862.7704
    -91580.94149    -74610.56646  21486298.2864   21486295.8064
      -100.8204
 04  9 14 21 10 15.0010000  0  7G10G 3G 8G13G19G23G27
    -85071.48847    -62665.41442  24545076.7784   24545074.9894
      1347.5224
    754621.10547    583671.66843  23470267.8174   23470267.1884
      -962.9974
  -2085393.50049  -1621698.02345  22393428.7784   22393426.9234
      1148.3134
   2118562.66449   1642383.09047  20762433.2554   20762429.8684
     -1741.9474
  -2172583.90647  -1684397.43443  23790951.1534   23790948.4384
      1116.8084
   5682451.55548   4406968.37544  22810418.3254   22810414.7514
     -3867.4884
    -90028.19549    -73400.63346  21486593.7004   21486591.5284
      -103.5164
 04  9 14 21 10 30.0010000  0  7G10G 3G 8G13G19G23G27
   -105176.78147    -78331.85242  24541250.6304   24541248.8024
      1340.3534
    769204.57448    595035.41043  23473042.8174   23473042.4424
      -972.2314
  -2102574.10248  -1635085.49245  22390159.2244   22390157.5014
      1145.3734
   2144805.26649   1662831.86347  20767426.7784   20767423.8604
     -1749.5074
  -2189254.70747  -1697387.64143  23787779.0284   23787776.0834
      1111.3874
   5740534.61748   4452227.85944  22821471.4814   22821467.5364
     -3872.2044
    -88434.82449    -72159.04346  21486896.7394   21486894.1224
      -106.2254
 04  9 14 21 10 45.0010000  0  7G10G 3G 8G13G19G23G27
   -125173.71947    -93913.88742  24537445.3564   24537443.9274
      1333.1294
    783927.24647    606507.61743  23475844.7244   23475843.9354
      -981.5114
  -2119709.73449  -1648437.91845  22386898.6384   22386896.9424
      1142.3764
   2171161.92649   1683369.51247  20772442.9974   20772439.3994
     -1757.1114
  -2205843.26647  -1710313.76243  23784622.4894   23784620.3104
      1105.9044
   5798688.97348   4497542.92244  22832537.7244   22832533.8644
     -3876.9574
    -86800.30149    -70885.39146  21487207.7634   21487205.4624
      -108.9684
 04  9 14 21 11  0.0010000  0  7G10G 3G 8G13G19G23G27
   -145063.87547   -109412.69542  24533660.0754   24533658.5444
      1326.0104
    798787.27347    618086.85243  23478672.2714   23478671.2514
      -990.6684
  -2136802.21948  -1661756.72745  22383646.0134   22383644.7044
      1139.4994
   2197630.88349   1703994.66847  20777479.5214   20777476.2474
     -1764.5974
  -2222351.08647  -1723176.98843  23781481.6774   23781478.5324
      1100.5214
   5856912.46148   4542911.85944  22843617.7634   22843612.9154
     -3881.5664
    -85126.29349    -69580.96146  21487526.3884   21487523.9424
      -111.6014
 04  9 14 21 11 15.0010000  0  7G10G 3G 8G13G19G23G27
   -164846.17647   -124827.48842  24529895.8024   24529894.6424
      1318.8204
    813785.58248    629773.84443  23481526.4194   23481525.3764
      -999.8874
  -2153850.77348  -1675041.30545  22380401.8174   22380399.8454
      1136.5704
   2224212.93849   1724707.94947  20782537.9504   20782534.3644
     -1772.1374
  -2238777.02047  -1735976.38743  23778355.5674   23778352.6464
      1095.0624
   5915205.84848   4588335.26644  22854710.2244   22854706.2784
     -3886.2264
    -83412.19949    -68245.30146  21487852.6384   21487850.2864
      -114.2734
 04  9 14 21 11 30.0010000  0  7G10G 3G 8G13G19G23G27
   -184519.41447   -140157.26242  24526152.0914   24526150.9074
      1311.5494
    828923.16847    641569.34843  23484406.7634   23484406.0244
     -1009.1724
  -2170854.44148  -1688290.90645  22377166.1924   22377164.4584
      1133.5784
   2250909.03949   1745510.09847  20787618.0284   20787614.8214
     -1779.7404
  -2255119.69246  -1748710.85243  23775245.1614   23775242.8884
      1089.5124
   5973570.03147   4633813.81344  22865816.6534   22865812.7004
     -3890.9464
    -81656.99249    -66877.60546  21488186.8884   21488184.2554
      -117.0144
 04  9 14 21 11 45.0010000  0  7G10G 3G 8G13G19G23G27
   -204083.64147   -155402.13342  24522429.1464   24522428.2284
      1304.2824
    844199.82048    653473.25043  23487314.1304   23487312.5524
     -1018.4434
  -2187813.37548  -1701505.64545  22373938.8334   22373937.3254
      1130.5964
   2277718.85249   1766400.85247  20792719.5524   20792716.6494
     -1787.3214
  -2271379.21146  -1761380.61343  23772150.8884   23772148.2044
      1083.9684
   6032004.42648   4679347.05544  22876936.0834   22876932.4854
     -3895.6264
    -79860.96949    -65478.10946  21488528.7004   21488525.9854
      -119.7354
 04  9 14 21 12  0.0010000  0  7G10G 3G 8G13G19G23G27
   -223536.83247   -170560.46542  24518727.5444   24518726.2824
      1296.8794
    859617.31348    665486.87143  23490247.7314   23490246.8064
     -1027.8334
  -2204726.00848  -1714684.31245  22370720.7554   22370718.4744
      1127.5094
   2304644.40649   1787381.80546  20797843.4354   20797840.1924
     -1795.0374
  -2287553.37947  -1773983.82443  23769073.5134   23769071.5244
      1078.2784
   6090510.55148   4724936.19944  22888069.9034   22888066.1304
     -3900.4084
    -78022.48049    -64045.52346  21488878.6694   21488876.2244
      -122.5664
 04  9 14 21 12 15.0010000  0  7G10G 3G 8G13G19G23G27
   -242879.67247   -185632.78142  24515046.1534   24515045.1464
      1289.5234
    875174.69548    677609.50043  23493208.8644   23493207.3414
     -1037.1594
  -2221593.27048  -1727827.61745  22367510.8644   22367508.6184
      1124.4844
   2331684.71149   1808452.16047  20802988.8334   20802986.2124
     -1802.6874
  -2303642.90245  -1786521.10243  23766011.6614   23766008.3334
      1072.6354
   6149087.34448   4770580.41844  22899217.3104   22899212.6104
     -3905.1204
    -76142.40649    -62580.52046  21489236.0284   21489233.5324
      -125.3384
 04  9 14 21 12 30.0010000  0  7G10G 3G 8G13G19G23G27
   -262113.07047   -200619.85542  24511386.4354   24511385.0634
      1282.2274
    890870.84048    689840.26243  23496195.5444   23496194.3494
     -1046.4104
  -2238416.37948  -1740936.52745  22364309.4744   22364307.5484
      1121.5414
   2358838.41849   1829610.88347  20808156.4114   20808153.2984
     -1810.2474
  -2319648.58647  -1798993.02043  23762965.7554   23762963.4854
      1067.0464
   6207733.45748   4816278.66844  22910377.0054   22910372.0404
     -3909.7414
    -74222.07049    -61084.15646  21489601.3964   21489599.2204
      -128.0224
 04  9 14 21 12 45.0010000  0  7G10G 3G 8G13G19G23G27
   -281236.47747   -215521.19942  24507747.1144   24507745.9234
      1274.8944
    906706.10247    702179.43043  23499208.6614   23499207.5174
     -1055.6844
  -2255194.95348  -1754010.73445  22361116.8334   22361114.7514
      1118.5724
   2386105.96549   1850858.31647  20813344.9274   20813342.1034
     -1817.8364
  -2335569.74647  -1811399.09443  23759935.7244   23759933.5604
      1061.4114
   6266448.94148   4862030.97344  22921550.0604   22921545.1034
     -3914.3664
    -72261.09449    -59556.12146  21489974.8564   21489972.3534
      -130.7324
 04  9 14 21 13  0.0010000  0  7G10G 3G 8G13G19G23G27
   -300248.58247   -230335.82842  24504129.8254   24504128.2314
      1267.4744
    922681.49647    714627.77743  23502248.5134   23502247.9974
     -1065.0264
  -2271928.04748  -1767049.49245  22357932.7944   22357930.3294
      1115.5404
   2413488.33649   1872195.22746  20818555.9274   20818552.6344
     -1825.4914
  -2351405.16047  -1823738.32443  23756922.4114   23756920.1694
      1055.6944
   6325234.68447   4907838.03144  22932735.7004   22932731.8174
     -3919.0494
    -70258.52049    -57995.67246  21490355.9034   21490353.6304
      -133.5054
 04  9 14 21 13 15.0020000  0  7G10G 3G 8G13G19G23G27
   -319150.52347   -245064.59042  24500532.5334   24500531.1784
      1260.1294
    938798.10947    727186.17643  23505315.4244   23505314.4514
     -1074.4414
  -2288616.80148  -1780053.71145  22354756.3544   22354754.6464
      1112.5844
   2440987.34049   1893623.01247  20823788.5334   20823785.5454
     -1833.2674
  -2367155.52747  -1836011.31643  23753925.3304   23753923.2324
      1050.0244
   6384094.37147   4953702.67644  22943936.2214   22943933.0144
     -3923.9794
    -68214.34849    -56402.81246  21490744.9324   21490742.5764
      -136.2784
 04  9 14 21 13 30.0020000  0  7G10G 3G 8G13G19G23G27
   -337939.71947   -259705.52742  24496956.5964   24496955.0614
      1252.6134
    955053.73047    739852.87943  23508409.2134   23508408.5534
     -1083.7084
  -2305259.02348  -1793021.66845  22351589.6824   22351587.7364
      1109.4824
   2468599.19549   1915138.73847  20829042.9634   20829040.0104
     -1840.7904
  -2382818.62547  -1848216.29343  23750944.9634   23750942.4284
      1044.2074
   6443019.79747   4999618.54344  22955150.5724   22955146.6314
     -3928.3624
    -66129.01249    -54777.87546  21491141.5104   21491139.1934
      -139.0224
 04  9 14 21 13 45.0020000  0  7G10G 3G 8G13G19G23G27
   -356615.85247   -274258.34842  24493402.8304   24493401.7364
      1245.0764
    971450.71547    752629.76243  23511528.9864   23511528.2294
     -1093.1324
  -2321854.44548  -1805953.16045  22348431.8304   22348430.3384
      1106.3614
   2496327.00449   1936744.81347  20834319.4244   20834316.2604
     -1848.5214
  -2398393.97346  -1860352.91043  23747980.9324   23747978.2714
      1038.3574
   6502016.12948   5045589.68044  22966377.2834   22966373.0844
     -3933.0894
    -64001.06649    -53119.73446  21491546.6744   21491544.1004
      -141.8634
 04  9 14 21 14  0.0020000  0  7G10G 3G 8G13G19G23G27
   -375181.07447   -288724.73442  24489870.2754   24489868.2794
      1237.6824
    987986.76647    765514.98443  23514675.7684   23514675.1664
     -1102.4034
  -2338405.42648  -1818850.01245  22345282.6584   22345280.7604
      1103.3994
   2524168.40649   1958439.40247  20839617.5494   20839614.4794
     -1856.0934
  -2413883.46546  -1872422.62543  23745033.3074   23745030.2564
      1032.6334
   6561080.85948   5091614.12144  22977616.8694   22977612.8694
     -3937.6494
    -61832.75049    -51430.13746  21491959.2054   21491956.7214
      -144.5544
 04  9 14 21 14 15.0020000  0  7G10G 3G 8G13G19G23G27
   -393632.93447   -303102.81242  24486358.7294   24486357.3964
      1230.1244
   1004663.89147    778510.14143  23517848.9324   23517849.5024
     -1111.8084
  -2354909.95748  -1831710.67645  22342141.2054   22342139.5804
      1100.3024
   2552125.53149   1980224.16847  20844937.5184   20844934.6784
     -1863.8084
  -2429284.78947  -1884423.62943  23742101.9634   23742099.3304
      1026.7554
   6620215.59848   5137693.10944  22988869.2524   22988865.0024
     -3942.3164
    -59622.28949    -49707.69946  21492379.5804   21492377.0924
      -147.3644
 04  9 14 21 14 30.0020000  0  7G10G 3G 8G13G19G23G27
   -411972.85547   -317393.65642  24482869.0334   24482867.7914
      1222.6614
   1021480.64547    791614.09443  23521049.4004   23521049.3934
     -1121.1174
  -2371369.61348  -1844536.37145  22339009.3934   22339007.2754
      1097.3104
   2580196.87549   2002097.93446  20850279.1974   20850276.3264
     -1871.4234
  -2444599.18747  -1896356.89843  23739188.2054   23739185.4204
      1020.9604
   6679418.82047   5183825.46544  23000135.2914   23000130.5724
     -3946.8824
    -57371.00849    -47953.45346  21492807.9634   21492805.6154
      -150.0854
 04  9 14 21 14 45.0020000  0  7G10G 3G 8G13G19G23G27
   -430199.23847   -331596.01642  24479400.4004   24479399.5414
      1215.0924
   1038438.31647    804827.85943  23524276.6504   23524275.8344
     -1130.5114
  -2387782.95748  -1857325.97745  22335885.7444   22335884.1154
      1094.2234
   2608383.74649   2024061.71947  20855643.3614   20855639.9904
     -1879.1254
  -2459825.00047  -1908221.13343  23736290.8934   23736287.7324
      1015.0544
   6738691.77347   5230012.15243  23011414.4554   23011410.2054
     -3951.5304
    -55077.70349    -46166.45746  21493244.4324   21493242.0764
      -152.8874
 04  9 14 21 15  0.0020000  0  7G10G 3G 8G13G19G23G27
   -448312.13347   -345709.96142  24475953.6584   24475952.2714
      1207.5264
   1055536.68447    818151.25843  23527529.7914   23527529.1154
     -1139.8914
  -2404150.46548  -1870079.87145  22332771.2444   22332769.2484
      1091.1674
   2636685.92249   2046115.35547  20861028.6354   20861025.5764
     -1886.8124
  -2474962.23047  -1920016.36343  23733410.1194   23733407.4904
      1009.1494
   6798033.93847   5276252.77044  23022706.9864   23022703.2524
     -3956.1444
    -52742.70349    -44346.97346  21493688.8854   21493686.5024
      -155.6674
 04  9 14 21 15 15.0020000  0  7G10G 3G 8G13G19G23G27
   -466310.95747   -359735.01242  24472528.1974   24472527.5144
      1199.9224
   1072776.13747    831584.60543  23530810.6274   23530809.3504
     -1149.2974
  -2420471.75448  -1882797.75445  22329665.6274   22329663.5534
      1088.0864
   2665103.58249   2068258.98047  20866436.7364   20866433.6744
     -1894.5114
  -2490010.23047  -1931742.04343  23730546.6584   23730543.8034
      1003.2004
   6857445.37547   5322547.34444  23034013.4794   23034009.4434
     -3960.7624
    -50365.64149    -42494.71546  21494141.1044   21494138.4324
      -158.4714
 04  9 14 21 15 30.0020000  0  7G10G 3G 8G13G19G23G27
   -484195.92247   -373671.34442  24469125.2754   24469123.8464
      1192.3314
   1090156.17647    845127.50443  23534118.2134   23534117.3894
     -1158.6694
  -2436747.20748  -1895479.91045  22326568.1434   22326566.3694
      1085.0304
   2693636.37949   2090492.31347  20871866.1894   20871863.2754
     -1902.1864
  -2504969.12947  -1943398.30543  23727700.3854   23727697.1974
       997.2604
   6916925.41048   5368895.39144  23045332.4244   23045328.2174
     -3965.3364
    -47947.04749    -40610.10246  21494601.4634   21494599.0764
      -161.2404
 04  9 14 21 15 45.0020000  0  7G10G 3G 8G13G19G23G27
   -501965.63347   -387517.84442  24465743.4244   24465742.6044
      1184.6474
   1107678.05947    858780.90643  23537451.9474   23537451.0764
     -1168.1264
  -2452975.75448  -1908125.53145  22323480.3854   22323478.5334
      1081.9034
   2722285.52749   2112816.32447  20877317.9554   20877314.6784
     -1909.9434
  -2519837.32847  -1954983.90243  23724870.4004   23724867.4794
       991.2134
   6976475.10248   5415297.71144  23056663.7054   23056660.2324
     -3969.9794
    -45485.81249    -38692.25446  21495069.8224   21495067.3264
      -164.0824
 04  9 14 21 16  0.0020000  0  8G10G 3G 8G13G28G19G23G27
   -519620.31247   -401274.72742  24462383.6664   24462383.3304
      1176.9794
   1125341.44947    872544.59443  23540813.1434   23540812.5924
     -1177.5594
  -2469157.30549  -1920734.52045  22320400.8774   22320398.8424
      1078.7704
   2751050.54349   2135230.60547  20882791.9714   20882788.8964
     -1917.6684
   -115340.28157    -80174.64552  24719901.4164   24719900.5724

  -2534614.97347  -1966498.90243  23722059.3144   23722056.1664
       985.1764
   7036093.90247   5461753.87943  23068008.1664   23068004.9164
     -3974.5874
    -42982.18049    -36741.37546  21495546.1974   21495544.0414
      -166.9094
 04  9 14 21 16 15.0020000  0  8G10G 3G 8G13G28G19G23G27
   -537161.41447   -414943.11742  24459046.0334   24459045.3504
      1169.4074
   1143144.51647    886417.10543  23544201.1584   23544200.0804
     -1186.8714
  -2485294.10949  -1933308.64145  22317330.1974   22317328.3344
      1075.7874
   2779929.64549   2157733.79747  20888287.4394   20888284.4714
     -1925.2734
   -151618.03947   -108442.97742  24712997.8614   24712997.2364
      2418.5174
  -2549303.67247  -1977944.60943  23719263.2914   23719260.3034
       979.2474
   7095779.92247   5508262.43443  23079366.3614   23079361.8734
     -3979.0684
    -40438.05149    -34758.93446  21496030.5574   21496028.0254
      -169.6094
 04  9 14 21 16 30.0020000  0  8G10G 3G 8G13G28G19G23G27
   -554590.21147   -428523.96942  24455729.7134   24455728.3854
      1161.9204
   1161085.69947    900397.24243  23547615.1824   23547614.2994
     -1196.0794
  -2501387.59448  -1945849.00445  22314267.5884   22314266.0534
      1072.8994
   2808921.27049   2180324.66046  20893804.4864   20893801.3854
     -1932.7754
   -187864.41847   -136686.86342  24706100.4714   24706100.6394
      2416.4254
  -2563904.54347  -1989321.89843  23716485.0184   23716481.7294
       973.3914
   7155531.31347   5554821.94143  23090736.8774   23090732.3264
     -3983.4264
    -37855.03549    -32746.19546  21496521.9864   21496519.8424
      -172.2014
 04  9 14 21 16 45.0020000  0  8G10G 3G 8G13G28G19G23G27
   -571905.88347   -442016.69142  24452435.0334   24452433.5104
      1154.3784
   1179165.64846    914485.50843  23551056.0574   23551054.9244
     -1205.3304
  -2517437.16448  -1958355.15645  22311213.6114   22311211.8344
      1069.9714
   2838026.15649   2203003.78546  20899342.7834   20899339.4714
     -1940.3264
   -224078.48447   -164905.54342  24699208.8384   24699209.4084
      2414.2714
  -2578416.65647  -2000630.01643  23713723.4714   23713720.4674
       967.4744
   7215348.56348   5601432.75844  23102120.2604   23102115.4594
     -3987.8174
    -35232.40249    -30702.59446  21497020.9634   21497018.5534
      -174.8424
 04  9 14 21 17  0.0020000  0  8G10G 3G 8G13G28G19G23G27
   -589106.88346   -455420.06642  24449161.2604   24449160.1074
      1146.7334
   1197385.55147    928682.83243  23554522.9944   23554522.2174
     -1214.6604
  -2533441.35948  -1970825.95345  22308168.0494   22308165.8934
      1066.9464
   2867245.57449   2225772.14846  20904902.8614   20904900.2484
     -1947.9614
   -260258.75847   -193097.91842  24692324.3224   24692323.7404
      2412.0184
  -2592838.34447  -2011867.68443  23710979.1114   23710976.6354
       961.4464
   7275232.71547   5648095.71544  23113515.6274   23113512.2294
     -3992.2774
    -32568.98049    -28627.19946  21497527.8854   21497525.4794
      -177.5614
 04  9 14 21 17 15.0020000  0  8G10G 3G 8G13G28G19G23G27
   -606193.05147   -468733.93742  24445910.0254   24445909.1114
      1139.0784
   1215745.57448    942989.34443  23558017.2054   23558015.6544
     -1224.0024
  -2549400.28948  -1983261.47345  22305131.1194   22305129.1784
      1063.9294
   2896579.50449   2248629.75047  20910485.2914   20910482.4554
     -1955.5954
   -296405.06647   -221263.81642  24685445.7754   24685444.9244
      2409.7544
  -2607169.43047  -2023034.74243  23708251.5184   23708248.7324
       955.4064
   7335183.66447   5694810.69544  23124923.1584   23124920.2794
     -3996.7304
    -29864.80149    -26520.05146  21498042.6974   21498040.0064
      -180.2794
 04  9 14 21 17 30.0020000  0  8G10G 3G 8G13G28G19G23G27
   -623164.29346   -481958.28542  24442680.4394   24442679.5534
      1131.4164
   1234245.45346    957404.82443  23561537.3544   23561536.9434
     -1233.3254
  -2565314.17648  -1995661.89145  22302103.0494   22302100.8654
      1060.9264
   2926027.72749   2271576.40646  20916089.0574   20916086.0294
     -1963.2154
   -332517.51247   -249403.35242  24678573.7684   24678572.6624
      2407.4964
  -2621409.80947  -2034131.10943  23705541.5884   23705539.1044
       949.3594
   7395200.96947   5741577.36744  23136344.5024   23136341.2604
     -4001.1544
    -27120.09449    -24381.32446  21498564.7684   21498562.5144
      -182.9804
 04  9 14 21 17 45.0020000  0  8G10G 3G 8G13G28G19G23G27
   -640018.23046   -495091.19942  24439472.6894   24439471.6934
      1123.5964
   1252887.25447    971930.90243  23565084.4864   23565083.6744
     -1242.7874
  -2581180.75448  -2008025.45345  22299083.8224   22299081.3034
      1057.7724
   2955592.18848   2294613.63747  20921714.8694   20921711.8814
     -1970.9644
   -368593.73847   -277514.65242  24671708.6194   24671707.1194
      2405.0824
  -2635556.98448  -2045154.87544  23702849.9634   23702847.2834
       943.1454
   7455286.57847   5788397.27043  23147778.9394   23147774.4124
     -4005.7074
    -24332.60249    -22209.25046  21499095.3304   21499092.6314
      -185.8334
 04  9 14 21 18  0.0020000  0  8G10G 3G 8G13G28G19G23G27
   -656756.36347   -508133.91842  24436287.9004   24436287.0414
      1115.8764
   1271669.47747    986566.40243  23568658.8934   23568658.3034
     -1252.1484
  -2597001.68448  -2020353.43745  22296072.9554   22296070.7364
      1054.7294
   2985271.57449   2317740.42647  20927362.7214   20927359.6504
     -1978.6264
   -404635.07047   -305598.77342  24664850.2214   24664849.1194
      2402.7554
  -2649612.25447  -2056107.02343  23700175.8854   23700173.1544
       937.0184
   7515438.64548   5835268.98044  23159225.4714   23159221.2874
     -4010.1384
    -21504.18049    -20005.28946  21499633.5804   21499630.7564
      -188.5614
 04  9 14 21 18 15.0020000  0  8G10G 3G 8G13G28G19G23G27
   -673379.40647   -521086.94142  24433124.1504   24433123.4284
      1108.2034
   1290590.99247   1001310.44143  23572258.9634   23572259.0334
     -1261.4344
  -2612777.98048  -2032646.64845  22293070.8144   22293068.5494
      1051.7534
   3015064.72749   2340955.85946  20933032.2444   20933029.0374
     -1986.2104
   -440642.33247   -333656.31642  24657998.2214   24657997.1464
      2400.4844
  -2663576.35247  -2066988.11743  23697518.0574   23697515.7214
       930.9404
   7575656.03548   5882191.59844  23170684.6824   23170679.9004
     -4014.4934
    -18635.69949    -17770.10946  21500179.5184   21500176.7684
      -191.2324
 04  9 14 21 18 30.0020000  0  8G10G 3G 8G13G28G19G23G27
   -689885.03146   -533948.45742  24429983.5414   24429982.8304
      1100.3754
   1309654.12147   1016164.82043  23575886.9554   23575886.5254
     -1270.8754
  -2628507.41048  -2044903.34045  22290077.4474   22290075.7054
      1048.6294
   3044973.70349   2364261.55146  20938723.6044   20938720.3114
     -1993.9324
   -476613.22347   -361685.55542  24651153.2294   24651151.8264
      2398.0594
  -2677446.93047  -2077796.34043  23694878.6824   23694875.8694
       924.7054
   7635940.76247   5929166.70744  23182155.6194   23182151.9594
     -4018.9824
    -15725.17249    -15502.16846  21500733.3224   21500730.6434
      -194.0354
 04  9 14 21 18 45.0020000  0  8G10G 3G 8G13G28G19G23G27
   -706273.08646   -546718.38742  24426865.3304   24426863.5804
      1092.5374
   1328858.75048   1031129.46143  23579541.6274   23579540.9674
     -1280.3094
  -2644190.07048  -2057123.58245  22287093.1194   22287091.6074
      1045.5114
   3074998.58648   2387657.54347  20944437.2214   20944434.1544
     -2001.6594
   -512547.63747   -389686.33642  24644315.2364   24644313.7014
      2395.6284
  -2691223.61347  -2088531.40643  23692256.9084   23692254.1044
       918.4464
   7696292.49247   5976194.00444  23193640.0804   23193636.9004
     -4023.4494
    -12772.55149    -13201.42246  21501294.8614   21501292.5614
      -196.8414
 04  9 14 21 19  0.0020000  0  8G10G 3G 8G13G28G19G23G27
   -722544.91446   -559397.71942  24423768.5884   24423767.1784
      1084.7894
   1348203.09048   1046202.97743  23583222.7994   23583221.4864
     -1289.6234
  -2659827.78948  -2069308.81245  22284117.7214   22284115.5804
      1042.5154
   3105137.63349   2411142.51247  20950172.2834   20950169.5574
     -2009.2704
   -548447.02347   -417659.84442  24637483.6434   24637482.0684
      2393.2924
  -2704907.80947  -2099194.39143  23689652.7994   23689649.7834
       912.2804
   7756709.32447   6023271.98044  23205137.3774   23205134.7484
     -4027.7894
     -9779.68049    -10869.31646  21501864.6434   21501862.1624
      -199.5254
 04  9 14 21 19 15.0020000  0  8G10G 3G 8G13G28G19G23G27
   -738698.64147   -571985.02742  24420695.0334   24420693.2914
      1076.9154
   1367689.03148   1061386.84443  23586931.0334   23586929.4364
     -1299.0634
  -2675418.52348  -2081457.42645  22281150.6894   22281148.9394
      1039.3824
   3135392.62149   2434717.81647  20955929.5964   20955926.8854
     -2016.9994
   -584309.46547   -445604.57042  24630659.1044   24630657.9474
      2390.8294
  -2718497.35947  -2109783.64843  23687066.5494   23687064.0614
       905.9704
   7817192.94147   6070402.01644  23216646.8304   23216644.1074
     -4032.2414
     -6744.65649     -8504.36346  21502442.1974   21502439.7364
      -202.3354
 04  9 14 21 19 30.0020000  0  8G10G 3G 8G13G28G19G23G27
   -754734.60947   -584480.58242  24417643.1354   24417642.1624
      1069.0654
   1387315.91848   1076680.51243  23590665.5024   23590664.2094
     -1308.4594
  -2690963.29348  -2093570.22745  22278192.9084   22278190.4794
      1036.3184
   3165762.82449   2458382.90246  20961709.0494   20961705.8384
     -2024.6804
   -620135.44947   -473520.87142  24623841.7444   24623840.5614
      2388.3994
  -2731992.84847  -2120299.60943  23684498.6974   23684495.7564
       899.6994
   7877742.41048   6117583.37944  23228169.9324   23228166.0884
     -4036.6314
     -3668.23049     -6107.15646  21503027.4244   21503024.9984
      -205.0954
 04  9 14 21 19 45.0020000  0  8G10G 3G 8G13G28G19G23G27
   -770652.93047   -596884.49242  24414614.2364   24414613.0294
      1061.2214
   1407083.36748   1092083.71943  23594427.4554   23594426.0684
     -1317.8304
  -2706462.23048  -2105647.32045  22275243.3144   22275240.9004
      1033.2634
   3196247.92649   2482137.52046  20967509.7754   20967506.9864
     -2032.3404
   -655925.02047   -501408.78942  24617030.7294   24617030.2604
      2385.9714
  -2745394.04748  -2130742.07843  23681948.5414   23681946.1314
       893.4134
   7938357.23047   6164815.69144  23239704.0644   23239700.0884
     -4040.9884
      -550.59449     -3677.82046  21503620.7444   21503618.2754
      -207.8424
 04  9 14 21 20  0.0020000  0  8G10G 3G 8G13G28G19G23G27
   -786453.13347   -609196.31642  24411607.9474   24411605.7404
      1053.3474
   1426991.57048   1107596.59443  23598215.1824   23598214.2404
     -1327.2144
  -2721915.00048  -2117688.43045  22272302.2364   22272300.2914
      1030.1854
   3226848.16449   2505981.84047  20973333.1894   20973330.1434
     -2040.0164
   -691677.79347   -529268.04742  24610227.1744   24610226.4714
      2383.5184
  -2758700.53547  -2141110.76243  23679416.1894   23679413.7954
       887.0994
   7999037.52348   6212099.02043  23251250.9634   23251247.1354
     -4045.3534
      2608.27749     -1216.37546  21504222.0494   21504219.4714
      -210.5914
 04  9 14 21 20 15.0020000  0  8G10G 3G 8G13G28G19G23G27
   -802135.25847   -621416.15242  24408623.4864   24408622.0924
      1045.4754
   1447040.34848   1123219.01243  23602031.1274   23602030.0684
     -1336.5854
  -2737321.60948  -2129693.57845  22269370.7684   22269368.4084
      1027.1074
   3257563.28549   2529915.69147  20979177.9864   20979175.2094
     -2047.6754
   -727393.75447   -557098.60242  24603431.1434   24603430.1864
      2381.0644
  -2771912.21147  -2151405.54743  23676902.1974   23676899.3814
       880.7784
   8059782.79747   6259432.96943  23262810.1824   23262806.6394
     -4049.6854
      5808.16049      1277.03546  21504830.9084   21504828.3854
      -213.3264
 04  9 14 21 20 30.0020000  0  8G10G 3G 8G13G28G19G23G27
   -817698.64847   -633543.47342  24405661.6664   24405660.5104
      1037.5594
   1467230.21948   1138951.38343  23605873.1744   23605871.4944
     -1345.9914
  -2752681.89849  -2141662.62545  22266447.9794   22266446.0454
      1024.0194
   3288393.85549   2553939.50446  20985045.0254   20985042.2364
     -2055.3714
   -763072.27347   -584900.00042  24596641.5024   24596640.3504
      2378.5684
  -2785028.26247  -2161625.83644  23674406.4634   23674403.3694
       874.4034
   8120593.46547   6306817.85243  23274382.2294   23274379.3694
     -4054.0454
      9049.64149      3802.86346  21505447.5184   21505445.0924
      -216.0994
 04  9 14 21 20 45.0020000  0  8G10G 3G 8G13G28G19G23G27
   -833140.38347   -645575.99642  24402722.7994   24402721.9244
      1029.4494
   1487563.75448   1154795.69143  23609742.5254   23609740.8384
     -1355.5694
  -2767993.14149  -2153593.45745  22263534.0184   22263532.2684
      1020.7494
   3319342.46949   2578055.29746  20990934.0804   20990931.2644
     -2063.2414
   -798710.50847   -612670.02042  24589859.8464   24589858.4634
      2375.8824
  -2798045.72747  -2171769.30943  23671929.0574   23671926.0614
       867.8314
   8181472.02348   6354255.64144  23285967.4394   23285964.5494
     -4058.5714
     12335.42249      6363.21546  21506073.1824   21506070.1974
      -219.0524
 04  9 14 21 21  0.0020000  0  8G10G 3G 8G13G28G19G23G27
   -848461.80147   -657514.75442  24399807.7684   24399806.2834
      1021.4284
   1508039.39147   1170750.72343  23613638.4004   23613637.6784
     -1365.0424
  -2783256.70349  -2165487.13745  22260629.3074   22260627.3654
      1017.5714
   3350407.50449   2602261.80947  20996845.7834   20996842.5964
     -2071.0024
   -834309.76247   -640409.64542  24583085.1354   24583084.1354
      2373.2844
  -2810965.94947  -2181837.00843  23669470.9864   23669467.2484
       861.3484
   8242416.59847   6401744.87544  23297564.9794   23297561.4434
     -4062.9724
     15663.78949      8956.74646  21506706.3304   21506703.7444
      -221.8914
 04  9 14 21 21 15.0020000  0  8G10G 3G 8G13G28G19G23G27
   -863664.99247   -669361.37542  24396914.3224   24396912.9944
      1013.5464
   1528654.66847   1186814.57043  23617561.5184   23617560.4794
     -1374.3524
  -2798475.11749  -2177345.63345  22257733.5024   22257731.5184
      1014.5614
   3381586.52049   2626557.12947  21002778.8074   21002775.8854
     -2078.6014
   -869872.37547   -668120.73042  24576318.0334   24576316.4324
      2370.8414
  -2823791.00847  -2191830.53543  23667030.7994   23667026.9594
       855.0044
   8303424.53548   6449283.49644  23309174.5724   23309170.9044
     -4067.1964
     19032.30549     11581.56346  21507347.3384   21507344.6974
      -224.5684
 04  9 14 21 21 30.0020000  0  8G10G 3G 8G13G28G19G23G27
   -878746.75847   -681113.41042  24394044.6044   24394043.0494
      1005.4514
   1549412.60248   1202989.57843  23621511.7214   23621510.6864
     -1383.8624
  -2813645.41049  -2189166.63345  22254847.0184   22254844.8144
      1011.3534
   3412882.71549   2650943.76247  21008734.6274   21008731.1974
     -2086.4134
   -905395.05947   -695800.70342  24569557.7524   24569556.6864
      2368.1794
  -2836517.58647  -2201747.35543  23664608.3774   23664605.6624
       848.4394
   8364498.78947   6496873.78943  23320796.0964   23320792.9714
     -4071.6174
     22444.10949     14240.10546  21507996.6974   21507994.1704
      -227.4544
 04  9 14 21 21 45.0020000  0  8G10G 3G 8G13G28G19G23G27
   -893705.92247   -692769.88342  24391197.8304   24391196.5104
       997.2784
   1570314.13748   1219276.48043  23625489.0964   23625488.1194
     -1393.4364
  -2828766.55149  -2200949.32845  22251969.0104   22251967.6624
      1008.0764
   3444296.89849   2675422.34047  21014712.1584   21014709.2174
     -2094.2794
   -940876.63347   -723448.62142  24562805.6194   24562804.6664
      2365.4384
  -2849144.28947  -2211586.33243  23662205.1194   23662202.5724
       841.7804
   8425640.12147   6544516.34043  23332431.2364   23332426.9824
     -4076.0894
     25900.07049     16933.05946  21508654.2214   21508651.5614
      -230.3974
 04  9 14 21 22  0.0020000  0  8G10G 3G 8G13G28G19G23G27
   -908545.14547   -704332.91442  24388374.3854   24388372.7714
       989.2824
   1591356.55948   1235673.17643  23629493.5644   23629492.3424
     -1402.8284
  -2843841.34449  -2212695.91845  22249100.5964   22249098.6934
      1004.9864
   3475826.09049   2699990.52747  21020712.3304   21020709.1074
     -2101.9464
   -976319.82447   -751066.64542  24556061.3304   24556060.2444
      2362.8794
  -2861673.84047  -2221349.60943  23659821.0414   23659818.0214
       835.3034
   8486845.52747   6592208.83244  23344078.1974   23344073.9904
     -4080.3604
     29397.30949     19658.18046  21509319.6664   21509317.2714
      -233.1494
 04  9 14 21 22 15.0020000  0  8G10G 3G 8G13G28G19G23G27
   -923262.09047   -715800.65642  24385573.8774   24385571.6354
       981.1304
   1612541.82448   1252181.17243  23633524.5574   23633523.5254
     -1412.3514
  -2858867.68449  -2224404.74645  22246241.3614   22246239.5724
      1001.7564
   3507472.52349   2724650.07046  21026734.1974   21026731.1934
     -2109.7624
  -1011722.43447   -778653.06242  24549324.3614   24549323.8504
      2360.1744
  -2874103.82847  -2231035.30543  23657455.6824   23657452.2754
       828.6664
   8548116.73848   6639952.61344  23355738.3074   23355734.2364
     -4084.7474
     32937.92249     22417.09846  21509993.3304   21509990.8614
      -236.0414
 04  9 14 21 22 30.0020000  0  8G10G 3G 8G13G28G19G23G27
   -937857.24647   -727173.50842  24382796.0024   24382795.0454
       973.0104
   1633869.17248   1268799.88343  23637582.9244   23637582.3184
     -1421.8234
  -2873846.19549  -2236076.30545  22243390.8074   22243389.1274
       998.5674
   3539235.48849   2749400.43047  21032778.4084   21032775.6504
     -2117.5314
  -1047084.77747   -806208.09442  24542595.1044   24542594.0724
      2357.4904
  -2886434.62547  -2240643.71143  23655109.1744   23655106.0574
       822.0534
   8609453.00447   6687747.07444  23367410.0414   23367406.4474
     -4089.0844
     36521.26649     25209.31346  21510675.1114   21510672.5764
      -238.8904
 04  9 14 21 22 45.0020000  0  8G10G 3G 8G13G28G19G23G27
   -952331.41047   -738452.03642  24380042.0024   24380040.2134
       964.9444
   1655337.69548   1285528.60243  23641667.8144   23641667.5804
     -1431.2354
  -2888777.82849  -2247711.34045  22240549.5884   22240547.5964
       995.4424
   3571113.91849   2774240.75046  21038844.9164   21038841.7444
     -2125.2294
  -1082407.60247   -833732.29742  24535873.1434   24535872.0454
      2354.8554
  -2898666.76646  -2250175.23443  23652781.5884   23652778.5924
       815.4764
   8670853.20347   6735591.35544  23379093.9864   23379090.6584
     -4093.3474
     40146.35949     28034.06646  21511364.9944   21511362.6004
      -241.6734
 04  9 14 21 23  0.0020000  0  8G10G 3G 8G13G28G19G23G27
   -966683.10547   -749635.20342  24377311.1974   24377309.0254
       956.7804
   1676948.56348   1302368.23843  23645780.8074   23645780.2254
     -1440.7244
  -2903661.34049  -2259308.87145  22237717.2684   22237715.3694
       992.2344
   3603109.17249   2799172.10546  21044933.4864   21044930.3384
     -2133.0174
  -1117689.61347   -861224.72742  24529159.2134   24529158.6314
      2352.1344
  -2910798.79347  -2259628.75443  23650472.9794   23650470.4324
       808.8024
   8732318.34447   6783486.21143  23390789.9004   23390786.9124
     -4097.6764
     43814.46949     30892.32846  21512063.1974   21512060.8074
      -244.5414
 04  9 14 21 23 15.0020000  0  8G10G 3G 8G13G28G19G23G27
   -980913.37146   -760723.71542  24374603.1274   24374600.8344
       948.6844
   1698700.43848   1319317.74243  23649919.8074   23649918.6934
     -1450.1254
  -2918498.04749  -2270869.93445  22234894.2134   22234891.8114
       989.1144
   3635219.80549   2824193.36347  21051043.7444   21051040.6864
     -2140.7094
  -1152931.84047   -888686.16042  24522453.5964   24522452.1154
      2349.4824
  -2922831.68747  -2269005.02743  23648183.7364   23648180.1664
       802.1934
   8793846.90647   6831430.49243  23402498.4554   23402495.3934
     -4101.9044
     47524.18049     33783.01246  21512768.9004   21512766.5024
      -247.3144
 04  9 14 21 23 30.0020000  0  8G10G 3G 8G13G28G19G23G27
   -995021.10546   -771716.75842  24371918.5964   24371917.0684
       940.5164
   1720594.35248   1336377.94543  23654086.7444   23654085.2174
     -1459.5944
  -2933287.00049  -2282393.79345  22232079.8544   22232077.4904
       985.9304
   3667446.80149   2849305.30546  21057176.5024   21057173.3734
     -2148.4664
  -1188133.10247   -916115.68742  24515754.6354   24515753.2994
      2346.7514
  -2934764.23047  -2278303.10943  23645912.6744   23645909.8074
       795.5034
   8855439.69947   6879424.83643  23414219.5414   23414215.5644
     -4106.1864
     51276.52349     36706.91446  21513483.1824   21513480.4794
      -250.1564
 04  9 14 21 23 45.0020000  0  8G10G 3G 8G13G28G19G23G27
  -1009005.44146   -782613.62142  24369256.9084   24369256.0924
       932.2894
   1742630.77048   1353549.16843  23658279.8544   23658278.9864
     -1469.0954
  -2948027.66049  -2293880.02045  22229274.5254   22229272.5494
       982.7114
   3699790.59849   2874508.24646  21063331.1354   21063328.2364
     -2156.2534
  -1223292.73048   -943512.75842  24509063.9714   24509062.7684
      2343.9754
  -2946595.66047  -2287522.39543  23643660.8854   23643657.8964
       788.7624
   8917097.09047   6927469.53143  23425952.5574   23425948.2994
     -4110.4934
     55071.96949     39664.40646  21514205.1744   21514203.0374
      -253.0304
 04  9 14 21 24  0.0020000  0  8G10G 3G 8G13G28G19G23G27
  -1022866.49246   -793414.44142  24366619.8544   24366618.3854
       924.0704
   1764809.49647   1370831.29743  23662500.1114   23662499.4434
     -1478.5824
  -2962720.08649  -2305328.64845  22226479.0104   22226476.7014
       979.4954
   3732251.02749   2899802.07847  21069508.2754   21069505.5374
     -2164.0294
  -1258410.71148   -970877.39142  24502381.2604   24502380.0844
      2341.1994
  -2958325.78147  -2296662.75043  23641428.7994   23641426.3814
       782.0084
   8978818.70348   6975564.27044  23437697.9004   23437694.3464
     -4114.7744
     58910.34449     42655.35246  21514935.8384   21514933.2014
      -255.8924
 04  9 14 21 24 15.0020000  0  8G10G 3G 8G13G28G19G23G27
  -1036604.08247   -804119.02342  24364005.4714   24364004.2524
       915.8394
   1787130.26248   1388224.09043  23666747.5574   23666746.8544
     -1488.0514
  -2977364.46949  -2316739.84845  22223691.6824   22223689.8654
       976.2924
   3764828.02349   2925186.73046  21075707.5804   21075704.6274
     -2171.8004
  -1293487.03547   -998209.53942  24495706.1504   24495704.9824
      2338.4224
  -2969954.48846  -2305724.05143  23639215.8694   23639213.1784
       775.2474
   9040604.13347   7023708.71144  23449455.0574   23449452.3544
     -4119.0294
     62791.59849     45679.70346  21515674.3614   21515671.8034
      -258.7504
 04  9 14 21 24 30.0020000  0  8G10G 3G 8G13G28G19G23G27
  -1050219.09046   -814728.12142  24361414.4324   24361412.9824
       907.6674
   1809592.04747   1405726.78142  23671021.5494   23671021.0684
     -1497.4524
  -2991961.78149  -2328114.37145  22220914.2364   22220912.2954
       973.1544
   3797520.49249   2950661.37546  21081928.4164   21081925.5574
     -2179.4984
  -1328522.49647  -1025509.84842  24489039.9474   24489038.2524
      2335.6974
  -2981482.54346  -2314706.93443  23637021.8934   23637019.8034
       768.5374
   9102452.19547   7071901.93443  23461224.7994   23461222.0644
     -4123.2044
     66714.53949     48736.54346  21516420.7214   21516418.4944
      -261.5294
 04  9 14 21 24 45.0020000  0  8G10G 3G 8G13G28G19G23G27
  -1063711.10547   -825241.36742  24358847.1044   24358844.9824
       899.4684
   1832194.89148   1423339.37543  23675323.2134   23675322.2794
     -1506.8564
  -3006511.90249  -2339452.12145  22218145.5104   22218143.2294
       970.0084
   3830328.47749   2976226.02746  21088171.6194   21088168.7364
     -2187.1994
  -1363516.81647  -1052778.10942  24482380.3384   24482379.4084
      2332.9554
  -2992909.53147  -2323611.05543  23634847.6044   23634845.2644
       761.7994
   9164362.73048   7120143.84843  23473006.1664   23473002.8934
     -4127.3694
     70679.30149     51825.96946  21517175.4004   21517173.0294
      -264.3174
 04  9 14 21 25  0.0020000  0  8G10G 3G 8G13G28G19G23G27
  -1077079.21547   -835658.05942  24356303.1354   24356302.0644
       891.2074
   1854939.62948   1441062.54743  23679650.9394   23679650.1894
     -1516.3164
  -3021014.01649  -2350752.46145  22215385.7684   22215384.1934
       966.8084
   3863252.75049   3001881.29346  21094437.0574   21094433.9474
     -2194.9524
  -1398468.95748  -1080013.50442  24475728.7364   24475728.0644
      2330.1434
  -3004234.34047  -2332435.57844  23632692.8934   23632689.5334
       754.9874
   9226336.46948   7168435.03943  23484799.6354   23484795.2294
     -4131.5834
     74686.76649     54948.66846  21517937.8304   21517935.4904
      -267.1644
 04  9 14 21 25 15.0020000  0  8G10G 3G 8G13G28G19G23G27
  -1090322.62946   -845977.59442  24353783.0964   24353781.7834
       882.8944
   1877826.81648   1458896.74242  23684006.1744   23684005.1394
     -1525.8124
  -3035467.48849  -2362014.89545  22212635.2444   22212633.2684
       963.5654
   3896293.90649   3027627.63347  21100724.7214   21100721.3964
     -2202.7444
  -1433378.24647  -1107215.50042  24469085.7834   24469084.7954
      2327.2864
  -3015456.07447  -2341179.77043  23630556.8144   23630553.6234
       748.1164
   9288373.74248   7216775.75043  23496605.1434   23496600.0534
     -4135.8184
     78737.44549     58105.04746  21518708.7604   21518706.5144
      -270.0454
 04  9 14 21 25 30.0020000  0  8G10G 3G 8G13G28G19G23G27
  -1103442.22747   -856200.64842  24351285.8774   24351285.4284
       874.6404
   1900855.35948   1476841.04743  23688388.4244   23688387.8814
     -1535.2364
  -3049873.52749  -2373240.37945  22209894.1274   22209892.2174
       960.4034
   3929450.80148   3053464.16446  21107034.2294   21107031.1664
     -2210.4604
  -1468245.46148  -1134384.72342  24462450.7994   24462449.8074
      2324.4814
  -3026575.48447  -2349844.25043  23628441.3934   23628437.9794
       741.2944
   9350473.21948   7265164.94943  23508421.6894   23508417.5494
     -4139.9654
     82830.29748     61294.28146  21519487.5574   21519485.5884
      -272.8574
 04  9 14 21 25 45.0020000  0  8G10G 3G 8G13G28G19G23G27
  -1116437.67647   -866326.96142  24348813.4634   24348812.1824
       866.3634
   1924025.16847   1494895.43842  23692797.1274   23692796.6784
     -1544.6544
  -3064231.85249  -2384428.68045  22207161.6504   22207159.6784
       957.2224
   3962723.47349   3079390.90646  21113365.8694   21113363.1544
     -2218.1784
  -1503070.43748  -1161521.02342  24455823.8614   24455822.1824
      2321.6654
  -3037592.34446  -2358428.79343  23626345.5024   23626341.8144
       734.4574
   9412634.82848   7313602.52343  23520250.2914   23520246.6584
     -4144.1074
     86965.32048     64516.37146  21520274.5334   21520271.9434
      -275.6684
 04  9 14 21 26  0.0020000  0  8G10G 3G 8G13G28G19G23G27
  -1129308.67247   -876356.30542  24346364.0964   24346363.0614
       858.0664
   1947336.41047   1513060.03542  23697233.4634   23697232.8654
     -1554.0834
  -3078542.47349  -2395579.80545  22204438.2444   22204436.3814
       954.0414
   3996112.03548   3105407.95746  21119719.3224   21119716.3614
     -2225.9044
  -1537852.77348  -1188624.10242  24449204.8224   24449203.6274
      2318.8224
  -3048506.27047  -2366933.14143  23624267.8304   23624265.1934
       727.5954
   9474858.57448   7362088.49643  23532091.1664   23532088.1704
     -4148.2504
     91142.73448     67771.50847  21521069.2524   21521067.1744
      -278.4944
 04  9 14 21 26 15.0020000  0  8G10G 3G 8G13G28G19G23G27
  -1142056.66847   -886289.79742  24343938.0964   24343937.0214
       849.8664
   1970787.50448   1531333.60543  23701696.0884   23701695.5064
     -1563.4064
  -3092806.94549  -2406694.96945  22201724.0184   22201722.1464
       950.9654
   4029614.93849   3131514.10947  21126094.5884   21126092.0844
     -2233.5274
  -1572593.88348  -1215695.05942  24442593.5414   24442592.6194
      2316.0744
  -3059318.45747  -2375358.19543  23622210.5024   23622207.6504
       720.8134
   9537142.61348   7410621.45743  23543944.2294   23543940.9514
     -4152.2694
     95360.86749     71058.35946  21521872.1044   21521869.5374
      -281.2094
 04  9 14 21 26 30.0020000  0  8G10G 3G 8G13G28G19G23G27
  -1154680.53547   -896126.57042  24341536.0024   24341535.2404
       841.5914
   1994379.09847   1549716.65243  23706185.4944   23706185.4084
     -1572.7734
  -3107024.18049  -2417773.32045  22199018.6274   22199016.5374
       947.8164
   4063232.85249   3157709.87146  21132491.9004   21132489.1074
     -2241.1944
  -1607292.86748  -1242733.18742  24435991.0104   24435989.2794
      2313.2664
  -3070027.81247  -2383703.13343  23620172.4474   23620169.8544
       713.9574
   9599487.51248   7459201.85244  23555808.3934   23555804.0924
     -4156.3274
     99620.54349     74377.59046  21522682.7054   21522679.9514
      -283.9784
 04  9 14 21 26 45.0020000  0  8G10G 3G 8G13G28G19G23G27
  -1167178.71147   -905865.39842  24339157.5334   24339156.5294
       833.2124
   2018112.54747   1568210.23043  23710701.7214   23710701.3074
     -1582.2304
  -3121193.06249  -2428814.00845  22196322.2294   22196320.2014
       944.5924
   4096967.06348   3183996.26246  21138911.3854   21138908.7364
     -2248.9474
  -1641948.08247  -1269737.21542  24429396.3544   24429395.1704
      2310.3484
  -3080632.67247  -2391966.64843  23618154.9004   23618151.6464
       706.9914
   9661894.43448   7507830.60244  23567683.4634   23567679.8224
     -4160.4614
    103923.15648     77730.27346  21523501.5024   21523499.0644
      -286.8414
 04  9 14 21 27  0.0020000  0  8G10G 3G 8G13G28G19G23G27
  -1179551.94147   -915506.86742  24336802.9394   24336801.9864
       824.8824
   2041986.87547   1586813.62143  23715244.6664   23715244.1394
     -1591.6224
  -3135314.50849  -2439817.72745  22193635.2604   22193633.5724
       941.4304
   4130816.67248   3210372.56346  21145352.7834   21145350.2404
     -2256.6414
  -1676560.35947  -1296707.77742  24422809.2684   24422808.0494
      2307.4854
  -3091133.72347  -2400149.27743  23616156.3144   23616152.9324
       700.0704
   9724362.33248   7556506.84444  23579570.5104   23579566.4284
     -4164.5274
    108267.64148     81115.59446  21524328.1274   21524325.9434
      -289.6324
 04  9 14 21 27 15.0020000  0  8G10G 3G 8G13G28G19G23G27
  -1191801.01247   -925051.60242  24334472.1744   24334471.1154
       816.6054
   2066001.21947   1605526.08242  23719814.9394   23719813.2754
     -1600.9564
  -3149389.34849  -2450785.12145  22190956.7444   22190954.7524
       938.3234
   4164780.92648   3236838.20346  21151816.1824   21151813.4554
     -2264.2844
  -1711130.30548  -1323645.37942  24416231.0964   24416229.2134
      2304.6634
  -3101531.46547  -2408251.40244  23614177.8074   23614174.8264
       693.1834
   9786890.12147   7605229.78143  23591468.7684   23591464.6824
     -4168.5194
    112653.35248     84533.02346  21525162.6194   21525160.4084
      -292.3814
 04  9 14 21 27 30.0020000  0  8G10G 3G 8G13G28G19G23G27
  -1203923.62147   -934497.76642  24332165.1974   24332164.1864
       808.1744
   2090157.43048   1624349.09443  23724411.8614   23724410.3934
     -1610.4144
  -3163415.39149  -2461714.49645  22188287.5494   22188285.8894
       935.0704
   4198861.64549   3263394.59446  21158301.6354   21158298.7444
     -2272.0484
  -1745655.63347  -1350548.17642  24409661.0724   24409659.7754
      2301.6894
  -3111823.62147  -2416271.26244  23612218.7134   23612216.5024
       686.1444
   9849479.60548   7654000.76243  23603379.2364   23603375.5414
     -4172.6324
    117082.12149     87984.01246  21526005.2994   21526003.1394
      -295.2514
 04  9 14 21 27 45.0020000  0  8G10G 3G 8G13G28G19G23G27
  -1215921.33247   -943846.63342  24329881.9794   24329881.0024
       799.8474
   2114453.85248   1643281.37143  23729035.0804   23729034.9084
     -1619.7614
  -3177394.38749  -2472607.21545  22185627.5884   22185625.6354
       931.9334
   4233057.26249   3290040.52046  21164808.6044   21164805.8344
     -2279.7084
  -1780137.98047  -1377417.50442  24403098.9554   24403098.3074
      2298.8234
  -3122011.63346  -2424209.94544  23610280.5334   23610277.3424
       679.2014
   9912128.85948   7702818.30544  23615301.3384   23615298.4824
     -4176.6174
    121552.34449     91467.30546  21526855.9164   21526853.6864
      -298.0154
 04  9 14 21 28  0.0020000  0  8G10G 3G 8G13G28G19G23G27
  -1227793.87546   -953097.94942  24327622.5414   24327621.6934
       791.5034
   2138890.41847   1662322.83643  23733685.0414   23733684.2524
     -1629.1044
  -3191326.42649  -2483463.34445  22182976.3144   22182974.5534
       928.8034
   4267367.55149   3316775.79746  21171337.8544   21171334.8074
     -2287.3534
  -1814577.13347  -1404253.16842  24396545.7054   24396544.4284
      2295.9434
  -3132095.34446  -2432067.35944  23608361.2134   23608358.3694
       672.2474
   9974837.64848   7751682.25444  23627235.0574   23627232.1044
     -4180.5864
    126063.95348     94982.84846  21527714.8464   21527712.1664
      -300.7744
 04  9 14 21 28 15.0020000  0  8G10G 3G 8G13G28G19G23G27
  -1239540.86746   -962251.43742  24325387.2994   24325386.1624
       783.1334
   2163467.35947   1681473.69142  23738362.3304   23738361.2484
     -1638.4634
  -3205211.07449  -2494282.54345  22180334.3144   22180332.1194
       925.6434
   4301792.75449   3343600.61746  21177888.6744   21177885.5534
     -2295.0144
  -1848972.66048  -1431054.82042  24390000.5024   24389999.3304
      2293.0354
  -3142074.20747  -2439843.08244  23606462.5184   23606460.1044
       665.2584
  10037606.13348   7800592.70744  23639178.8774   23639176.1544
     -4184.5664
    130617.26649     98530.87946  21528581.0644   21528578.8224
      -303.5544
 04  9 14 21 28 30.0020000  0  8G10G 3G 8G13G28G19G23G27
  -1251160.88746   -971305.99642  24323176.5804   24323174.9084
       774.6684
   2188185.80547   1700734.82043  23743066.3144   23743065.0884
     -1647.8964
  -3219047.37549  -2505064.07045  22177701.3694   22177699.2364
       922.4204
   4336333.96549   3370515.83246  21184461.5104   21184458.5534
     -2302.7474
  -1883323.20747  -1457821.44942  24383463.6114   24383462.5884
      2290.0364
  -3151946.71147  -2447535.92644  23604583.7294   23604581.2094
       658.1674
  10100435.23448   7849550.39843  23651135.0024   23651131.6784
     -4188.6074
    135213.39549    102112.27346  21529455.6354   21529453.4364
      -306.4094
 04  9 14 21 28 45.0020000  0  8G10G 3G 8G13G28G19G23G27
  -1262654.63347   -980262.16842  24320988.8934   24320987.5574
       766.2504
   2213044.81347   1720105.47343  23747796.5884   23747795.1664
     -1657.2674
  -3232835.95749  -2515808.41045  22175077.2994   22175075.4754
       919.2394
   4370990.38349   3397520.82046  21191056.3854   21191053.8074
     -2310.4284
  -1917629.45747  -1484553.54342  24376935.1664   24376934.5104
      2287.0834
  -3161713.38747  -2455146.28944  23602725.4004   23602722.4044
       651.1124
  10163323.87147   7898554.50043  23663101.5884   23663098.2914
     -4192.5764
    139851.46549    105726.35946  21530338.5804   21530335.8464
      -309.2054
 04  9 14 21 29  0.0020000  0  8G10G 3G 8G13G28G19G23G27
  -1274020.80946   -989118.90242  24318826.0184   24318825.0614
       757.7454
   2238045.36347   1739586.41043  23752553.4864   23752553.2604
     -1666.7034
  -3246575.76249  -2526514.74245  22172462.6744   22172460.6354
       915.9874
   4405762.96949   3424616.32847  21197673.6044   21197670.6664
     -2318.1724
  -1951890.12547  -1511250.14842  24370415.5884   24370414.4634
      2284.0454
  -3171372.89847  -2462673.15644  23600887.2054   23600884.2094
       643.9674
  10226272.98447   7947605.71543  23675080.7054   23675077.0254
     -4196.6084
    144532.69949    109374.07446  21531229.2914   21531226.5454
      -312.0824
 04  9 14 21 29 15.0020000  0  8G10G 3G 8G13G28G19G23G27
  -1285258.45346   -997875.50042  24316687.9164   24316686.8814
       749.1764
   2263188.21147   1759178.25043  23757338.0254   23757337.5724
     -1676.1904
  -3260265.84849  -2537182.33645  22169857.5964   22169855.7834
       912.6724
   4440652.53149   3451802.99247  21204312.7834   21204310.0374
     -2325.9714
  -1986104.15648  -1537910.37942  24363905.1194   24363904.0884
      2280.9354
  -3180924.07447  -2470115.62544  23599069.3694   23599066.7834
       636.7454
  10289283.25448   7996704.57843  23687072.0024   23687067.6154
     -4200.6854
    149257.85949    113056.01646  21532128.4634   21532125.9324
      -315.0114
 04  9 14 21 29 30.0020000  0  8G10G 3G 8G13G28G19G23G27
  -1296367.53946  -1006531.94542  24314573.9864   24314572.7404
       740.6064
   2288473.23447   1778880.84042  23762149.9244   23762149.5184
     -1685.6684
  -3273906.37149  -2547811.30545  22167261.9864   22167259.7294
       909.3684
   4475658.91049   3479080.67246  21210974.4164   21210971.3964
     -2333.7594
  -2020271.58647  -1564534.32443  24357403.0184   24357402.2684
      2277.8294
  -3190366.89147  -2477473.63344  23597272.3854   23597270.4164
       629.5214
  10352354.30548   8045850.82044  23699074.0254   23699070.7994
     -4204.7374
    154026.72348    116772.01246  21533035.6744   21533033.3574
      -317.9244
 04  9 14 21 29 45.0020000  0  8G10G 3G 8G13G28G19G23G27
  -1307348.78546  -1015088.75042  24312484.3464   24312482.8964
       732.0834
   2313899.27047   1798693.32442  23766988.3464   23766987.3114
     -1695.0694
  -3287498.49249  -2558402.56645  22164675.1194   22164673.4434
       906.1414
   4510780.96949   3506448.49647  21217657.9474   21217655.0614
     -2341.4714
  -2054393.27747  -1591122.61342  24350909.6584   24350909.0254
      2274.7794
  -3199702.12547  -2484747.82844  23595496.5804   23595493.0064
       622.3494
  10415484.75048   8095043.32844  23711087.2294   23711084.4284
     -4208.6964
    158838.30948    120521.30146  21533951.1894   21533948.8774
      -320.7724
 04  9 14 21 30  0.0020000  0  8G10G 3G 8G13G28G19G23G27
  -1318201.25446  -1023545.22342  24310418.9794   24310417.5534
       723.4984
   2339467.12547   1818616.34442  23771853.4794   23771852.3114
     -1704.5244
  -3301041.27049  -2568955.37545  22162098.3854   22162096.2054
       902.8524
   4546019.53549   3533907.11347  21224363.4634   21224360.5964
     -2349.2384
  -2088468.27347  -1617674.50842  24344425.5644   24344424.4634
      2271.6664
  -3208928.62547  -2491937.28944  23593740.7914   23593736.9754
       615.1004
  10478675.24248   8144282.62544  23723111.9474   23723109.1464
     -4212.6994
    163693.36748    124304.46546  21534875.0964   21534872.7684
      -323.6714
 04  9 14 21 30 15.0020000  0  8G10G 3G 8G13G28G19G23G27
  -1328924.00447  -1031900.59842  24308378.0494   24308377.1074
       714.8504
   2365177.54747   1838650.43042  23776746.4244   23776746.0884
     -1714.0284
  -3314534.07049  -2579469.23845  22159530.7054   22159528.5294
       899.5204
   4581375.48848   3561457.19146  21231091.2604   21231088.6584
     -2357.0644
  -2122495.46548  -1644189.16443  24337950.5574   24337949.3034
      2268.4794
  -3218045.27347  -2499041.14844  23592005.6044   23592002.8854
       607.7774
  10541926.53547   8193569.28543  23735147.2444   23735145.5454
     -4216.7534
    168592.89548    128122.28146  21535807.5804   21535805.3304
      -326.6354
 04  9 14 21 30 30.0020000  0  8G10G 3G 8G13G28G19G23G27
  -1339517.78946  -1040155.48842  24306362.3144   24306361.3934
       706.2524
   2391029.41447   1858794.74242  23781665.9554   23781665.3854
     -1723.4584
  -3327977.44149  -2589944.58645  22156972.5494   22156970.3894
       896.2254
   4616847.71548   3589097.87946  21237841.6974   21237838.7364
     -2364.8154
  -2156475.54348  -1670667.11743  24331484.5104   24331483.1744
      2265.3394
  -3227052.78547  -2506059.96944  23590290.8304   23590288.9824
       600.5014
  10605237.41047   8242902.35543  23747196.2054   23747193.4124
     -4220.7254
    173535.83248    131973.91846  21536748.2604   21536746.0644
      -329.5294
 04  9 14 21 30 45.0020000  0  8G10G 3G 8G13G28G19G23G27
  -1349982.20746  -1048309.57842  24304370.9474   24304369.9864
       697.6284
   2417022.82447   1879049.33642  23786611.5184   23786612.2954
     -1732.8944
  -3341371.70349  -2600381.66445  22154423.5254   22154421.7364
       892.9514
   4652436.27349   3616829.21146  21244613.7364   21244611.3114
     -2372.5714
  -2190408.31248  -1697108.20343  24325027.4474   24325025.9794
      2262.1854
  -3235950.73047  -2512993.43044  23588598.0644   23588594.5064
       593.1964
  10668607.73448   8292281.78143  23759255.2994   23759251.4004
     -4224.6884
    178522.31348    135859.48846  21537697.0884   21537694.7214
      -332.4324
 04  9 14 21 31  0.0020000  0  8G10G 3G 8G13G28G19G23G27
  -1360317.47346  -1056363.02742  24302404.5724   24302403.4864
       689.0184
   2443157.47347   1899414.00443  23791585.0574   23791584.2834
     -1742.3104
  -3354716.87549  -2610780.49245  22151884.3614   22151882.2014
       889.6784
   4688140.87549   3644650.96146  21251408.1434   21251405.5454
     -2380.3074
  -2224293.86748  -1723512.48443  24318579.1044   24318578.1194
      2259.0374
  -3244739.24647  -2519841.59444  23586926.3384   23586922.1744
       585.9014
  10732037.07448   8341707.22343  23771325.2294   23771321.2444
     -4228.6234
    183551.99248    139778.71546  21538653.8854   21538652.1114
      -335.3124
 04  9 14 21 31 15.0020000  0  8G10G 3G 8G13G28G19G23G27
  -1370523.38346  -1064315.68742  24300462.4944   24300461.4824
       680.3944
   2469433.34447   1919888.69943  23796585.6824   23796584.5684
     -1751.7254
  -3368012.71149  -2621140.87545  22149354.1194   22149352.1314
       886.3894
   4723961.39549   3672563.03946  21258224.6354   21258221.9794
     -2388.0354
  -2258132.03548  -1749879.85943  24312139.6194   24312138.4284
      2255.8784
  -3253417.91447  -2526604.18444  23585274.6044   23585271.9984
       578.5784
  10795525.18448   8391178.45743  23783406.6434   23783402.4944
     -4232.5414
    188625.00448    143731.71146  21539619.4634   21539617.2794
      -338.2014
 04  9 14 21 31 30.0020000  0  8G10G 3G 8G13G28G19G23G27
  -1380599.13346  -1072166.92642  24298545.0024   24298543.7914
       671.7174
   2495850.80947   1940473.74643  23801612.5574   23801611.7404
     -1761.1644
  -3381258.72349  -2631462.43745  22146833.5724   22146831.4324
       883.0674
   4759898.48449   3700565.95746  21265063.3694   21265060.2994
     -2395.8064
  -2291922.01248  -1776209.68743  24305709.9554   24305708.7054
      2252.6654
  -3261985.93047  -2533280.53544  23583643.7294   23583641.7874
       571.2014
  10859072.52348   8440695.82043  23795499.1434   23795496.3424
     -4236.4894
    193741.92249    147718.92246  21540593.2524   21540590.9434
      -341.1284
 04  9 14 21 31 45.0020000  0  8G10G 3G 8G13G28G19G23G27
  -1390545.22346  -1079917.11742  24296652.2364   24296650.8694
       663.0734
   2522409.19147   1961168.58243  23806666.5804   23806665.8694
     -1770.5594
  -3394455.55149  -2641745.68045  22144322.1824   22144320.2794
       879.7894
   4795951.39149   3728659.11746  21271923.9714   21271921.3184
     -2403.5274
  -2325664.21548  -1802502.28942  24299288.9794   24299287.2954
      2249.4804
  -3270443.77347  -2539871.03144  23582034.5334   23582030.7874
       563.8564
  10922678.21147   8490258.61743  23807602.3304   23807600.5684
     -4240.3794
    198901.92648    151739.70346  21541575.1354   21541572.9674
      -344.0004
 04  9 14 21 32  0.0020000  0  8G10G 3G 8G13G28G19G23G27
  -1400359.91046  -1087564.92642  24294785.0724   24294784.1314
       654.3134
   2549109.93447   1981974.35243  23811747.8694   23811746.5884
     -1780.0494
  -3407601.76249  -2651989.46545  22141820.4554   22141818.4124
       876.4144
   4832121.55949   3756843.64546  21278806.8934   21278804.2564
     -2411.3454
  -2359356.96548  -1828756.35242  24292877.3144   24292876.1934
      2246.1834
  -3278789.59847  -2546374.26644  23580446.1894   23580443.2564
       556.3884
  10986343.55547   8539867.89543  23819717.4864   23819715.6584
     -4244.3564
    204106.73849    155795.40246  21542565.7444   21542562.9754
      -346.9874
 04  9 14 21 32 15.0020000  0  8G10G 3G 8G13G28G19G23G27
  -1410044.65246  -1095111.47742  24292942.2994   24292940.7134
       645.6494
   2575951.38347   2002889.76242  23816855.1194   23816855.4434
     -1789.4304
  -3420698.86749  -2662194.99645  22139327.9864   22139326.3894
       873.1404
   4868407.22349   3785118.18046  21285712.1354   21285709.3184
     -2419.0444
  -2393001.80948  -1854973.07443  24286474.6584   24286473.7054
      2242.9904
  -3287024.77046  -2552791.24644  23578879.0884   23578876.5494
       549.0114
  11050066.71548   8589522.23443  23831844.6664   23831841.1504
     -4248.2114
    209354.68049    159884.70346  21543564.3074   21543561.7914
      -349.8634
 04  9 14 21 32 30.0020000  0  8G10G 3G 8G13G28G19G23G27
  -1419599.09446  -1102556.48042  24291123.6194   24291122.3854
       636.9634
   2602933.55147   2023914.82842  23821989.9084   23821989.6664
     -1798.8114
  -3433746.89149  -2672362.27345  22136845.2914   22136843.3304
       869.8684
   4904808.61349   3813482.88346  21292639.0024   21292636.0414
     -2426.7594
  -2426598.42648  -1881152.23043  24280081.6664   24280080.5104
      2239.7744
  -3295148.78547  -2559121.61744  23577333.0724   23577329.8464
       541.6014
  11113847.49648   8639221.52743  23843981.5644   23843977.8184
     -4252.0524
    214645.80149    164007.65646  21544571.0724   21544568.8614
      -352.7414
 04  9 14 21 32 45.0020000  0  8G10G 3G 8G13G28G19G23G27
  -1429022.04746  -1109899.06242  24289330.5254   24289329.1704
       628.1974
   2630057.45747   2045050.34443  23827151.1744   23827151.3464
     -1808.2604
  -3446744.44949  -2682490.24245  22134371.8224   22134369.8774
       866.5044
   4941326.87949   3841938.66047  21299587.8384   21299585.2134
     -2434.5514
  -2460145.53948  -1907292.78942  24273697.6744   24273696.6744
      2236.4744
  -3303160.30147  -2565364.34444  23575808.4474   23575805.2484
       534.1014
  11177686.94547   8688966.53543  23856129.4324   23856125.3854
     -4255.9634
    219981.37149    168165.24246  21545586.5644   21545584.3114
      -355.7054
 04  9 14 21 33  0.0020000  0  8G10G 3G 8G13G28G19G23G27
  -1438313.61346  -1117139.23442  24287561.8464   24287560.8734
       619.4384
   2657322.82047   2066296.07043  23832339.6194   23832339.1004
     -1817.6914
  -3459691.85249  -2692579.11746  22131908.1114   22131906.1114
       863.1604
   4977961.54349   3870485.13746  21306559.4004   21306556.7134
     -2442.3114
  -2493643.15248  -1933394.80942  24267323.1894   24267322.0884
      2233.1744
  -3311059.38747  -2571519.46144  23574305.0884   23574303.2134
       526.6064
  11241584.64147   8738756.90243  23868288.6974   23868285.1314
     -4259.8464
    225360.98849    172357.14846  21546610.1274   21546608.1234
      -358.6414
 04  9 14 21 33 15.0020000  0  8G10G 3G 8G13G28G19G23G27
  -1447473.64146  -1124276.90642  24285819.3934   24285818.2834
       610.6684
   2684729.39547   2087651.85242  23837554.7444   23837554.0614
     -1827.1054
  -3472589.18049  -2702628.97745  22129453.6434   22129451.6894
       859.8224
   5014712.50849   3899122.24646  21313552.9714   21313550.1354
     -2450.0644
  -2527091.20348  -1959458.19142  24260958.5884   24260957.1274
      2229.8704
  -3318845.83248  -2577586.79344  23572823.7684   23572820.9754
       519.0964
  11305540.30147   8788592.43043  23880458.8774   23880456.1194
     -4263.7114
    230784.64149    176583.36746  21547642.2524   21547640.0064
      -361.5774
 04  9 14 21 33 30.0020000  0  8G10G 3G 8G13G28G19G23G27
  -1456501.97346  -1131311.96142  24284100.9244   24284099.9594
       601.8894
   2712277.12547   2109117.60542  23842797.4634   23842796.5064
     -1836.5154
  -3485436.38749  -2712639.77745  22127008.9474   22127007.1234
       856.4804
   5051579.66849   3927849.89146  21320568.3614   21320565.7604
     -2457.8114
  -2560489.51248  -1985482.80143  24254603.3074   24254601.5684
      2226.5544
  -3326519.52047  -2583566.27344  23571363.5574   23571360.0644
       511.5794
  11369553.57847   8838472.80943  23892641.1824   23892638.0254
     -4267.5524
    236252.37549    180843.93446  21548682.6504   21548680.6974
      -364.5164
 04  9 14 21 33 45.0020000  0  8G10G 3G 8G13G28G19G23G27
  -1465398.85546  -1138244.61342  24282407.9554   24282407.1824
       593.1264
   2739965.71147   2130693.11342  23848066.4164   23848065.6114
     -1845.9064
  -3498233.85249  -2722611.82046  22124573.9084   22124571.4904
       853.1644
   5088562.60949   3956667.75046  21327606.1584   21327603.5374
     -2465.5294
  -2593838.19148  -2011468.76642  24248256.9554   24248255.6114
      2223.2454
  -3334080.38347  -2589457.84044  23569924.8614   23569921.5144
       504.0584
  11433623.90648   8888397.69943  23904833.3384   23904830.3854
     -4271.3554
    241763.75849    185138.52346  21549731.7054   21549729.2484
      -367.4264
 04  9 14 21 34  0.0020000  0  8G10G 3G 8G13G28G19G23G27
  -1474163.70347  -1145074.35242  24280740.3614   24280739.2564
       584.3234
   2767795.26247   2152378.48042  23853361.5804   23853361.5414
     -1855.3034
  -3510981.31649  -2732544.91045  22122148.0184   22122146.0804
       849.8314
   5125661.62149   3985576.05546  21334665.8304   21334663.2364
     -2473.2674
  -2627136.80148  -2037415.70342  24241920.0574   24241918.3264
      2219.9074
  -3341527.82447  -2595261.01644  23568507.5334   23568505.2014
       496.4964
  11497751.48048   8938367.18843  23917036.2754   23917032.7914
     -4275.1724
    247319.12549    189467.37546  21550788.7444   21550786.6004
      -370.3584
 04  9 14 21 34 15.0020000  0  8G10G 3G 8G13G28G19G23G27
  -1482798.32846  -1151802.64142  24279096.9944   24279096.1434
       575.6424
   2795763.64547   2174172.03142  23858684.0884   23858683.7254
     -1864.5594
  -3523680.68749  -2742440.52045  22119731.1584   22119729.4164
       846.6254
   5162874.62149   4014573.18446  21341747.2294   21341744.5374
     -2480.8674
  -2660387.09848  -2063324.99643  24235593.2834   24235591.8894
      2216.6864
  -3348863.73847  -2600977.29344  23567111.4554   23567108.6074
       489.0614
  11561934.12147   8988379.58243  23929249.7684   23929247.0414
     -4278.8434
    252916.59849    193829.03946  21551853.8774   21551851.3504
      -373.1654
 04  9 14 21 34 30.0020000  0  8G10G 3G 8G13G28G19G23G27
  -1491301.64147  -1158428.59042  24277479.4714   24277478.3424
       566.8884
   2823871.77747   2196074.46143  23864032.8544   23864033.1824
     -1873.8764
  -3536330.91049  -2752297.82446  22117323.9004   22117321.6194
       843.3484
   5200202.54749   4043659.86347  21348850.5024   21348847.6864
     -2488.5284
  -2693587.95348  -2089195.76642  24229274.8694   24229273.5574
      2213.3904
  -3356086.79747  -2606605.62144  23565737.0254   23565733.0764
       481.5374
  11626172.67247   9038435.54342  23941473.6434   23941470.6234
     -4282.5704
    258557.14149    198224.26246  21552927.0804   21552925.0924
      -376.0364
 04  9 14 21 34 45.0020000  0  8G10G 3G 8G13G28G19G23G27
  -1499674.12546  -1164952.60542  24275885.1354   24275885.0884
       558.1664
   2852118.75047   2218085.07843  23869408.4004   23869408.2644
     -1883.1324
  -3548932.70749  -2762117.39845  22114926.2684   22114924.0574
       840.1204
   5237644.55549   4072835.44146  21355975.6824   21355972.7754
     -2496.1344
  -2726740.02748  -2115028.50443  24222965.9244   24222965.3574
      2210.1384
  -3363197.46147  -2612146.39544  23564384.1744   23564380.7794
       474.0444
  11690466.01248   9088534.20743  23953708.6894   23953705.2174
     -4286.2234
    264239.84849    202652.34846  21554008.4324   21554006.2834
      -378.8474
 04  9 14 21 35  0.0020000  0  8G10G 3G 8G13G28G19G23G27
  -1507913.54347  -1171372.92642  24274317.5024   24274317.1004
       549.2954
   2880506.71947   2240205.58643  23874810.2684   23874810.4394
     -1892.5314
  -3561483.70749  -2771897.39546  22112537.6504   22112535.5964
       836.7334
   5275202.91049   4102101.67646  21363122.7684   21363120.1394
     -2503.8904
  -2759840.93748  -2140821.39143  24216667.4714   24216665.6544
      2206.7274
  -3370193.30547  -2617597.68444  23563052.2364   23563049.5684
       466.3904
  11754816.19148   9138677.16443  23965954.4634   23965951.5214
     -4290.0124
    269967.09049    207115.13346  21555098.7994   21555096.4164
      -381.8164
 04  9 14 21 35 15.0020000  0  8G10G 3G 8G13G28G19G23G27
  -1516020.38747  -1177689.94942  24272775.6354   24272774.2914
       540.4564
   2909034.83647   2262435.27743  23880238.9324   23880239.1234
     -1901.8744
  -3573984.82849  -2781638.52045  22110158.7364   22110156.5884
       833.4084
   5312876.58249   4131457.77746  21370291.5644   21370288.8224
     -2511.5784
  -2792891.30148  -2166574.89542  24210377.9634   24210376.4364
      2203.3584
  -3377074.77348  -2622959.84044  23561743.5724   23561739.2214
       458.7654
  11819222.13748   9188863.57843  23978210.8224   23978207.5414
     -4293.7304
    275738.03549    211611.96546  21556196.2214   21556194.3464
      -384.7304
 04  9 14 21 35 30.0020000  0  8G10G 3G 8G13G28G19G23G27
  -1523996.17247  -1183904.84842  24271257.1744   24271256.1234
       531.7194
   2937701.48847   2284772.90642  23885693.9394   23885694.6114
     -1911.1104
  -3586437.62149  -2791341.99245  22107788.9394   22107787.0104
       830.1864
   5350664.00049   4160902.50446  21377482.4324   21377479.6434
     -2519.1614
  -2825892.34448  -2192289.95743  24204098.0574   24204096.3654
      2200.0704
  -3383843.26647  -2628233.98844  23560455.0804   23560451.2254
       451.2334
  11883682.16448   9239092.09843  23990476.7754   23990474.0764
     -4297.3354
    281551.18449    216141.69946  21557303.1744   21557300.6434
      -387.5434
 04  9 14 21 35 45.0020000  0  8G10G 3G 8G13G28G19G23G27
  -1531840.09446  -1190016.98442  24269764.4324   24269763.6234
       522.9284
   2966507.09847   2307218.84443  23891175.2134   23891175.4674
     -1920.3744
  -3598841.52349  -2801007.36745  22105428.6044   22105426.3734
       826.9274
   5388565.83249   4190436.38346  21384695.0884   21384691.9904
     -2526.7894
  -2858843.35248  -2217966.03542  24197827.6824   24197826.3854
      2196.7344
  -3390497.92247  -2633419.42644  23559188.7604   23559185.9594
       443.6444
  11948196.59448   9289363.03543  24002753.0964   24002750.4634
     -4300.9624
    287407.07449    220704.72346  21558417.2364   21558414.9324
      -390.3934
 04  9 14 21 36  0.0020000  0  8G10G 3G 8G13G28G19G23G27
  -1539552.03946  -1196026.30142  24268296.9634   24268295.9514
       514.1304
   2995451.60547   2329773.01643  23896683.9864   23896683.4124
     -1929.6344
  -3611196.45749  -2810634.57846  22103077.2754   22103075.5844
       823.6624
   5426581.95349   4220059.32046  21391929.1354   21391926.3574
     -2534.4084
  -2891744.12148  -2243602.96143  24191567.0254   24191565.5414
      2193.3854
  -3397038.53548  -2638515.96944  23557944.1584   23557941.2404
       436.0414
  12012765.38347   9339676.32443  24015040.0414   24015037.3424
     -4304.5864
    293305.84849    225301.17246  21559539.6824   21559537.7014
      -393.2524
 04  9 14 21 36 15.0020000  0  8G10G 3G 8G13G28G19G23G27
  -1547132.21946  -1201932.91442  24266854.2754   24266853.5334
       505.3454
   3024534.53547   2352435.02743  23902217.6114   23902217.5414
     -1938.8624
  -3623502.57849  -2820223.75846  22100735.5574   22100733.8184
       820.4084
   5464711.67649   4249770.77346  21399185.1434   21399182.3424
     -2541.9824
  -2924595.00048  -2269201.01643  24185315.7054   24185314.2914
      2190.0594
  -3403465.21147  -2643523.76644  23556720.9864   23556717.3264
       428.4454
  12077387.82047   9390031.40243  24027337.9474   24027334.9284
     -4308.1624
    299247.03149    229930.66446  21560670.3074   21560668.2644
      -396.0794
 04  9 14 21 36 30.0020000  0  8G10G 3G 8G13G28G19G23G27
  -1554579.39846  -1207735.90242  24265437.3934   24265436.2564
       496.4794
   3053756.77347   2375205.59043  23907778.6504   23907778.4864
     -1948.1494
  -3635758.91049  -2829774.13745  22098403.1194   22098401.4124
       817.0894
   5502956.24649   4279571.72346  21406462.8694   21406460.1974
     -2549.6384
  -2957394.68448  -2294759.18043  24179074.0724   24179072.4634
      2186.6464
  -3409776.62947  -2648441.73444  23555520.1044   23555516.7054
       420.7614
  12142064.84448   9440429.01643  24039645.4004   24039642.1234
     -4311.8024
    305231.64549    234593.99246  21561809.0804   21561807.0254
      -398.9744
 04  9 14 21 36 45.0020000  0  8G10G 3G 8G13G28G19G23G27
  -1561893.73446  -1213435.38342  24264045.3934   24264044.3344
       487.6224
   3083118.00047   2398084.47343  23913365.7754   23913366.0104
     -1957.4154
  -3647966.00849  -2839286.15646  22096080.2834   22096078.5884
       813.8074
   5541315.33649   4309461.91446  21413761.9634   21413759.4474
     -2557.2734
  -2990143.25448  -2320277.50843  24172841.9004   24172840.6154
      2183.2384
  -3415972.76247  -2653269.85544  23554340.9394   23554338.8144
       413.0764
  12206795.74648   9490868.64843  24051963.9164   24051959.5844
     -4315.3934
    311259.43049    239290.96546  21562955.9634   21562954.0534
      -401.8524
 04  9 14 21 37  0.0020000  0  8G10G 3G 8G13G28G19G23G27
  -1569076.26646  -1219032.16842  24262678.5644   24262677.6624
       478.8354
   3112616.84847   2421070.57043  23918978.6274   23918979.6194
     -1966.5904
  -3660124.66849  -2848760.43445  22093766.7444   22093764.8964
       810.5774
   5579787.61349   4339440.30146  21421083.3144   21421080.6434
     -2564.8184
  -3022841.71148  -2345756.78943  24166619.9794   24166618.3654
      2179.8974
  -3422054.53147  -2658008.88344  23553183.5184   23553180.3544
       405.4514
  12271579.29348   9541349.30943  24064290.9164   24064287.8934
     -4318.9034
    317329.34449    244020.77046  21564111.2914   21564109.1234
      -404.6614
 04  9 14 21 37 15.0020000  0  8G10G 3G 8G13G28G19G23G27
  -1576126.41046  -1224525.77742  24261337.2214   24261335.6784
       470.0104
   3142253.65647   2444164.17242  23924619.2994   23924618.8114
     -1975.7874
  -3672234.32449  -2858196.52045  22091462.3774   22091460.3264
       807.3104
   5618373.50849   4369507.21146  21428425.9944   21428422.7134
     -2572.3934
  -3055489.42648  -2371196.53543  24160407.1354   24160405.6744
      2176.5144
  -3428021.39147  -2662658.35944  23552048.6664   23552044.5724
       397.7914
  12336415.71947   9591871.13343  24076629.0414   24076626.4514
     -4322.4284
    323441.78149    248783.70746  21565274.5414   21565272.3224
      -407.4964
 04  9 14 21 37 30.0020000  0  8G10G 3G 8G13G28G19G23G27
  -1583043.10246  -1229915.40642  24260021.4244   24260019.7644
       461.1134
   3172029.32047   2467365.97342  23930284.9164   23930285.0804
     -1985.0444
  -3684294.39849  -2867593.98046  22089167.2684   22089165.2834
       804.0054
   5657073.69149   4399663.18846  21435790.3074   21435787.5924
     -2580.0124
  -3088085.37548  -2396595.93743  24154204.1974   24154203.0844
      2173.0634
  -3433872.05147  -2667217.30144  23550934.5964   23550932.2364
       390.0444
  12401305.67647   9642434.65243  24088977.6274   24088974.9944
     -4325.9974
    329597.50049    253580.36746  21566445.9714   21566443.3614
      -410.3814
 04  9 14 21 37 45.0020000  0  8G10G 3G 8G13G28G19G23G27
  -1589826.84046  -1235201.43742  24258730.3464   24258728.6744
       452.2494
   3201943.02047   2490675.33642  23935977.5884   23935977.2794
     -1994.2474
  -3696305.47349  -2876953.25045  22086881.5494   22086879.8544
       800.7384
   5695887.40249   4429907.61746  21443176.2214   21443173.4824
     -2587.5814
  -3120630.13348  -2421955.46943  24148011.0804   24148009.5804
      2169.6514
  -3439607.10247  -2671686.17244  23549843.2294   23549840.8694
       382.3374
  12466248.20347   9693039.15643  24101335.7214   24101333.1074
     -4329.5024
    335795.97749    258410.34446  21567625.0724   21567623.0144
      -413.2324
 04  9 14 21 38  0.0020000  0  8G10G 3G 8G13G28G19G23G27
  -1596476.26646  -1240382.80142  24257464.6744   24257463.3264
       443.2954
   3231995.77347   2514093.07042  23941696.6044   23941696.7874
     -2003.5174
  -3708266.27049  -2886273.34446  22084605.7294   22084604.1234
       797.3864
   5734815.90249   4460241.50046  21450584.1744   21450581.4944
     -2595.2334
  -3153122.29748  -2447274.00843  24141828.1114   24141826.6044
      2166.1444
  -3445225.11747  -2676063.80944  23548774.2134   23548770.5184
       374.5344
  12531244.35947   9743685.43043  24113703.9164   24113701.0334
     -4333.0774
    342038.34849    263274.52746  21568813.0644   21568811.2914
      -416.1584
 04  9 14 21 38 15.0020000  0  8G10G 3G 8G13G28G19G23G27
  -1602991.45746  -1245459.57042  24256224.7754   24256223.3934
       434.3464
   3262187.37147   2537618.96542  23947441.1894   23947441.5724
     -2012.7734
  -3720176.88349  -2895554.33646  22082339.3384   22082337.6824
       794.0414
   5773859.07449   4490664.73446  21458013.9554   21458010.9984
     -2602.8784
  -3185561.80148  -2472551.51243  24135655.2294   24135653.3894
      2162.6344
  -3450725.90647  -2680350.13344  23547727.4164   23547724.3504
       366.7194
  12596293.69148   9794373.19543  24126082.8224   24126078.9714
     -4336.6224
    348324.53549    268172.85246  21570009.4554   21570007.3814
      -419.0794
 04  9 14 21 38 30.0020000  0  8G10G 3G 8G13G28G19G23G27
  -1609372.29346  -1250431.63342  24255010.7914   24255009.2954
       425.3894
   3292517.63747   2561252.93442  23953212.8694   23953213.9434
     -2022.0184
  -3732037.29749  -2904796.21945  22080082.3144   22080080.6584
       790.6944
   5813016.53149   4521177.02746  21465465.3224   21465462.6434
     -2610.4974
  -3217948.48448  -2497787.84843  24129492.3464   24129490.7874
      2159.1124
  -3456109.36347  -2684545.00444  23546703.2054   23546700.8184
       358.8974
  12661396.03547   9845102.25843  24138471.4164   24138468.1894
     -4340.1564
    354654.46149    273105.26246  21571214.0884   21571211.7014
      -421.9954
 04  9 14 21 38 45.0020000  0  8G10G 3G 8G13G28G19G23G27
  -1615618.41046  -1255298.73842  24253822.2684   24253820.6934
       416.4084
   3322986.78147   2584995.11742  23959011.0964   23959011.8034
     -2031.2764
  -3743847.25449  -2913998.77046  22077834.7054   22077832.7754
       787.3304
   5852288.58249   4551778.61346  21472938.7214   21472936.0024
     -2618.1374
  -3250282.05148  -2522982.81643  24123339.2754   24123337.6314
      2155.5714
  -3461374.87547  -2688647.98044  23545701.1354   23545697.3934
       351.0344
  12726551.35547   9895872.58643  24150870.0644   24150866.7404
     -4343.6884
    361028.45349    278072.00846  21572427.0024   21572424.7834
      -424.9334
 04  9 14 21 39  0.0020000  0  8G10G 3G 8G13G28G19G23G27
  -1621729.47746  -1260060.60942  24252658.9634   24252658.0844
       407.4044
   3353594.75847   2608845.45742  23964835.9794   23964835.8694
     -2040.5324
  -3755606.67649  -2923161.95346  22075597.3464   22075595.0534
       783.9614
   5891675.23449   4582469.48846  21480433.5964   21480430.7404
     -2625.7774
  -3282562.05148  -2548136.03943  24117196.5724   24117194.9244
      2152.0004
  -3466522.06247  -2692658.78144  23544721.9634   23544718.3034
       343.1464
  12791759.66447   9946684.19543  24163278.2684   24163275.7214
     -4347.2214
    367446.63349    283073.18046  21573648.1434   21573645.9514
      -427.8794
 04  9 14 21 39 15.0020000  0  8G10G 3G 8G13G28G19G23G27
  -1627705.64546  -1264717.36342  24251522.6114   24251520.6894
       398.4114
   3384341.25047   2632803.74642  23970686.3774   23970686.3224
     -2049.7664
  -3767315.68049  -2932285.84846  22073368.8934   22073367.2294
       780.6004
   5931176.11749   4613249.38346  21487950.3934   21487947.6274
     -2633.3924
  -3314788.50448  -2573247.52743  24111063.9714   24111062.6314
      2148.4304
  -3471551.02747  -2696577.42244  23543764.4634   23543761.8144
       335.2644
  12857020.50847   9997536.72743  24175697.0884   24175694.3264
     -4350.7234
    373908.75849    288108.60246  21574877.6044   21574875.5374
      -430.8084
 04  9 14 21 39 30.0020000  0  8G10G 3G 8G13G28G19G23G27
  -1633547.50846  -1269269.44542  24250410.0644   24250408.8544
       389.4584
   3415225.17247   2656869.15242  23976563.2994   23976562.8224
     -2058.9284
  -3778975.22749  -2941371.20346  22071150.5184   22071148.3264
       777.3034
   5970790.36749   4644117.61746  21495488.7294   21495486.1044
     -2640.9504
  -3346962.28148  -2598317.97743  24104941.8934   24104940.3304
      2144.9184
  -3476462.35547  -2700404.41044  23542830.3224   23542826.8694
       327.4224
  12922332.79347  10048429.33243  24188126.1434   24188123.4864
     -4354.1524
    380414.01649    293177.63746  21576115.6664   21576113.4204
      -433.6844
 04  9 14 21 39 45.0020000  0  8G10G 3G 8G13G28G19G23G27
  -1639254.32045  -1273716.32042  24249324.2214   24249322.8654
       380.4544
   3446247.25047   2681042.18042  23982466.9244   23982466.7214
     -2068.1394
  -3790584.43449  -2950417.33246  22068941.0494   22068938.9514
       773.9474
   6010518.44149   4675074.53946  21503048.7684   21503046.1704
     -2648.5384
  -3379082.30548  -2623346.52743  24098829.1194   24098828.1114
      2141.3354
  -3481255.05147  -2704138.96544  23541917.5964   23541914.2754
       319.5134
  12987697.02748  10099362.43043  24200564.9324   24200562.1044
     -4357.6164
    386963.19549    298280.88746  21577361.8544   21577359.8694
      -436.6124
 04  9 14 21 40  0.0030000  0  8G10G 3G 8G13G28G19G23G27
  -1644825.61546  -1278057.61342  24248264.0934   24248262.6874
       371.4204
   3477410.03946   2705324.85542  23988396.5154   23988397.6364
     -2077.5194
  -3802143.20749  -2959424.16445  22066741.3514   22066739.2224
       770.5854
   6050363.82849   4706122.88746  21510631.0544   21510628.1754
     -2656.3594
  -3411150.08248  -2648334.36743  24092727.0854   24092725.8744
      2137.8524
  -3485928.60947  -2707780.68044  23541028.7104   23541025.2804
       311.5714
  13053118.00848  10150339.77743  24213014.2104   24213010.5154
     -4361.3994
    393557.37149    303419.21146  21578617.0934   21578614.7534
      -439.6124
 04  9 14 21 40 15.0030000  0  8G10G 3G 8G13G28G19G23G27
  -1650261.07846  -1282293.00042  24247228.9764   24247228.4994
       362.3644
   3508708.69546   2729713.38742  23994352.7104   23994353.0264
     -2086.5774
  -3813650.84049  -2968391.13746  22064551.4604   22064549.6904
       767.1764
   6090320.74649   4737258.12546  21518234.6714   21518231.8474
     -2663.7954
  -3443161.63348  -2673278.40643  24086635.2654   24086633.6794
      2134.1034
  -3490482.59847  -2711329.24244  23540162.4684   23540159.0694
       303.5994
  13118586.16848  10201353.86743  24225472.0384   24225469.2494
     -4364.5444
    400195.06649    308591.43446  21579880.0154   21579878.2334
      -442.5134
 04  9 14 21 40 30.0030000  0  8G10G 3G 8G13G28G19G23G27
  -1655561.18446  -1286422.94242  24246221.0074   24246220.0424
       353.3404
   3540144.85247   2754209.08642  24000335.1474   24000335.2694
     -2095.7444
  -3825108.28549  -2977319.01646  22062371.0694   22062369.3824
       763.8304
   6130391.18849   4768481.83246  21525859.9994   21525856.9214
     -2671.3634
  -3475119.16448  -2698180.34843  24080554.1084   24080552.5264
      2130.5024
  -3494917.41447  -2714784.92644  23539317.8514   23539313.8274
       295.6544
  13184105.43448  10252407.78143  24237939.6324   24237936.6444
     -4367.9514
    406876.50449    313797.75046  21581151.3124   21581149.5224
      -445.4294
 04  9 14 21 40 45.0030000  0  8G10G 3G 8G13G28G19G23G27
  -1660725.76246  -1290447.28542  24245238.6714   24245237.3824
       344.3054
   3571718.53146   2778811.93842  24006343.0464   24006343.1124
     -2104.9124
  -3836515.34449  -2986207.62146  22060200.7334   22060198.5934
       760.4714
   6170575.17649   4799794.01646  21533506.5774   21533503.6014
     -2678.9334
  -3507022.46948  -2723040.02743  24074483.0934   24074481.0074
      2126.8874
  -3499232.79747  -2718147.54344  23538496.9374   23538493.4794
       287.6924
  13249675.67248  10303501.41443  24250417.0544   24250414.2414
     -4371.3494
    413601.69949    319038.16046  21582431.0624   21582429.0504
      -448.3464
 04  9 14 21 41  0.0030000  0  8G10G 3G 8G13G28G19G23G27
  -1665753.89546  -1294365.31642  24244281.4764   24244280.3124
       335.2094
   3603430.26647   2803522.36342  24012377.5694   24012378.0384
     -2114.1164
  -3847871.32449  -2995056.43446  22058039.5694   22058037.7654
       757.0654
   6210873.39149   4831195.20746  21541175.2494   21541172.3044
     -2686.5484
  -3538870.66048  -2747856.78143  24068422.3124   24068420.9374
      2123.2134
  -3503427.80548  -2721416.38344  23537698.3274   23537695.5894
       279.6674
  13315297.44548  10354635.21543  24262904.4994   24262902.2104
     -4374.7854
    420371.58249    324313.39546  21583719.2494   21583717.2104
      -451.3264
 04  9 14 21 41 15.0030000  0  8G10G 3G 8G13G28G19G23G27
  -1670644.41846  -1298176.10542  24243351.4214   24243349.8194
       326.0354
   3635280.99247   2828341.10942  24018438.9374   24018438.1904
     -2123.3824
  -3859175.03549  -3003864.51646  22055888.7884   22055886.9834
       753.5814
   6251286.70749   4862686.08246  21548865.4444   21548862.9914
     -2694.2214
  -3570662.55148  -2772629.64543  24062372.3664   24062371.6514
      2119.4594
  -3507501.19947  -2724590.41844  23536923.2414   23536919.5504
       271.5604
  13380971.55948  10405809.78143  24275402.0624   24275399.8974
     -4378.2744
    427187.16049    329624.23446  21585016.2884   21585014.2144
      -454.3724
 04  9 14 21 41 30.0030000  0  8G10G 3G 8G13G28G19G23G27
  -1675397.99246  -1301880.19142  24242446.7414   24242445.5034
       316.9054
   3667269.90647   2853267.50042  24024526.1944   24024525.7654
     -2132.5944
  -3870427.16049  -3012632.39846  22053747.6714   22053745.4874
       750.1424
   6291814.39149   4894266.08646  21556577.7574   21556575.0034
     -2701.8464
  -3602398.69148  -2797359.07443  24056333.5384   24056331.9794
      2115.7434
  -3511453.37148  -2727670.03944  23536171.3044   23536168.1674
       263.4784
  13446697.02048  10457024.36743  24287909.6874   24287907.3744
     -4381.6974
    434047.51649    334969.96946  21586321.7024   21586319.9444
      -457.3574
 04  9 14 21 41 45.0030000  0  8G10G 3G 8G13G28G19G23G27
  -1680014.13347  -1305477.18742  24241567.6324   24241566.9254
       307.7434
   3699397.14147   2878301.70342  24030639.3124   24030639.5504
     -2141.8164
  -3881627.59049  -3021360.00046  22051616.1084   22051613.7534
       746.6954
   6332456.64849   4925935.35946  21564311.8124   21564309.0504
     -2709.4844
  -3634078.63348  -2822044.71943  24050304.9994   24050303.4294
      2111.9964
  -3515283.89847  -2730654.85544  23535442.1944   23535440.0224
       255.3684
  13512473.86347  10508278.98043  24300426.4134   24300424.2614
     -4385.1234
    440953.20349    340351.01646  21587636.0774   21587633.9254
      -460.3794
 04  9 14 21 42  0.0030000  0  8G10G 3G 8G13G28G19G23G27
  -1684493.42646  -1308967.54742  24240715.9054   24240714.6834
       298.6204
   3731661.87547   2903443.03142  24036779.5384   24036779.3584
     -2150.9824
  -3892776.79749  -3030047.69146  22049494.4994   22049492.7494
       743.2804
   6373212.70349   4957693.31346  21572067.0694   21572064.5114
     -2717.0704
  -3665702.89848  -2846686.96543  24044286.9294   24044285.7184
      2108.2844
  -3518993.24248  -2733545.22344  23534736.3744   23534733.7024
       247.2904
  13578301.28147  10559572.99643  24312952.8974   24312950.5384
     -4388.4954
    447903.50449    345766.82846  21588958.7414   21588956.5894
      -463.3534
 04  9 14 21 42 15.0030000  0  8G10G 3G 8G13G28G19G23G27
  -1688836.30946  -1312351.60942  24239889.2884   24239888.2764
       289.5264
   3764063.43447   2928690.97342  24042944.9994   24042944.8974
     -2160.1044
  -3903875.26649  -3038695.84046  22047382.3904   22047380.7024
       739.8984
   6414081.81649   4989539.35546  21579844.5074   21579841.8584
     -2724.6084
  -3697271.84048  -2871286.10243  24038279.4374   24038278.2414
      2104.5964
  -3522581.68748  -2736341.41844  23534053.7024   23534050.6084
       239.2304
  13644178.35248  10610905.73843  24325488.8744   24325487.0194
     -4391.8054
    454897.76649    351216.90646  21590289.4294   21590287.3824
      -466.2844
 04  9 14 21 42 30.0030000  0  8G10G 3G 8G13G28G19G23G27
  -1693041.39146  -1315628.28942  24239089.1244   24239087.8744
       280.3394
   3796602.99647   2954046.47342  24049137.6474   24049137.3514
     -2169.3044
  -3914921.79749  -3047303.52046  22045280.6244   22045278.3194
       736.4354
   6455065.27349   5021474.50446  21587643.0694   21587640.7024
     -2732.2304
  -3728783.86748  -2895840.89543  24032283.0854   24032281.1124
      2100.8024
  -3526047.77348  -2739042.23844  23533394.0544   23533391.7414
       231.0724
  13710106.30947  10662278.11343  24338034.9604   24338032.1044
     -4395.1974
    461937.38349    356702.32046  21591629.1944   21591627.0814
      -469.3084
 04  9 14 21 42 45.0030000  0  8G10G 3G 8G13G28G19G23G27
  -1697108.34046  -1318797.34442  24238315.0154   24238313.8314
       271.1304
   3829280.50447   2979509.44142  24055355.7574   24055355.6634
     -2178.5014
  -3925916.27049  -3055870.64146  22043188.3194   22043185.9094
       732.9654
   6496163.22349   5053498.85946  21595463.8274   21595461.4174
     -2739.8634
  -3760238.83648  -2920351.25843  24026297.1944   24026295.8154
      2096.9984
  -3529391.12948  -2741647.43444  23532757.5074   23532755.0854
       222.8904
  13776085.03948  10713690.05143  24350590.1474   24350587.4014
     -4398.5824
    469022.54749    362223.23046  21592977.0774   21592975.3044
      -472.3444
 04  9 14 21 43  0.0030000  0  8G10G 3G 8G13G28G19G23G27
  -1701037.66846  -1321859.14142  24237567.6944   24237565.7144
       261.9554
   3862095.12147   3005079.26242  24061600.9054   24061600.0624
     -2187.6414
  -3936859.21549  -3064397.60546  22041105.7104   22041103.7614
       729.5304
   6537374.90649   5085611.84446  21603306.3274   21603303.9294
     -2747.4464
  -3791637.16048  -2944817.45743  24020322.4764   24020320.6084
      2093.2224
  -3532612.16447  -2744157.32444  23532144.2574   23532141.4094
       214.7364
  13842113.66848  10765140.87142  24363155.1714   24363152.7924
     -4401.9094
    476152.57049    367779.08246  21594334.1794   21594332.2654
      -475.3354
 04  9 14 21 43 15.0030000  0  8G10G 3G 8G13G28G19G23G27
  -1704827.99646  -1324812.64842  24236846.2104   24236844.7614
       252.6894
   3895048.11347   3030756.88342  24067871.4834   24067870.6794
     -2196.8664
  -3947749.45749  -3072883.50046  22039033.4214   22039031.3314
       726.0164
   6578701.46149   5117814.33246  21611170.6874   21611168.2574
     -2755.1044
  -3822977.39548  -2969238.39143  24014358.1164   24014356.2294
      2089.3494
  -3535709.33248  -2746570.68444  23531555.3514   23531552.4444
       206.4784
  13908193.27747  10816631.41443  24375729.9134   24375727.4994
     -4405.3074
    483328.73849    373370.89846  21595700.0774   21595697.9054
      -478.4114
 04  9 14 21 43 30.0030000  0  8G10G 3G 8G13G28G19G23G27
  -1708480.85246  -1327659.02742  24236150.8824   24236149.9834
       243.5244
   3928137.80547   3056541.04342  24074168.0224   24074167.3194
     -2205.9794
  -3958588.35549  -3081329.39146  22036971.1714   22036968.8824
       722.5934
   6620141.21949   5150105.03946  21619056.3434   21619053.3154
     -2762.6514
  -3854260.97748  -2993615.18743  24008405.7264   24008403.9174
      2085.5724
  -3538683.97747  -2748888.56244  23530989.5694   23530986.4764
       198.3104
  13974322.06347  10868160.25442  24388313.5304   24388311.2494
     -4408.5864
    490549.68449    378997.60946  21597073.9444   21597071.8704
      -481.3964
 04  9 14 21 43 45.0030000  0  8G10G 3G 8G13G28G19G23G27
  -1711995.25846  -1330397.53542  24235482.4764   24235480.9174
       234.2944
   3961364.82447   3082432.22742  24080490.7334   24080490.1514
     -2215.1354
  -3969375.20349  -3089734.72346  22034918.0224   22034915.9994
       719.1234
   6661694.68849   5182484.35246  21626963.6084   21626961.0194
     -2770.2314
  -3885487.09048  -3017947.19143  24002463.1244   24002461.4014
      2081.7414
  -3541535.29747  -2751110.36344  23530446.9054   23530443.2294
       190.0884
  14040500.54347  10919727.82442  24400906.8044   24400904.5584
     -4411.8994
    497815.97749    384659.65646  21598456.6164   21598454.6554
      -484.4204
 04  9 14 21 44  0.0030000  0  8G10G 3G 8G13G28G19G23G27
  -1715371.86346  -1333028.64843  24234840.9374   24234838.6554
       225.1074
   3994728.24646   3108429.68442  24086839.2884   24086838.4094
     -2224.2284
  -3980110.53149  -3098099.90646  22032875.5304   22032873.4134
       715.6894
   6703361.20749   5214951.75446  21634892.4914   21634889.7924
     -2777.7684
  -3916656.12948  -3042234.73043  23996532.0154   23996529.8154
      2077.9364
  -3544263.52348  -2753236.24244  23529927.8824   23529924.8544
       181.8824
  14106727.70747  10971333.35242  24413509.4994   24413506.9524
     -4415.1444
    505126.96549    390356.53146  21599847.5854   21599846.0464
      -487.3994
 04  9 14 21 44 15.0030000  0  8G10G 3G 8G13G28G19G23G27
  -1718609.77046  -1335551.69542  24234223.4914   24234222.3194
       215.8604
   4028228.64846   3134533.87142  24093214.6944   24093213.8664
     -2233.3604
  -3990793.72749  -3106424.47346  22030842.3974   22030840.2884
       712.2134
   6745141.34449   5247507.68446  21642842.7804   21642840.3194
     -2785.3424
  -3947767.24248  -3066477.12943  23990611.5154   23990609.8744
      2074.0744
  -3546867.85247  -2755265.58644  23529432.1714   23529428.3584
       173.6224
  14173004.17247  11022977.28942  24426121.8824   24426118.8044
     -4418.4314
    512483.46149    396088.86746  21601247.7724   21601245.6834
      -490.4334
 04  9 14 21 44 30.0030000  0  8G10G 3G 8G13G28G19G23G27
  -1721709.27746  -1337966.88743  24233634.6554   24233632.2534
       206.6344
   4061865.62946   3160744.48842  24099615.3904   24099615.3004
     -2242.4654
  -4001424.87549  -3114708.47346  22028819.4294   22028817.3704
       708.7434
   6787034.81349   5280151.93046  21650815.2574   21650812.6124
     -2792.8984
  -3978820.50848  -3090674.44143  23984702.2414   23984700.4764
      2070.2184
  -3549348.19547  -2757198.30144  23528959.9994   23528956.5624
       165.3564
  14239329.51647  11074659.33242  24438742.6714   24438740.1754
     -4421.6904
    519885.22349    401856.46546  21602656.4834   21602654.4644
      -493.4514
 04  9 14 21 44 45.0030000  0  8G10G 3G 8G13G28G19G23G27
  -1724669.95346  -1340273.90243  24233070.4834   24233069.1014
       197.3784
   4095639.18846   3187061.53542  24106041.8274   24106042.3824
     -2251.5714
  -4012004.13349  -3122952.04346  22026806.2024   22026804.0584
       705.2844
   6829041.53549   5312884.42246  21658808.8274   21658806.0224
     -2800.4484
  -4009815.74248  -3114826.54743  23978804.5304   23978802.5304
      2066.3494
  -3551704.37147  -2759034.27744  23528511.6874   23528507.8824
       157.0784
  14305703.59447  11126379.32442  24451373.9914   24451371.1594
     -4424.9394
    527332.33249    407659.41046  21604073.2334   21604071.1754
      -496.4744
 04  9 14 21 45  0.0030000  0  8G10G 3G 8G13G28G19G23G27
  -1727491.90247  -1342472.82442  24232533.6634   24232532.2454
       188.1304
   4129548.96946   3213484.70742  24112495.3354   24112494.8234
     -2260.6524
  -4022531.30149  -3131155.02346  22024802.9294   22024801.2614
       701.8114
   6871161.40649   5345705.08646  21666824.0154   21666821.3514
     -2807.9914
  -4040752.80548  -3138933.31643  23972917.0694   23972915.1984
      2062.4714
  -3553936.29748  -2760773.43044  23528087.1554   23528083.0344
       148.7954
  14372125.99247  11178136.96942  24464013.4214   24464011.2144
     -4428.1604
    534824.81349    413497.69946  21605499.1404   21605497.2844
      -499.4994
 04  9 14 21 45 15.0030000  0  8G10G 3G 8G13G28G19G23G27
  -1730174.96546  -1344563.51242  24232022.9834   24232021.9294
       178.8714
   4163594.83246   3240013.94542  24118973.8824   24118973.4374
     -2269.7244
  -4033006.28149  -3139317.34446  22022809.6874   22022807.8084
       698.3324
   6913394.27749   5378613.80146  21674860.5154   21674857.8084
     -2815.5254
  -4071631.52748  -3162994.63343  23967040.6714   23967039.2654
      2058.5824
  -3556043.63747  -2762415.50844  23527686.4444   23527682.3584
       140.4894
  14438596.58647  11229932.14843  24476662.4994   24476659.6714
     -4431.3734
    542362.66449    419371.34446  21606933.6164   21606931.4994
      -502.5234
 04  9 14 21 45 30.0030000  0  8G10G 3G 8G13G28G19G23G27
  -1732717.82446  -1346544.95742  24231538.9054   24231537.3514
       169.5244
   4197777.93446   3266650.10542  24125478.5934   24125478.6874
     -2278.8734
  -4043427.89549  -3147438.07446  22020826.5384   22020824.3704
       694.7744
   6955741.25449   5411611.43846  21682918.9604   21682916.3314
     -2823.1324
  -4102450.54748  -3187009.43443  23961175.9214   23961174.2694
      2054.6014
  -3558025.07047  -2763959.47744  23527309.2414   23527304.8544
       132.0964
  14505116.26647  11281765.60543  24489321.0934   24489318.7374
     -4434.6454
    549947.02349    425281.23046  21608376.8974   21608374.8434
      -505.6244
 04  9 14 21 45 45.0030000  0  8G10G 3G 8G13G28G19G23G27
  -1735122.83646  -1348418.98842  24231081.1404   24231080.1794
       160.3344
   4232095.56346   3293391.09442  24132009.1634   24132008.8314
     -2287.8424
  -4053798.57849  -3155519.11346  22018852.9054   22018850.6404
       691.3794
   6998199.82849   5444696.02046  21690998.4134   21690995.6284
     -2830.5724
  -4133212.23448  -3210979.53543  23955322.3904   23955320.9334
      2050.7794
  -3559882.93448  -2765407.14544  23526955.5074   23526951.4604
       123.8584
  14571682.40647  11333635.25842  24501988.4294   24501985.4794
     -4437.7434
    557575.56349    431225.55146  21609828.5544   21609826.3624
      -508.5694
 04  9 14 21 46  0.0030000  0  8G10G 3G 8G13G28G19G23G27
  -1737388.64546  -1350184.55542  24230650.2964   24230648.3544
       151.0544
   4266548.82046   3320237.76242  24138565.4214   24138565.3434
     -2296.8844
  -4064117.32849  -3163559.70346  22016889.4294   22016887.1754
       687.9174
   7040771.05949   5477868.39546  21699099.4834   21699096.8124
     -2838.0824
  -4163915.16048  -3234903.87143  23949479.8514   23949478.4724
      2046.8624
  -3561615.64147  -2766757.30944  23526625.8974   23526621.3354
       115.5144
  14638295.91847  11385541.82042  24514664.3904   24514661.2264
     -4440.9014
    565249.39549    437205.15646  21611288.9294   21611286.6944
      -511.5894
 04  9 14 21 46 15.0030000  0  8G10G 3G 8G13G28G19G23G27
  -1739515.40646  -1351841.77042  24230245.0074   24230243.8624
       141.7844
   4301137.27746   3347189.78142  24145147.8354   24145147.1284
     -2305.8974
  -4074384.08649  -3171559.76646  22014935.4444   22014933.5034
       684.4514
   7083454.64549   5511128.31346  21707221.7334   21707219.2574
     -2845.5724
  -4194559.35548  -3258782.42243  23943648.5774   23943646.8004
      2042.9464
  -3563223.28147  -2768009.99244  23526319.6084   23526315.7374
       107.1764
  14704956.41847  11437485.02742  24527349.2724   24527346.5854
     -4444.0334
    572968.39849    443219.96547  21612757.6794   21612755.5814
      -514.6004
 04  9 14 21 46 30.0030000  0  8G10G 3G 8G13G28G19G23G27
  -1741504.37546  -1353391.60942  24229866.7574   24229865.5624
       132.5984
   4335859.59447   3374246.12942  24151755.2024   24151754.6284
     -2314.8214
  -4084600.02749  -3179520.23046  22012991.5074   22012989.4444
       681.0634
   7126249.10949   5544474.63746  21715365.5464   21715362.9644
     -2852.9644
  -4225145.98848  -3282616.14143  23937827.9134   23937826.1594
      2039.1094
  -3564706.94547  -2769166.08644  23526037.5074   23526033.9334
        98.9114
  14771662.37147  11489463.63742  24540042.2964   24540039.8974
     -4447.0644
    580731.27349    449268.94946  21614235.0544   21614232.6474
      -517.5254
 04  9 14 21 46 45.0030000  0  8G10G 3G 8G13G28G19G23G27
  -1743354.62946  -1354833.35243  24229514.7184   24229513.6474
       123.3504
   4370716.33247   3401407.21142  24158387.6244   24158387.9604
     -2323.7834
  -4094764.50049  -3187440.58246  22011057.4684   22011055.1754
       677.6324
   7169155.25449   5577907.97346  21723530.5544   21723528.0464
     -2860.4104
  -4255674.19148  -3306404.32443  23932018.6244   23932016.7764
      2035.2144
  -3566065.67647  -2770224.81644  23525778.3584   23525775.0814
        90.5824
  14838414.41847  11541478.12142  24552745.3514   24552743.2494
     -4450.1364
    588538.80949    455352.74246  21615720.7184   21615718.4404
      -520.5024
 04  9 14 21 47  0.0030000  0  8G10G 3G 8G13G28G19G23G27
  -1745065.80147  -1356166.72742  24229189.1164   24229188.0304
       114.0784
   4405707.52746   3428673.05942  24165046.4444   24165046.2024
     -2332.7464
  -4104877.29349  -3195320.68046  22009133.1714   22009130.9254
       674.1864
   7212173.05949   5611428.32846  21731716.3124   21731713.7374
     -2867.8544
  -4286143.53948  -3330146.63743  23926220.5154   23926218.6164
      2031.2904
  -3567299.01248  -2771185.86344  23525544.2024   23525540.4374
        82.2224
  14905212.42247  11593528.44143  24565457.1474   24565454.7614
     -4453.2004
    596391.27349    461471.53946  21617215.0224   21617212.5694
      -523.4984
 04  9 14 21 47 15.0030000  0  8G10G 3G 8G13G28G19G23G27
  -1746639.24646  -1357392.78542  24228889.3904   24228888.1164
       104.8964
   4440831.56347   3456042.43042  24171730.5464   24171729.9214
     -2341.6024
  -4114939.86349  -3203161.63746  22007218.0854   22007215.8544
       670.8384
   7255300.98049   5645034.48846  21739923.2494   21739920.9014
     -2875.1954
  -4316555.27348  -3353844.05943  23920433.0074   23920431.3274
      2027.4494
  -3568408.27747  -2772050.21144  23525332.6944   23525329.6444
        73.9514
  14972054.77347  11645613.33243  24578176.6164   24578174.5504
     -4456.1574
    604287.27749    467624.27346  21618717.3514   21618715.0624
      -526.4004
 04  9 14 21 47 30.0030000  0  8G10G 3G 8G13G28G19G23G27
  -1748072.64146  -1358509.72342  24228616.8124   24228615.5974
        95.5604
   4476090.62547   3483517.03342  24178440.5384   24178439.4644
     -2350.6044
  -4124949.71949  -3210961.52046  22005313.2654   22005310.9724
       667.3244
   7298541.23049   5678728.17246  21748151.5464   21748148.9014
     -2882.6834
  -4346906.94148  -3377494.68443  23914657.8194   23914655.7724
      2023.4454
  -3569390.86347  -2772815.85544  23525146.3744   23525142.9644
        65.5064
  15038943.44947  11697734.28943  24590905.4994   24590903.3154
     -4459.2454
    612229.09049    473812.69546  21620228.8904   21620226.7694
      -529.4544
 04  9 14 21 47 45.0030000  0  8G10G 3G 8G13G28G19G23G27
  -1749367.02047  -1359518.32043  24228371.1244   24228369.3944
        86.2924
   4511483.39147   3511095.75842  24185175.0544   24185175.3044
     -2359.5184
  -4134907.87549  -3218721.11746  22003418.1404   22003416.4054
       663.8774
   7341892.55949   5712508.40646  21756401.1944   21756398.7534
     -2890.0894
  -4377199.57447  -3401099.30143  23908892.8194   23908891.3474
      2019.5094
  -3570247.73047  -2773483.54744  23524982.6874   23524979.7884
        57.1244
  15105877.28947  11749890.46542  24603642.1874   24603640.0974
     -4462.2564
    620215.72349    480036.03946  21621748.7264   21621746.4174
      -532.4424
 04  9 14 21 48  0.0030000  0  8G10G 3G 8G13G28G19G23G27
  -1750523.06646  -1360419.14142  24228150.7884   24228149.2844
        77.0704
   4547008.88347   3538777.94542  24191935.7024   24191935.1084
     -2368.3664
  -4144815.14849  -3226441.05946  22001533.0934   22001531.0504
       660.4854
   7385354.21549   5746374.61746  21764671.4994   21764669.1754
     -2897.4444
  -4407433.75447  -3424658.36743  23903139.5224   23903137.6554
      2015.6124
  -3570979.51247  -2774053.75844  23524843.7884   23524840.3584
        48.7854
  15172855.28148  11802081.04342  24616388.3904   24616385.2614
     -4465.1994
    628246.31649    486293.64146  21623276.9684   21623274.4834
      -535.3734
 04  9 14 21 48 15.0030000  0  8G10G 3G 8G13G28G19G23G27
  -1751540.58247  -1361212.00042  24227957.1714   24227955.6324
        67.8344
   4582667.10946   3566563.57442  24198720.7884   24198720.1594
     -2377.2154
  -4154671.46949  -3234121.30146  21999657.4914   21999655.2654
       657.0884
   7428926.10249   5780326.71546  21772963.1014   21772960.8124
     -2904.7924
  -4437609.18448  -3448171.66043  23897397.0074   23897395.4644
      2011.6954
  -3571585.80147  -2774526.18444  23524728.2334   23524724.6904
        40.4194
  15239877.16447  11854305.84042  24629142.4684   24629139.0894
     -4468.1264
    636321.04349    492585.63346  21624813.5074   21624811.1014
      -538.3154
 04  9 14 21 48 30.0030000  0  8G10G 3G 8G13G28G19G23G27
  -1752418.74246  -1361896.27042  24227790.2414   24227788.4564
        58.5444
   4618458.50047   3594452.95742  24205532.3194   24205531.7924
     -2386.0934
  -4164476.10549  -3241761.27346  21997791.5154   21997789.6244
       653.6424
   7472608.60949   5814365.01646  21781275.6474   21781273.0424
     -2912.1674
  -4467725.13347  -3471638.60243  23891666.7724   23891664.7884
      2007.7304
  -3572065.88747  -2774900.25444  23524637.0774   23524633.8584
        32.0064
  15306943.39548  11906565.16843  24641904.2334   24641901.6164
     -4471.0824
    644440.60549    498912.55546  21626358.6634   21626355.9254
      -541.3044
 04  9 14 21 48 45.0030000  0  8G10G 3G 8G13G28G19G23G27
  -1753156.29746  -1362470.98442  24227649.9914   24227647.9484
        49.1704
   4654384.11347   3622446.93442  24212368.4214   24212368.2494
     -2395.0414
  -4174227.63749  -3249359.86346  21995935.9764   21995934.1204
       650.1024
   7516402.98449   5848490.48846  21789609.2414   21789607.0384
     -2919.6254
  -4497780.22348  -3495058.12943  23885947.2724   23885944.9174
      2003.6734
  -3572418.38348  -2775174.92644  23524569.6794   23524566.7494
        23.5004
  15374054.87147  11958859.75443  24654675.7884   24654673.2144
     -4474.0984
    652606.16449    505275.32846  21627912.1714   21627910.2224
      -544.3714
 04  9 14 21 49  0.0030000  0  8G10G 3G 8G13G28G19G23G27
  -1753754.79346  -1362937.35242  24227535.9444   24227534.1164
        39.9004
   4690442.06647   3650544.03142  24219230.4214   24219229.3154
     -2403.8644
  -4183927.93749  -3256918.53146  21994090.0854   21994087.9374
       646.6874
   7560307.28949   5882701.61346  21797964.2334   21797961.7104
     -2926.9544
  -4527776.03548  -3518431.46943  23880239.1014   23880237.2844
      1999.7214
  -3572644.69147  -2775351.26244  23524526.6084   23524523.8084
        15.0874
  15441209.75447  12011188.16042  24667454.3744   24667452.1244
     -4476.9924
    660816.02749    511672.61746  21629474.5624   21629472.4954
      -547.3244
 04  9 14 21 49 15.0030000  0  8G10G 3G 8G13G28G19G23G27
  -1754213.53147  -1363294.80942  24227448.1874   24227446.9994
        30.5834
   4726632.95346   3678744.71542  24226116.7724   24226116.8824
     -2412.7264
  -4193576.18749  -3264436.64146  21992253.9134   21992251.9874
       643.2174
   7604322.23849   5916998.96546  21806340.1084   21806337.3744
     -2934.3304
  -4557711.59048  -3541757.84843  23874542.3904   23874540.9404
      1995.7044
  -3572743.80147  -2775428.47744  23524507.9294   23524504.9444
         6.6074
  15508408.62547  12063550.82042  24680241.9374   24680239.8864
     -4479.9254
    669071.15249    518105.18046  21631045.6474   21631043.4644
      -550.3424
 04  9 14 21 49 30.0030000  0  8G10G 3G 8G13G28G19G23G27
  -1754532.28947  -1363543.19143  24227387.5774   24227386.1944
        21.2514
   4762956.75447   3707048.95342  24233029.3744   24233028.9014
     -2421.5874
  -4203172.33649  -3271914.15246  21990427.8824   21990425.9914
       639.7434
   7648447.94149   5951382.60546  21814736.7334   21814734.4404
     -2941.7144
  -4587586.55948  -3565037.00843  23868857.6554   23868855.6444
      1991.6654
  -3572715.49647  -2775406.41044  23524512.9764   23524510.6324
        -1.8874
  15575651.28547  12115947.64142  24693037.9444   24693035.3044
     -4482.8444
    677371.56649    524573.03146  21632625.0464   21632623.1474
      -553.3614
 04  9 14 21 49 45.0030000  0  8G10G 3G 8G13G28G19G23G27
  -1754710.49646  -1363682.03942  24227353.8434   24227352.3544
        11.8804
   4799413.62147   3735456.87542  24239966.3044   24239966.1904
     -2430.4584
  -4212715.92249  -3279350.70746  21988612.0544   21988609.6634
       636.2394
   7692684.49649   5985852.63346  21823154.5384   21823152.0504
     -2949.1044
  -4617400.47348  -3588268.59043  23863184.0304   23863182.1324
      1987.5944
  -3572559.25848  -2775284.66044  23524543.1014   23524540.7184
       -10.4164
  15642938.05947  12168378.84042  24705842.1714   24705839.4094
     -4485.7854
    685717.60249    531076.43446  21634213.2884   21634211.1284
      -556.4024
 04  9 14 21 50  0.0030000  0  8G10G 3G 8G13G28G19G23G27
  -1754748.58246  -1363711.71942  24227346.3744   24227344.9954
         2.5394
   4836002.96147   3763968.03542  24246929.4214   24246929.0814
     -2439.2894
  -4222207.38749  -3286746.65646  21986805.7494   21986803.7334
       632.7644
   7737031.44949   6020408.68046  21831593.7574   21831590.9484
     -2956.4644
  -4647153.64148  -3611452.85243  23857522.6874   23857520.4174
      1983.5454
  -3572275.41447  -2775063.47744  23524597.1554   23524593.9294
       -18.9234
  15710268.06347  12220843.73042  24718654.8194   24718652.2184
     -4488.6674
    694108.95749    537615.15246  21635810.1944   21635808.2884
      -559.4244
 04  9 14 21 50 15.0030000  0  8G10G 3G 8G13G28G19G23G27
  -1754645.33647  -1363631.27343  24227366.4134   24227365.1904
        -6.8834
   4872725.64147   3792583.11742  24253917.3354   24253917.2924
     -2448.1794
  -4231645.23449  -3294100.82046  21985009.9444   21985007.7494
       629.1904
   7781489.63749   6055051.41046  21840054.0934   21840051.0544
     -2963.8794
  -4676844.84448  -3634588.82443  23851871.9684   23851870.4404
      1979.4144
  -3571862.50447  -2774741.72344  23524675.4524   23524672.0224
       -27.5274
  15777642.33247  12273343.10243  24731475.6324   24731473.3274
     -4491.6184
    702546.74249    544190.04346  21637415.8194   21637413.7844
      -562.5194
 04  9 14 21 50 30.0030000  0  8G10G 3G 8G13G28G19G23G27
  -1754401.33247  -1363441.13342  24227412.6714   24227411.6634
       -16.2674
   4909580.92247   3821301.49642  24260930.5464   24260930.4994
     -2457.0194
  -4241030.39149  -3301413.92246  21983223.9684   21983221.4684
       625.6774
   7826058.42649   6089780.31346  21848535.0464   21848532.6364
     -2971.2534
  -4706474.55548  -3657676.89143  23846234.1084   23846231.6044
      1975.3144
  -3571321.03147  -2774319.80544  23524778.7334   23524775.5034
       -36.0984
  15845059.87947  12325876.17242  24744304.5224   24744303.0264
     -4494.5034
    711030.28949    550800.59846  21639030.3194   21639028.1944
      -565.5704
 04  9 14 21 50 45.0030000  0  8G10G 3G 8G13G28G19G23G27
  -1754016.44546  -1363141.21542  24227485.7654   24227484.7724
       -25.6594
   4946568.63347   3850123.08242  24267969.4374   24267969.3904
     -2465.8474
  -4250362.80149  -3308685.93046  21981448.0624   21981445.8944
       622.1614
   7870737.85949   6124595.43846  21857037.1944   21857034.6554
     -2978.6294
  -4736042.60248  -3680716.90643  23840607.3274   23840604.9444
      1971.2034
  -3570650.80148  -2773797.53944  23524906.0774   23524903.7724
       -44.6824
  15912520.64847  12378442.91842  24757142.2574   24757139.9874
     -4497.3854
    719559.74649    557446.92646  21640653.2414   21640650.8944
      -568.6304
 04  9 14 21 51  0.0030000  0  8G10G 3G 8G13G28G19G23G27
  -1753489.68747  -1362730.74642  24227586.5774   24227584.4834
       -35.1174
   4983689.50847   3879048.42642  24275033.5624   24275032.9094
     -2474.7254
  -4259641.48849  -3315916.06646  21979682.1874   21979680.1594
       618.5794
   7915528.47749   6159497.20346  21865560.5544   21865558.0504
     -2986.0414
  -4765547.91447  -3703708.02043  23834992.1944   23834990.3004
      1967.0214
  -3569850.76648  -2773174.10244  23525058.5774   23525056.0974
       -53.3364
  15980025.04747  12431043.66842  24769987.5224   24769985.5654
     -4500.2934
    728135.99249    564129.70746  21642285.2724   21642283.1594
      -571.7504
 04  9 14 21 51 15.0030000  0  8G10G 3G 8G13G28G19G23G27
  -1752821.39147  -1362210.01242  24227713.2184   24227711.5854
       -44.5534
   5020942.98847   3908077.10942  24282122.0694   24282121.8124
     -2483.5654
  -4268866.56249  -3323104.43446  21977926.9294   21977925.2574
       615.0054
   7960429.83649   6194485.25846  21874104.8744   21874102.6674
     -2993.4244
  -4794990.75448  -3726650.47343  23829389.6474   23829387.5034
      1962.8564
  -3568921.10948  -2772449.69544  23525235.5774   23525231.9644
       -61.9774
  16047572.71547  12483678.16442  24782841.1014   24782838.9564
     -4503.1784
    736758.69149    570848.69546  21643926.3584   21643923.9604
      -574.8474
 04  9 14 21 51 30.0030000  0  8G10G 3G 8G13G28G19G23G27
  -1752012.10546  -1361579.38742  24227867.3824   24227866.0194
       -53.9524
   5058328.25447   3937208.46542  24289235.8434   24289236.3704
     -2492.3514
  -4278038.70349  -3330251.55546  21976181.5304   21976179.6014
       611.4764
   8005441.27049   6229559.08246  21882670.5934   21882668.0264
     -3000.7624
  -4824371.40647  -3749544.45343  23823798.7964   23823797.2964
      1958.7104
  -3567862.11347  -2771624.51244  23525436.9294   23525433.0304
       -70.6004
  16115162.74647  12536345.65642  24795703.6874   24795701.2804
     -4506.0024
    745427.31649    577603.46546  21645575.6554   21645573.5424
      -577.9084
 04  9 14 21 51 45.0030000  0  8G10G 3G 8G13G28G19G23G27
  -1751060.49647  -1360837.86742  24228048.2104   24228046.7924
       -63.4414
   5095846.38347   3966443.36342  24296375.8194   24296375.9404
     -2501.2094
  -4287156.61349  -3337356.41846  21974446.3904   21974444.2574
       607.8614
   8050563.81349   6264719.49246  21891257.1404   21891254.6474
     -3008.1704
  -4853688.61747  -3772389.00443  23818219.5384   23818218.1084
      1954.4814
  -3566672.46148  -2770697.49644  23525663.3584   23525660.0034
       -79.3104
  16182796.11347  12589046.94542  24808573.0774   24808571.1794
     -4508.8914
    754143.16449    584395.03547  21647234.3514   21647231.8544
      -581.0574
 04  9 14 21 52  0.0030000  0  8G10G 3G 8G13G28G19G23G27
  -1749966.50847  -1359985.41042  24228256.5384   24228254.8904
       -72.9334
   5133497.18447   3995781.61742  24303540.5774   24303540.3044
     -2510.0534
  -4296220.44149  -3344419.13346  21972721.4374   21972719.2144
       604.2554
   8095797.27349   6299966.32846  21899864.6714   21899862.4794
     -3015.5644
  -4882942.27747  -3795184.02343  23812652.8354   23812650.9604
      1950.2444
  -3565352.14548  -2769668.68444  23525914.4524   23525911.3514
       -88.0214
  16250472.58247  12641781.78542  24821452.8044   24821449.8944
     -4511.7654
    762906.05949    591223.25846  21648901.7264   21648899.3864
      -584.1934
 04  9 14 21 52 15.0030000  0  8G10G 3G 8G13G28G19G23G27
  -1748730.48447  -1359022.27043  24228491.5624   24228490.4564
       -82.4024
   5171280.01647   4025222.78142  24310730.4134   24310730.7144
     -2518.8554
  -4305230.34049  -3351439.82846  21971007.1474   21971005.0264
       600.6604
   8141141.19149   6335299.22746  21908493.3354   21908490.8974
     -3022.9284
  -4912132.57447  -3817929.68443  23807098.5624   23807096.6364
      1946.0204
  -3563901.29347  -2768538.14544  23526190.4764   23526186.8974
       -96.7234
  16318191.46947  12694549.66442  24834338.4684   24834337.2844
     -4514.5924
    771715.74649    598087.94946  21650578.2724   21650576.1554
      -587.3124
 04  9 14 21 52 30.0030000  0  8G10G 3G 8G13G28G19G23G27
  -1747352.87147  -1357948.79342  24228753.7724   24228752.2414
       -91.8414
   5209194.18846   4054766.27342  24317944.5694   24317944.8664
     -2527.6114
  -4314186.91049  -3358418.96946  21969302.7724   21969300.4834
       597.1054
   8186594.93449   6370717.71546  21917142.8744   21917140.3154
     -3030.2494
  -4941259.93447  -3840626.30543  23801555.6634   23801553.5264
      1941.8244
  -3562320.25447  -2767306.15244  23526490.8824   23526487.3974
      -105.4034
  16385952.08647  12747350.07442  24847233.0544   24847231.6514
     -4517.3744
    780571.77049    604988.74246  21652263.2964   21652261.1124
      -590.4024
 04  9 14 21 52 45.0030000  0  8G10G 3G 8G13G28G19G23G27
  -1745832.65646  -1356764.21943  24229043.4834   24229041.8124
      -101.3484
   5247240.32047   4084412.57842  24325185.2024   24325185.1084
     -2536.4094
  -4323089.52049  -3365356.06646  21967608.4684   21967606.4604
       593.5074
   8232159.11349   6406222.25046  21925813.5224   21925810.9094
     -3037.6124
  -4970323.50047  -3863273.21143  23796024.9134   23796022.9914
      1937.5714
  -3560608.01248  -2765971.92244  23526817.2104   23526813.6284
      -114.1494
  16453754.94547  12800183.37542  24860136.0854   24860134.1444
     -4520.1914
    789474.91849    611926.25446  21653957.7494   21653955.3354
      -593.5434
 04  9 14 21 53  0.0030000  0  8G10G 3G 8G13G28G19G23G27
  -1744168.85247  -1355467.73842  24229359.2184   24229358.3664
      -110.9204
   5285419.28546   4114162.41442  24332449.8744   24332450.1324
     -2545.2644
  -4331936.84849  -3372250.08246  21965924.6164   21965922.9834
       589.8224
   8277834.61349   6441813.52346  21934505.4604   21934502.9684
     -3045.0334
  -4999322.01648  -3885869.42243  23790506.8514   23790504.8194
      1933.2344
  -3558763.46148  -2764534.62144  23527167.9834   23527165.2884
      -122.9704
  16521600.90647  12853050.30942  24873046.8974   24873044.5934
     -4523.0644
    798426.21949    618901.30146  21655660.8434   21655658.6904
      -596.7534
 04  9 14 21 53 15.0030000  0  8G10G 3G 8G13G28G19G23G27
  -1742362.14847  -1354059.92642  24229703.2184   24229701.8044
      -120.4474
   5323730.30547   4144015.12942  24339740.9054   24339740.5114
     -2554.0684
  -4340729.33249  -3379101.37546  21964251.8514   21964250.1044
       586.1664
   8323620.69149   6477490.97346  21943218.1874   21943215.5504
     -3052.4054
  -5028255.93048  -3908415.30943  23785000.4294   23784998.6164
      1928.9284
  -3556787.08648  -2762994.58244  23527544.2884   23527541.5194
      -131.7584
  16589489.10547  12905950.12942  24885965.7964   24885963.2724
     -4525.8804
    807425.14849    625913.44946  21657373.5624   21657371.3314
      -599.9294
 04  9 14 21 53 30.0030000  0  8G10G 3G 8G13G28G19G23G27
  -1740411.75447  -1352540.13742  24230074.6404   24230073.3004
      -130.0264
   5362173.63746   4173970.95742  24347056.5154   24347056.3824
     -2562.8894
  -4349466.69549  -3385909.69546  21962589.2184   21962587.0934
       582.4914
   8369517.73849   6513254.88746  21951951.9994   21951949.7614
     -3059.8034
  -5057124.58648  -3930910.33643  23779506.7724   23779505.1834
      1924.5774
  -3554678.06248  -2761351.17244  23527945.4524   23527941.9994
      -140.6024
  16657419.83647  12958883.08642  24898892.1084   24898890.7264
     -4528.7154
    816472.25049    632963.13746  21659095.0304   21659092.9644
      -603.1404
 04  9 14 21 53 45.0030000  0  8G10G 3G 8G13G28G19G23G27
  -1738318.80947  -1350909.25442  24230472.9524   24230471.5114
      -139.5304
   5400747.84446   4204028.77342  24354396.4914   24354396.5114
     -2571.6144
  -4358150.09049  -3392675.97346  21960936.8584   21960934.7334
       578.8934
   8415524.46549   6549104.26646  21960706.7884   21960704.4794
     -3067.1154
  -5085929.01248  -3953355.30943  23774025.2414   23774023.6874
      1920.2954
  -3552437.42648  -2759605.21944  23528371.9374   23528368.4294
      -149.3764
  16725391.69946  13011848.08642  24911826.3354   24911824.6794
     -4531.4584
    825566.39549    640049.48046  21660825.4994   21660823.3234
      -606.2764
 04  9 14 21 54  0.0030000  0  8G10G 3G 8G13G28G19G23G27
  -1736082.22347  -1349166.46143  24230898.6014   24230897.1364
      -149.1064
   5439453.91046   4234189.30142  24361761.9914   24361762.1444
     -2580.4044
  -4366778.18449  -3399399.15646  21959294.5384   21959292.7454
       575.2064
   8461641.89849   6585039.91446  21969482.8664   21969480.1514
     -3074.4964
  -5114667.93048  -3975749.24644  23768556.6554   23768555.2654
      1915.9284
  -3550063.97748  -2757755.77344  23528823.5854   23528820.1674
      -158.2304
  16793405.51246  13064845.78542  24924770.1164   24924767.0224
     -4534.2544
    834708.60949    647173.28546  21662565.3824   21662562.9794
      -609.4814
 04  9 14 21 54 15.0030000  0  8G10G 3G 8G13G28G19G23G27
  -1733702.37947  -1347312.03942  24231351.5774   24231350.1674
      -158.6564
   5478291.24246   4264452.13742  24369152.4214   24369153.1204
     -2589.1554
  -4375351.32049  -3406079.52346  21957663.3354   21957661.2064
       571.5424
   8507869.62949   6621061.50446  21978279.7884   21978277.0584
     -3081.8494
  -5143341.56648  -3998092.30144  23763100.3824   23763098.6474
      1911.5764
  -3547557.81248  -2755802.90644  23529300.8584   23529296.6284
      -167.0784
  16861460.78547  13117875.80942  24937720.1714   24937718.0464
     -4537.0184
    843898.71549    654334.40246  21664314.0694   21664312.0814
      -612.6744
 04  9 14 21 54 30.0030000  0  8G10G 3G 8G13G28G19G23G27
  -1731136.93447  -1345312.96943  24231839.6794   24231837.8044
      -171.0304
   5517302.02346   4294850.13742  24376575.8514   24376575.9094
     -2600.7194
  -4383827.18449  -3412684.08246  21956050.7334   21956047.7694
       565.0584
   8554249.69549   6657201.80546  21987105.2414   21987102.3044
     -3092.0044
  -5171907.39548  -4020351.34444  23757664.7184   23757662.3474
      1904.3894
  -3544876.50448  -2753713.55144  23529810.8664   23529806.7264
      -178.7544
  16929599.45347  13170970.82042  24950686.8824   24950683.4014
     -4542.5784
    853179.02049    661565.81646  21666080.0774   21666077.3904
      -618.6874
 04  9 14 21 54 45.0030000  0  8G10G 3G 8G13G28G19G23G27
  -1728470.47347  -1343235.20343  24232347.0154   24232345.2654
      -177.7644
   5556401.28146   4325317.06342  24384016.1634   24384016.3744
     -2606.6174
  -4392290.53549  -3419278.89146  21954439.8194   21954437.4684
       564.2234
   8600697.20349   6693394.64846  21995944.2264   21995941.3274
     -3096.5014
  -5200450.21948  -4042592.47744  23752233.2724   23752230.9874
      1902.8554
  -3542104.52348  -2751553.55544  23530338.2184   23530334.4334
      -184.7994
  16997736.66847  13224064.67243  24963652.9764   24963650.4484
     -4542.4814
    862464.79349    668801.48446  21667847.3194   21667844.3544
      -619.0524
 04  9 14 21 55  0.0030000  0  8G10G 3G 8G13G28G19G23G27
  -1725768.94947  -1341130.11343  24232861.1324   24232859.3004
      -180.1024
   5595522.77045   4355801.32842  24391461.5694   24391461.1364
     -2608.0994
  -4400807.25449  -3425915.29346  21952819.5224   21952816.3974
       567.7814
   8647145.92649   6729588.43446  22004783.0694   22004780.1164
     -3096.5824
  -5229035.80948  -4064866.93744  23746793.3044   23746791.2534
      1905.7064
  -3539307.85548  -2749374.33644  23530870.7264   23530866.3624
      -186.4454
  17065806.14147  13277105.72342  24976605.9604   24976603.6164
     -4537.9654
    871689.98849    675989.94146  21669602.9134   21669600.0504
      -615.0134
 04  9 14 21 55 15.0030000  0  8G10G 3G 8G13G28G19G23G27
  -1722976.58247  -1338954.24643  24233392.4294   24233390.5854
      -186.1584
   5634721.97346   4386346.13742  24398920.8354   24398920.2654
     -2613.2804
  -4409321.71549  -3432549.94146  21951198.8434   21951196.3704
       567.6314
   8693651.51249   6765826.53946  22013632.8514   22013629.8194
     -3100.3724
  -5257608.37548  -4087131.23444  23741355.8974   23741353.8664
      1904.8384
  -3536430.60248  -2747132.32844  23531417.9914   23531414.2294
      -191.8174
  17133863.28147  13330137.21942  24989556.8194   24989554.3044
     -4537.1434
    880910.43449    683174.70746  21671357.4294   21671354.6124
      -614.6964
 04  9 14 21 55 30.0030000  0  8G10G 3G 8G13G28G19G23G27
  -1720068.03147  -1336687.84443  24233945.7264   24233944.0384
      -193.9034
   5674024.12946   4416971.17642  24406399.6944   24406398.6594
     -2620.1444
  -4417808.27749  -3439162.84046  21949584.1084   21949581.2804
       565.7714
   8740239.18449   6802128.60246  22022498.1634   22022495.3234
     -3105.8454
  -5286142.33648  -4109365.46544  23735926.3274   23735923.5854
      1902.2644
  -3533447.35248  -2744807.71144  23531986.0074   23531982.2294
      -198.8834
  17201933.30146  13383178.71542  25002509.6164   25002506.9644
     -4538.0014
    890151.55549    690375.57846  21673115.9294   21673113.1634
      -616.0754
 04  9 14 21 55 45.0030000  0  8G10G 3G 8G13G28G19G23G27
  -1717030.98847  -1334321.30943  24234523.9374   24234521.8124
      -202.4704
   5713441.18846   4447685.75042  24413900.4294   24413899.9684
     -2627.8044
  -4426254.77049  -3445744.51646  21947976.7574   21947974.3084
       563.0994
   8786920.88749   6838503.93846  22031381.4054   22031378.4684
     -3112.1144
  -5314625.36748  -4131560.00044  23730506.3664   23730503.3044
      1898.8694
  -3530345.63348  -2742390.77744  23532575.6634   23532571.9444
      -206.7814
  17270028.14846  13436239.52342  25015468.5074   25015464.8354
     -4539.6574
    899425.58649    697602.09046  21674880.8274   21674877.9604
      -618.2694
 04  9 14 21 56  0.0030000  0  8G10G 3G 8G13G28G19G23G27
  -1713861.48047  -1331851.55943  24235126.9134   24235125.2184
      -211.3014
   5752976.98446   4478492.82442  24421424.3744   24421423.3274
     -2635.7204
  -4434657.08649  -3452291.77346  21946378.2494   21946375.4874
       560.1544
   8833700.47349   6874955.54746  22040283.1244   22040280.4794
     -3118.6394
  -5343053.30948  -4153711.61744  23725096.6874   23725094.2104
      1895.1964
  -3527121.25848  -2739878.27344  23533189.4214   23533185.8314
      -214.9584
  17338151.67647  13489322.70742  25028432.7334   25028429.4524
     -4541.5684
    908736.49649    704857.34046  21676652.2724   21676649.7334
      -620.7274
 04  9 14 21 56 15.0030000  0  7G10G 3G 8G13G28G19G27
  -1710557.16847  -1329276.77343  24235756.1714   24235753.9764
      -220.2874
   5792633.46946   4509393.98042  24428971.2184   24428969.8434
     -2643.7664
  -4443013.25849  -3458803.06246  21944787.6164   21944785.3044
       557.0784
   8880580.27349   6911485.23446  22049204.3354   22049201.2294
     -3125.3204
  -5371423.86748  -4175818.52344  23719697.7654   23719695.0814
      1891.3714
  -3523771.96948  -2737268.43044  23533827.0224   23533822.7694
      -223.2864
    918086.57449    712143.12146  21678431.5074   21678429.0624
      -623.3394
 04  9 14 21 56 30.0030000  0  7G10G 3G 8G13G28G19G27
  -1707115.02748  -1326594.58242  24236410.9684   24236408.8274
      -229.4764
   5832413.40646   4540391.29742  24436540.3124   24436539.6044
     -2651.9964
  -4451320.25849  -3465276.04746  21943207.0154   21943204.5424
       553.8004
   8927563.00049   6948095.14546  22058144.7884   22058141.6204
     -3132.1824
  -5399733.77748  -4197878.16444  23714310.7184   23714307.8004
      1887.3274
  -3520294.69148  -2734558.84044  23534488.2964   23534484.7694
      -231.8184
    927478.82449    719461.75046  21680218.8514   21680216.2144
      -626.1504
 04  9 14 21 56 45.0030000  0  7G10G 3G 8G13G28G19G27
  -1703534.60247  -1323804.63343  24237091.9764   24237090.0624
      -238.6954
   5872317.16846   4571485.10542  24444133.9444   24444133.4054
     -2660.2514
  -4459577.25449  -3471710.05946  21941635.8354   21941632.9684
       550.4664
   8974649.03949   6984785.54346  22067104.9834   22067101.9374
     -3139.0694
  -5427982.55548  -4219890.17244  23708934.8044   23708932.1674
      1883.2524
  -3516688.63748  -2731748.91844  23535174.7414   23535170.4794
      -240.4044
    936913.72749    726813.62546  21682014.2964   21682011.5854
      -628.9934
 04  9 14 21 57  0.0030000  0  7G10G 3G 8G13G28G19G27
  -1699815.98048  -1320907.00043  24237799.6874   24237798.1324
      -247.9084
   5912344.27746   4602675.05942  24451749.8824   24451749.8904
     -2668.4744
  -4467784.59449  -3478105.38746  21940073.9764   21940071.6084
       547.1564
   9021837.92249   7021556.07846  22076084.3354   22076081.9484
     -3145.9264
  -5456170.24648  -4241854.58644  23703570.9524   23703568.2334
      1879.1794
  -3512953.89148  -2728838.71944  23535885.4684   23535881.2104
      -248.9834
    946391.16449    734198.64146  21683817.9684   21683814.8194
      -631.8294
 04  9 14 21 57 15.0030000  0  7G10G 3G 8G13G28G19G27
  -1695958.84448  -1317901.44943  24238533.7964   24238532.0934
      -257.1424
   5952494.79746   4633961.14842  24459390.7494   24459390.4834
     -2676.7014
  -4475941.87549  -3484461.70746  21938521.5464   21938519.1284
       543.8194
   9069129.82849   7058406.89546  22085084.1244   22085081.1324
     -3152.7944
  -5484296.28948  -4263770.95344  23698218.7334   23698216.1514
      1875.0704
  -3509090.02348  -2725827.90644  23536620.5774   23536616.5544
      -257.5914
    955911.51249    741617.08646  21685629.6084   21685626.7724
      -634.6904
 04  9 14 21 57 30.0030000  0  7G10G 3G 8G13G28G19G27
  -1691961.12947  -1314786.32843  24239294.6244   24239292.8824
      -266.5144
   5992770.69946   4665344.95742  24467055.1874   24467054.1514
     -2685.0604
  -4484047.24649  -3490777.56646  21936979.3194   21936976.7374
       540.3584
   9116526.73849   7095339.53146  22094103.0464   22094100.2574
     -3159.7944
  -5512358.67648  -4285637.72744  23692878.9834   23692876.0974
      1870.8264
  -3505094.84448  -2722714.78144  23537380.7494   23537376.6474
      -266.3454
    965476.73449    749070.49646  21687449.7494   21687447.0814
      -637.6824
 04  9 14 21 57 45.0030000  0  7G10G 3G 8G13G28G19G27
  -1687821.21947  -1311560.43443  24240082.3824   24240081.0584
      -275.9944
   6033173.20746   4696827.41442  24474743.8904   24474742.5774
     -2693.5014
  -4492098.92649  -3497051.59846  21935446.9444   21935444.3824
       536.7794
   9164030.04349   7132355.07446  22103143.0624   22103139.9054
     -3166.8874
  -5540355.67648  -4307453.54744  23687550.6944   23687548.0504
      1866.4674
  -3500966.74248  -2719498.08244  23538166.3124   23538162.7064
      -275.2074
    975088.56349    756560.23446  21689278.7184   21689275.8084
      -640.7894
 04  9 14 21 58  0.0030000  0  7G10G 3G 8G13G28G19G27
  -1683538.39847  -1308223.16843  24240897.4914   24240895.2654
      -285.5214
   6073702.69946   4728408.82042  24482455.8824   24482455.4684
     -2701.9664
  -4500096.05949  -3503283.13346  21933925.4524   21933922.3904
       533.1424
   9211640.32449   7169453.97746  22112202.8584   22112199.9914
     -3174.0194
  -5568286.40648  -4329217.72744  23682235.9914   23682232.9174
      1862.0494
  -3496704.76248  -2716177.04744  23538977.4214   23538974.0934
      -284.1324
    984747.60949    764086.76646  21691117.0074   21691114.1284
      -643.9364
 04  9 14 21 58 15.0030000  0  7G10G 3G 8G13G28G19G27
  -1679116.44548  -1304777.49643  24241739.1944   24241736.7144
      -294.7974
   6114355.15246   4760086.02742  24490191.8904   24490191.8904
     -2710.1644
  -4508042.48449  -3509475.14546  21932413.1084   21932410.1014
       529.7624
   9259353.43849   7206633.00846  22121282.4054   22121279.4684
     -3180.8744
  -5596154.60248  -4350933.17644  23676932.9054   23676929.8474
      1857.8804
  -3492312.62548  -2712754.58644  23539813.2024   23539809.1714
      -292.8094
    994450.26649    771647.27346  21692963.0694   21692960.1874
      -646.8444
 04  9 14 21 58 30.0030000  0  7G10G 3G 8G13G28G19G27
  -1674553.43047  -1301221.88343  24242607.1634   24242605.2574
      -304.2014
   6155132.22346   4791860.36742  24497951.6084   24497951.1754
     -2718.4714
  -4515936.21949  -3515626.09846  21930910.8194   21930908.1164
       526.2494
   9307171.27049   7243893.64146  22130381.9914   22130378.6714
     -3187.8554
  -5623958.17648  -4372598.27344  23671641.8044   23671639.1904
      1853.5724
  -3487788.29348  -2709229.11344  23540674.3044   23540670.0734
      -301.6224
   1004198.25849    779243.10946  21694818.1554   21694815.4294
      -649.8664
 04  9 14 21 58 45.0030000  0  7G10G 3G 8G13G28G19G27
  -1669848.40247  -1297555.63742  24243502.3514   24243500.7414
      -313.6684
   6196034.73447   4823732.43842  24505734.6164   24505734.0654
     -2726.8344
  -4523776.36749  -3521735.29746  21929418.7884   21929416.1244
       522.6774
   9355094.44549   7281236.35246  22139501.3354   22139498.0344
     -3194.8784
  -5651696.14548  -4394212.25844  23666363.7414   23666361.2294
      1849.1984
  -3483130.69548  -2705599.81644  23541560.7414   23541556.3864
      -310.5074
   1013992.57049    786875.03546  21696681.9374   21696679.1164
      -652.9544
 04  9 14 21 59  0.0030000  0  7G10G 3G 8G13G28G19G27
  -1665002.25847  -1293779.41843  24244424.6944   24244422.6554
      -323.0764
   6237061.53547   4855701.35242  24513542.1014   24513541.7294
     -2735.1204
  -4531563.60549  -3527803.26646  21927937.3974   21927934.3944
       519.1494
   9403121.99649   7318660.39846  22148640.8824   22148637.5034
     -3201.8374
  -5679369.37148  -4415775.77744  23661097.5774   23661095.1364
      1844.8824
  -3478340.67648  -2701867.32844  23542472.2414   23542467.5974
      -319.3354
   1023832.44949    794542.47346  21698554.3274   21698551.4334
      -655.9924
 04  9 14 21 59 15.0030000  0  7G10G 3G 8G13G28G19G27
  -1660014.46547  -1289892.81642  24245373.4684   24245371.8624
      -332.5204
   6278213.00446   4887767.41042  24521372.9834   24521372.2614
     -2743.4314
  -4539297.71949  -3533829.84446  21926465.1794   21926462.6324
       515.6084
   9451254.16449   7356165.96146  22157800.0154   22157797.0304
     -3208.8114
  -5706977.13748  -4437288.28944  23655844.1634   23655841.7064
      1840.5184
  -3473417.55948  -2698031.14144  23543409.2724   23543404.4874
      -328.2084
   1033718.32849    802245.75446  21700435.6164   21700432.8274
      -659.0594
 04  9 14 21 59 30.0030000  0  7G10G 3G 8G13G28G19G27
  -1654885.60547  -1285896.31242  24246349.2264   24246347.6754
      -341.9244
   6319488.28147   4919929.94542  24529227.8514   24529227.3004
     -2751.6854
  -4546979.14849  -3539815.36746  21925003.4214   21925001.3354
       512.0954
   9499490.34049   7393752.57445  22166979.0384   22166975.9174
     -3215.7454
  -5734519.75848  -4458750.04744  23650602.6244   23650599.8664
      1836.1754
  -3468361.87148  -2694091.63744  23544370.9764   23544366.3744
      -337.0464
   1043649.73049    809984.50446  21702325.4604   21702322.5344
      -662.0934
 04  9 14 21 59 45.0030000  0  7G10G 3G 8G13G28G19G27
  -1649614.40247  -1281788.87142  24247352.4764   24247350.9644
      -351.4144
   6360888.35247   4952189.71542  24537106.0074   24537105.1244
     -2760.0054
  -4554606.52049  -3545758.76646  21923552.1634   21923549.4794
       508.4914
   9547831.64849   7431421.10546  22176178.2334   22176175.0224
     -3222.7544
  -5761995.93048  -4480160.02343  23645374.0624   23645371.3234
      1831.7454
  -3463172.13348  -2690047.67644  23545358.8584   23545353.9954
      -345.9834
   1053628.03149    817759.79746  21704224.4134   21704221.7224
      -665.2204
 04  9 14 22  0  0.0030000  0  7G10G 3G 8G13G28G19G27
  -1644200.79747  -1277570.48042  24248382.9684   24248381.2334
      -360.9074
   6402413.01647   4984546.56342  24545007.7494   24545007.0814
     -2768.3114
  -4562179.63349  -3551659.89146  21922111.0544   21922108.4094
       504.8744
   9596277.94949   7469171.44946  22185396.9994   22185393.6674
     -3229.7534
  -5789405.47748  -4501518.09444  23640158.2884   23640155.1754
      1827.3034
  -3457848.14548  -2685899.11344  23546371.8744   23546367.1904
      -354.9334
   1063653.13349    825571.56646  21706131.7884   21706129.3194
      -668.3404
 04  9 14 22  0 15.0030000  0  7G10G 3G 8G13G28G19G27
  -1638645.32447  -1273241.54343  24249439.9524   24249437.8974
      -370.3654
   6444061.49647   5016999.93442  24552933.2184   24552932.3744
     -2776.5654
  -4569699.07849  -3557519.19546  21920680.1874   21920677.4794
       501.2964
   9644828.46949   7507003.00446  22194636.0854   22194633.0424
     -3236.7014
  -5816748.87148  -4522824.61744  23634955.0934   23634951.8584
      1822.8934
  -3452390.38748  -2681646.30544  23547410.5544   23547405.6904
      -363.8514
   1073724.63749    833419.49246  21708048.4914   21708045.8664
      -671.4344
 04  9 14 22  0 30.0030000  0  7G10G 3G 8G13G28G19G27
  -1632948.10247  -1268802.14543  24250524.0544   24250522.0654
      -379.8154
   6485833.43447   5049549.47742  24560882.3434   24560881.7724
     -2784.7964
  -4577165.16049  -3563336.91046  21919259.2024   21919256.8664
       497.7394
   9693482.87549   7544915.50445  22203894.8904   22203891.4684
     -3243.6274
  -5844026.20348  -4544079.65644  23629764.3664   23629761.1404
      1818.4894
  -3446798.89148  -2677289.28944  23548473.9684   23548469.5814
      -372.7664
   1083842.31649    841303.39846  21709973.8274   21709971.1594
      -674.5124
 04  9 14 22  0 45.0030000  0  7G10G 3G 8G13G28G19G27
  -1627109.03547  -1264252.22342  24251635.6634   24251633.2184
      -389.2714
   6527728.70747   5082195.12542  24568854.5224   24568853.8394
     -2793.0184
  -4584577.46549  -3569112.72746  21917848.7654   21917846.3434
       494.1544
   9742241.04749   7582908.86345  22213172.8584   22213169.6514
     -3250.5454
  -5871237.14148  -4565282.96144  23624586.1084   23624582.9054
      1814.0634
  -3441073.37548  -2672827.85544  23549563.7264   23549559.2694
      -381.7014
   1094006.47749    849223.51246  21711908.1874   21711905.0424
      -677.6114
 04  9 14 22  1  0.0030000  0  7G10G 3G 8G13G28G19G27
  -1621128.78548  -1259592.28942  24252773.5774   24252771.3194
      -398.6834
   6569746.45747   5114936.21942  24576850.7494   24576850.1044
     -2801.1834
  -4591936.82449  -3574847.28546  21916448.3044   21916445.9094
       490.6244
   9791102.34049   7620982.57846  22222471.0304   22222467.7924
     -3257.4204
  -5898382.21948  -4586434.95744  23619420.4214   23619417.7964
      1809.6724
  -3435214.41048  -2668262.41444  23550678.8824   23550674.4914
      -390.5984
   1104216.41049    857179.30946  21713851.1244   21713848.4684
      -680.6624
 04  9 14 22  1 15.0030000  0  7G10G 3G 8G13G28G19G27
  -1615006.59848  -1254821.75042  24253938.7494   24253936.2294
      -408.1464
   6611887.04747   5147773.01642  24584869.2884   24584868.8904
     -2809.3734
  -4599242.28149  -3580539.84046  21915057.8744   21915055.6124
       487.0304
   9840067.19949   7659137.00045  22231788.6324   22231785.8904
     -3264.3244
  -5925460.74248  -4607535.07844  23614268.0774   23614264.8044
      1805.2354
  -3429221.19548  -2663592.37544  23551819.3664   23551814.9484
      -399.5484
   1114472.79349    865171.29346  21715802.8824   21715800.0544
      -683.7594
 04  9 14 22  1 30.0030000  0  7G10G 3G 8G13G28G19G27
  -1608740.75047  -1249939.26642  24255130.8584   24255128.7764
      -417.7234
   6654151.92247   5180706.67642  24592912.4134   24592911.5114
     -2817.6584
  -4606492.22749  -3586189.14146  21913678.2724   21913675.6014
       483.3304
   9889137.12149   7697373.27745  22241126.4374   22241123.3354
     -3271.3284
  -5952470.60548  -4628581.69544  23609128.0464   23609125.2414
      1800.6584
  -3423091.82048  -2658816.22744  23552985.4764   23552981.2064
      -408.6254
   1124777.40249    873200.85546  21717763.3744   21717760.6164
      -686.9744
 04  9 14 22  1 45.0030000  0  7G10G 3G 8G13G28G19G27
  -1602331.57047  -1244945.10542  24256350.2494   24256348.3474
      -427.2794
   6696540.59447   5213736.78942  24600978.1714   24600977.7264
     -2825.9114
  -4613687.02349  -3591795.47346  21912309.3124   21912306.7884
       479.6534
   9938311.65649   7735691.07445  22250483.8124   22250481.1554
     -3278.3024
  -5979412.18748  -4649575.10944  23604000.8514   23603998.2694
      1796.1054
  -3416826.52048  -2653934.18044  23554178.2494   23554173.5854
      -417.6874
   1135130.08249    881267.87546  21719733.6014   21719730.9604
      -690.1794
 04  9 14 22  2  0.0030000  0  7G10G 3G 8G13G28G19G27
  -1595779.73047  -1239839.78143  24257596.8664   24257595.3004
      -436.7894
   6739052.07047   5246862.60542  24609067.4994   24609067.6444
     -2834.0984
  -4620827.30949  -3597359.31646  21910950.6014   21910948.2614
       476.0194
   9987589.91849   7774089.69945  22259861.3584   22259858.6444
     -3285.2174
  -6006286.08648  -4670515.77743  23598886.8744   23598884.1594
      1791.5934
  -3410426.08648  -2648946.82044  23555396.2574   23555391.6874
      -426.6964
   1145530.02749    889371.72746  21721712.6794   21721710.0934
      -693.3304
 04  9 14 22  2 15.0030000  0  7G10G 3G 8G13G28G19G27
  -1589085.41447  -1234623.42642  24258871.1714   24258869.0624
      -446.2884
   6781686.12146   5280083.91442  24617180.9604   24617180.4294
     -2842.2704
  -4627912.95349  -3602880.59846  21909602.3664   21909599.7884
       472.3764
  10036971.56349   7812568.87945  22269258.5854   22269255.6714
     -3292.1104
  -6033092.18748  -4691403.62144  23593785.6244   23593782.8314
      1787.0734
  -3403890.36348  -2643854.04344  23556639.1794   23556635.4604
      -435.7154
   1155977.14549    897512.32846  21723700.6554   21723697.8154
      -696.4744
 04  9 14 22  2 30.0030000  0  7G10G 3G 8G13G28G19G27
  -1582249.01247  -1229296.35942  24260171.9134   24260169.9014
      -455.7604
   6824442.10546   5313400.26242  24625316.7964   24625316.6674
     -2850.3994
  -4634944.50849  -3608359.72746  21908264.2964   21908261.5344
       468.7704
  10086456.19149   7851128.31345  22278675.2884   22278672.4294
     -3298.9754
  -6059830.96548  -4712239.01244  23588697.9054   23588695.0464
      1782.5854
  -3397219.63748  -2638656.08244  23557908.8274   23557904.9094
      -444.7154
   1166471.22349    905689.53146  21725697.6794   21725694.8784
      -699.6054
 04  9 14 22  2 45.0030000  0  7G10G 3G 8G13G28G19G27
  -1575269.46947  -1223857.74643  24261499.8124   24261497.8784
      -465.3034
   6867320.82446   5346812.23842  24633476.3974   24633476.3974
     -2858.5814
  -4641920.64549  -3613795.66446  21906936.6324   21906934.1044
       465.0764
  10136044.62149   7889768.62945  22288111.5464   22288109.0224
     -3305.8954
  -6086501.05148  -4733020.87144  23583622.4604   23583619.5034
      1778.0064
  -3390412.62548  -2633351.90244  23559203.6794   23559199.9444
      -453.8014
   1177013.29749    913904.14146  21727703.7104   21727700.8904
      -702.8054
 04  9 14 22  3  0.0030000  0  7G10G 3G 8G13G28G19G27
  -1568148.03147  -1218308.57842  24262854.7964   24262853.2104
      -474.7624
   6910320.82446   5380318.70342  24641658.4684   24641658.7454
     -2866.6674
  -4648842.67249  -3619189.44946  21905619.2414   21905616.9794
       461.4684
  10185735.42249   7928488.71145  22297567.4374   22297564.8664
     -3312.7204
  -6113103.64148  -4753750.13744  23578560.1874   23578557.4214
      1773.5064
  -3383470.53548  -2627942.48444  23560525.4444   23560521.1834
      -462.8064
   1187602.13749    922155.18846  21729719.2494   21729716.0974
      -705.9234
 04  9 14 22  3 15.0030000  0  7G10G 3G 8G13G28G19G27
  -1560884.95347  -1212649.02042  24264237.4684   24264235.1324
      -484.2054
   6953441.36346   5413919.09442  24649864.6794   24649863.7064
     -2874.7034
  -4655710.83649  -3624541.25846  21904312.4444   21904309.9334
       457.8784
  10235528.02349   7967288.11745  22307042.5384   22307039.8394
     -3319.5074
  -6139638.98448  -4774427.00044  23573510.7804   23573507.5774
      1769.0234
  -3376393.66048  -2622428.03544  23561871.5074   23561867.7724
      -471.7924
   1198237.44549    930442.43846  21731742.4834   21731739.7024
      -709.0214
 04  9 14 22  3 30.0030000  0  7G10G 3G 8G13G28G19G27
  -1553478.37947  -1206877.67642  24265646.8824   24265644.6514
      -493.7724
   6996684.18847   5447614.78542  24658094.7184   24658093.0734
     -2882.8554
  -4662523.42649  -3629849.76246  21903016.0224   21903013.2924
       454.1734
  10285424.20749   8006168.23445  22316537.6164   22316534.8824
     -3326.4124
  -6166104.96948  -4795049.82444  23568474.0304   23568471.3864
      1764.3994
  -3369180.00448  -2616807.00044  23563244.8274   23563240.0584
      -480.9104
   1208921.14849    938767.39546  21733775.5694   21733772.8664
      -712.2474
 04  9 14 22  3 45.0030000  0  7G10G 3G 8G13G28G19G27
  -1545930.25047  -1200996.00443  24267083.3824   24267080.8624
      -503.2094
   7040047.03147   5481404.00042  24666345.7574   24666344.1874
     -2890.8564
  -4669282.25849  -3635116.37946  21901729.8354   21901727.3154
       450.5894
  10335421.83649   8045127.40645  22326051.7414   22326048.7964
     -3333.1754
  -6192503.55548  -4815620.13344  23563450.8434   23563447.8664
      1759.9064
  -3361831.46947  -2611080.87144  23564642.8274   23564639.1594
      -489.9024
   1219651.34449    947128.58246  21735817.4294   21735814.7024
      -715.3464
 04  9 14 22  4  0.0030000  0  7G10G 3G 8G13G28G19G27
  -1538241.17647  -1195004.51642  24268546.5154   24268544.0504
      -512.6054
   7083529.00047   5515286.06342  24674620.3904   24674618.7184
     -2898.7984
  -4675987.84849  -3640341.51246  21900453.8354   21900451.5424
       447.0394
  10385520.10549   8084165.00045  22335585.3514   22335582.3664
     -3339.8854
  -6218835.21548  -4836138.28144  23558439.9054   23558437.1754
      1755.4444
  -3354348.46147  -2605249.94544  23566066.8904   23566063.1124
      -498.8674
   1230427.42249    955525.52746  21737868.2804   21737865.1444
      -718.4054
 04  9 14 22  4 15.0030000  0  7G10G 3G 8G13G28G19G27
  -1530408.87147  -1188901.42242  24270036.8824   24270034.6284
      -522.1544
   7127132.33647   5549262.69542  24682916.9294   24682917.1164
     -2906.8894
  -4682637.72349  -3645523.22346  21899188.6244   21899185.6834
       443.3254
  10435721.21149   8123282.71945  22345138.4214   22345135.2614
     -3346.7404
  -6245097.39848  -4856602.30544  23553442.3354   23553439.7614
      1750.8124
  -3346728.59848  -2599312.39544  23567517.3974   23567512.8434
      -507.9914
   1241251.75449    963960.07046  21739928.0154   21739925.0114
      -721.6224
 04  9 14 22  4 30.0030000  0  7G10G 3G 8G13G28G19G27
  -1522432.94147  -1182686.40242  24271554.6404   24271552.2184
      -531.7294
   7170857.15647   5583333.95342  24691237.6404   24691237.5544
     -2914.9884
  -4689231.48849  -3650661.21946  21897933.6714   21897931.3084
       439.5844
  10486025.26649   8162480.67245  22354710.9294   22354708.2104
     -3353.6044
  -6271289.71948  -4877011.87144  23548458.1404   23548455.5224
      1746.1554
  -3338971.43748  -2593267.85244  23568993.3904   23568989.1874
      -517.1444
   1252124.79349    972432.57046  21741996.9764   21741994.1874
      -724.8694
 04  9 14 22  4 45.0030000  0  7G10G 3G 8G13G28G19G27
  -1514312.24247  -1176358.60242  24273099.9374   24273097.5224
      -541.3804
   7214704.41447   5617500.64142  24699581.7494   24699581.0224
     -2923.1514
  -4695768.17249  -3655754.73046  21896689.9444   21896687.4374
       435.7794
  10536433.44949   8201759.75446  22364303.5074   22364300.1044
     -3360.5464
  -6297410.78948  -4897365.92644  23543487.3354   23543484.8944
      1741.4054
  -3331075.58248  -2587115.23044  23570495.6014   23570491.7924
      -526.3904
   1263047.78949    980943.99246  21744075.5304   21744072.8314
      -728.2004
 04  9 14 22  5  0.0030000  0  7G10G 3G 8G13G28G19G27
  -1506048.02747  -1169918.95343  24274672.4444   24274670.2494
      -550.9484
   7258672.58247   5651761.53542  24707948.8044   24707948.3154
     -2931.2114
  -4702248.50849  -3660804.34046  21895456.8124   21895453.8784
       432.0224
  10586944.28949   8241118.83245  22373915.1554   22373911.9254
     -3367.3894
  -6323461.60948  -4917665.24644  23538530.2104   23538527.4174
      1736.7214
  -3323042.18047  -2580855.42244  23572024.2964   23572020.5654
      -535.5604
   1274019.60549    989493.45746  21746163.5694   21746160.5074
      -731.4544
 04  9 14 22  5 15.0030000  0  7G10G 3G 8G13G28G19G27
  -1497639.03946  -1163366.48842  24276272.4374   24276270.2614
      -560.5994
   7302762.62147   5686117.41442  24716339.0854   24716337.7294
     -2939.3364
  -4708671.39549  -3665809.19146  21894234.4054   21894231.5854
       428.1924
  10637558.84049   8280558.71945  22383546.6714   22383543.7924
     -3374.3034
  -6349440.97748  -4937908.87544  23533586.4914   23533584.1674
      1731.9584
  -3314869.89547  -2574487.41444  23573579.8194   23573575.3624
      -544.8194
   1285041.57049    998082.00046  21748260.9214   21748257.7184
      -734.7984
 04  9 14 22  5 30.0030000  0  7G10G 3G 8G13G28G19G27
  -1489085.63347  -1156701.49643  24277900.1714   24277898.5654
      -570.2274
   7346973.88747   5720567.76242  24724752.6944   24724751.4724
     -2947.4184
  -4715037.27049  -3670769.59446  21893022.9764   21893020.3824
       424.3924
  10688276.44549   8320078.91045  22393198.1244   22393194.7064
     -3381.1744
  -6375349.17648  -4958097.05944  23528656.5464   23528653.8434
      1727.2134
  -3306559.03548  -2568011.41444  23575160.7654   23575157.2264
      -554.0574
   1296113.18049   1006709.22746  21750367.4054   21750364.5544
      -738.1074
 04  9 14 22  5 45.0030000  0  7G10G 3G 8G13G28G19G27
  -1480389.31647  -1149925.14842  24279555.5154   24279553.2574
      -579.7544
   7391304.94147   5755111.40642  24733187.6244   24733187.4054
     -2955.4044
  -4721347.41449  -3675686.59446  21891822.1474   21891819.5034
       420.6764
  10739095.55949   8359678.19945  22402868.8124   22402865.3744
     -3387.9414
  -6401187.37948  -4978230.70744  23523739.8514   23523736.9954
      1722.5474
  -3298110.88347  -2561428.43744  23576768.4684   23576764.3194
      -563.2104
   1307233.13749   1015374.12546  21752483.8194   21752481.2574
      -741.3304
 04  9 14 22  6  0.0030000  0  7G10G 3G 8G13G28G19G27
  -1471549.95747  -1143037.33243  24281237.6244   24281234.8314
      -589.2914
   7435755.43047   5789748.15642  24741646.9834   24741646.2494
     -2963.3664
  -4727601.65249  -3680560.02346  21890632.1164   21890629.4684
       416.9494
  10790016.14849   8399356.55945  22412558.3124   22412555.1244
     -3394.7064
  -6426955.34448  -4998309.61344  23518836.2104   23518833.3974
      1717.8644
  -3289525.26247  -2554738.32444  23578402.2804   23578398.2964
      -572.3754
   1318401.57849   1024076.81346  21754609.1164   21754606.4444
      -744.5634
 04  9 14 22  6 15.0030000  0  7G10G 3G 8G13G28G19G27
  -1462565.87947  -1136036.75042  24282946.8664   24282944.7614
      -598.9394
   7480326.71947   5824479.02342  24750127.2414   24750127.6404
     -2971.4194
  -4733798.19149  -3685388.48446  21889453.0934   21889450.3194
       413.1034
  10841039.72349   8439115.16445  22422268.0774   22422265.0464
     -3401.5724
  -6452651.55948  -5018332.61744  23513946.0224   23513943.0344
      1713.0814
  -3280800.43048  -2547939.76644  23580062.4054   23580058.7024
      -581.6554
   1329620.23449   1032818.62146  21756744.2184   21756741.2694
      -747.9104
 04  9 14 22  6 30.0030000  0  7G10G 3G 8G13G28G19G27
  -1453438.40246  -1128924.42642  24284684.1714   24284681.6204
      -608.4984
   7525017.56347   5859303.03542  24758632.3584   24758632.6204
     -2979.3904
  -4739938.48449  -3690173.12546  21888284.3744   21888281.8514
       409.3534
  10892164.77049   8478952.84045  22431996.7024   22431993.7224
     -3408.3364
  -6478276.99648  -5038300.46544  23509070.0384   23509067.1594
      1708.3634
  -3271937.52348  -2541033.58644  23581748.8354   23581744.8974
      -590.8604
   1340887.91849   1041598.63746  21758888.0694   21758885.2654
      -751.1794
 04  9 14 22  6 45.0030000  0  7G10G 3G 8G13G28G19G27
  -1444165.97347  -1121699.14842  24286448.3824   24286446.2184
      -618.1624
   7569828.94947   5894220.97342  24767159.6794   24767159.3474
     -2987.4264
  -4746021.01249  -3694912.74646  21887127.2494   21887124.6474
       405.5024
  10943392.63349   8518870.62945  22441745.0154   22441741.7844
     -3415.1914
  -6503830.05548  -5058211.91044  23504207.4294   23504204.6204
      1703.5374
  -3262934.94148  -2534018.58644  23583462.2804   23583458.4444
      -600.1724
   1352206.12549   1050418.02346  21761042.2184   21761039.0504
      -754.5474
 04  9 14 22  7  0.0040000  0  7G10G 3G 8G13G28G19G27
  -1434747.76247  -1114360.28942  24288240.6134   24288238.2814
      -627.8814
   7614763.96946   5929235.28542  24775710.8404   24775710.3484
     -2995.6684
  -4752045.60249  -3699607.22746  21885980.6524   21885978.1174
       401.6394
  10994726.83649   8558871.28545  22451513.7934   22451510.7274
     -3422.2804
  -6529312.06648  -5078068.00044  23499357.8944   23499355.2584
      1698.8014
  -3253791.85248  -2526894.09444  23585201.6444   23585198.5514
      -609.5394
   1363576.00449   1059277.66046  21763205.8164   21763202.6994
      -757.9924
 04  9 14 22  7 15.0040000  0  7G10G 3G 8G13G28G19G27
  -1425187.86747  -1106911.01642  24290059.5514   24290057.7194
      -637.3264
   7659813.64846   5964338.91842  24784283.4184   24784282.5354
     -3003.3124
  -4758014.39549  -3704258.23046  21884844.7304   21884842.2664
       397.9204
  11046157.52749   8598947.12945  22461300.9734   22461297.3404
     -3428.7134
  -6554722.35548  -5097868.19944  23494522.7234   23494520.1334
      1694.0194
  -3244512.12148  -2519663.12944  23586968.0904   23586964.0164
      -618.6494
   1374993.15649   1068174.14546  21765378.1914   21765375.4694
      -761.1434
 04  9 14 22  7 30.0040000  0  7G10G 3G 8G13G28G19G27
  -1415485.27047  -1099350.54342  24291905.9104   24291904.0594
      -646.8404
   7704981.03147   5999534.24242  24792878.9414   24792878.2114
     -3011.1594
  -4763927.17249  -3708865.58646  21883719.4964   21883716.7074
       394.1854
  11097688.37149   8639101.00845  22471106.6214   22471103.1804
     -3435.3904
  -6580061.90248  -5117613.27344  23489700.8874   23489697.8094
      1689.3034
  -3235094.48848  -2512324.69144  23588760.3944   23588756.3404
      -627.8424
   1386458.93049   1077108.51646  21767559.9344   21767557.2854
      -764.3854
 04  9 14 22  7 45.0040000  0  7G10G 3G 8G13G28G19G27
  -1405638.63347  -1091677.83642  24293779.8094   24293777.6374
      -656.4424
   7750267.28547   6034822.21142  24801496.2154   24801495.7934
     -3019.0844
  -4769782.41049  -3713428.09846  21882605.2074   21882602.6804
       390.3494
  11149320.59449   8679333.89145  22480931.9184   22480928.8554
     -3442.1484
  -6605329.34849  -5137302.16044  23484892.6374   23484889.7934
      1684.4964
  -3225537.51647  -2504877.69944  23590578.8944   23590574.7814
      -637.1324
   1397974.73449   1086081.87946  21769751.2154   21769748.3914
      -767.7204
 04  9 14 22  8  0.0040000  0  7G10G 3G 8G13G28G19G27
  -1395648.40247  -1083893.25442  24295680.9414   24295678.8674
      -666.0154
   7795671.75847   6070202.31342  24810136.9344   24810135.1684
     -3026.9654
  -4775580.61749  -3717946.17646  21881502.1914   21881499.4924
       386.5474
  11201053.49649   8719645.21545  22490776.7624   22490773.5354
     -3448.8604
  -6630525.06648  -5156935.16044  23480098.0434   23480095.2694
      1679.7154
  -3215841.70748  -2497322.52044  23592423.6134   23592419.8984
      -646.3874
   1409540.14149   1095093.87946  21771952.2074   21771949.6334
      -771.0274
 04  9 14 22  8 15.0040000  0  7G10G 3G 8G13G28G19G27
  -1385513.02747  -1075995.55542  24297609.4804   24297607.8054
      -675.6924
   7841195.69946   6105675.51642  24818799.3324   24818798.2464
     -3034.9294
  -4781320.04349  -3722418.45346  21880409.7934   21880407.1604
       382.6284
  11252888.47749   8760036.09045  22500640.2934   22500637.4924
     -3455.6654
  -6655647.28948  -5176510.89844  23475316.9734   23475314.4224
      1674.8154
  -3206005.39847  -2489657.86744  23594295.1994   23594291.6374
      -655.7544
   1421156.81649   1104145.83646  21774162.7234   21774159.8244
      -774.4454
 04  9 14 22  8 30.0040000  0  7G10G 3G 8G13G28G19G27
  -1375234.78147  -1067986.52043  24299565.3874   24299563.7344
      -685.2164
   7886836.57447   6141239.81642  24827484.6134   24827483.5164
     -3042.7254
  -4787003.42649  -3726847.05546  21879328.2544   21879325.6294
       378.8924
  11304823.16049   8800504.65245  22510523.3324   22510520.3284
     -3462.3124
  -6680698.12548  -5196030.99644  23470550.3484   23470547.5594
      1670.0564
  -3196030.78547  -2481885.42644  23596193.6444   23596189.5864
      -664.9744
   1432822.42649   1113235.91846  21776382.5744   21776379.6024
      -777.7074
 04  9 14 22  8 45.0040000  0  7G10G 3G 8G13G28G19G27
  -1364812.77047  -1059865.48443  24301548.7304   24301546.8284
      -694.8014
   7932595.05146   6176895.75442  24836191.9804   24836191.5274
     -3050.5654
  -4792629.26649  -3731230.82046  21878257.8554   21878255.1334
       375.0564
  11356858.22349   8841051.43045  22520425.2774   22520422.2934
     -3469.0044
  -6705676.60249  -5215494.72344  23465797.1604   23465794.0824
      1665.2324
  -3185916.73447  -2474004.35544  23598118.4184   23598114.5274
      -674.2704
   1444538.05949   1122364.98046  21778612.0904   21778609.3754
      -781.0424
 04  9 14 22  9  0.0040000  0  7G10G 3G 8G13G28G19G27
  -1354246.47747  -1051632.00043  24303559.4804   24303557.5394
      -704.4204
   7978471.59846   6212643.67642  24844922.2464   24844921.4884
     -3058.4364
  -4798196.59049  -3735568.98846  21877198.2074   21877195.8674
       371.1554
  11408994.10249   8881676.77045  22530346.2464   22530343.0824
     -3475.7254
  -6730581.88749  -5234901.40644  23461057.6444   23461054.7464
      1660.3524
  -3175662.44548  -2466013.99244  23600069.4414   23600065.9304
      -683.6194
   1456304.45749   1131533.61346  21780851.0514   21780848.0394
      -784.4274
 04  9 14 22  9 15.0040000  0  7G10G 3G 8G13G28G19G27
  -1343536.50047  -1043286.56643  24305597.3404   24305595.5394
      -713.9984
   8024465.23847   6248482.87942  24853675.4024   24853673.5354
     -3066.2434
  -4803706.53149  -3739862.43746  21876149.6374   21876147.1644
       367.3294
  11461230.05149   8922380.09045  22540286.6604   22540283.3554
     -3482.3974
  -6755414.59848  -5254251.54344  23456332.1054   23456329.1994
      1655.5144
  -3165268.67648  -2457914.94944  23602047.2934   23602043.7154
      -692.9184
   1468120.94949   1140741.26646  21783099.6134   21783096.8634
      -787.7664
 04  9 14 22  9 30.0040000  0  7G10G 3G 8G13G28G19G27
  -1332682.63347  -1034828.99643  24307662.8794   24307660.8874
      -723.5914
   8070575.97747   6284413.32842  24862449.3944   24862448.0124
     -3074.0494
  -4809158.64549  -3744110.83246  21875112.1134   21875109.5164
       363.4744
  11513566.13749   8963161.43845  22550245.8554   22550242.8444
     -3489.0724
  -6780174.33649  -5273544.81644  23451620.5514   23451617.7114
      1650.6494
  -3154735.11748  -2449706.97744  23604052.2464   23604048.0624
      -702.2374
   1479987.77049   1149988.13746  21785357.6524   21785354.8364
      -791.1214
 04  9 14 22  9 45.0040000  0  7G10G 3G 8G13G28G19G27
  -1321683.57847  -1026258.30543  24309755.1994   24309753.9064
      -733.2704
   8116804.84047   6320435.80142  24871246.0594   24871245.4614
     -3081.9244
  -4814551.50849  -3748313.05546  21874086.0904   21874083.3284
       359.5244
  11566003.49649   9004021.69145  22560224.1604   22560221.2624
     -3495.8244
  -6804859.72349  -5292780.16044  23446923.1524   23446919.6604
      1645.6924
  -3144060.26248  -2441388.90644  23606083.4344   23606079.3444
      -711.6574
   1491906.39149   1159275.38346  21787625.8634   21787622.9144
      -794.5754
 04  9 14 22 10  0.0040000  0  7G10G 3G 8G13G28G19G27
  -1310540.49247  -1017575.37942  24311876.5044   24311874.1524
      -742.8724
   8163150.53547   6356549.31342  24880065.1994   24880064.5314
     -3089.7134
  -4819886.27749  -3752470.01246  21873070.8714   21873068.2934
       355.6514
  11618540.75449   9044959.78945  22570221.9884   22570218.8204
     -3502.4844
  -6829471.66448  -5311958.27344  23442239.4024   23442236.5354
      1640.7964
  -3133245.11748  -2432961.50844  23608141.7694   23608137.6414
      -721.0104
   1503875.82849   1168602.21546  21789903.6294   21789900.8284
      -797.9624
 04  9 14 22 10 15.0040000  0  7G10G 3G 8G13G28G19G27
  -1299251.97347  -1008779.13342  24314024.4654   24314022.1804
      -752.5684
   8209614.25447   6392754.80542  24888907.5354   24888906.6054
     -3097.5814
  -4825161.44149  -3756580.52046  21872066.9804   21872064.6334
       351.6784
  11671179.28949   9085976.81645  22580238.4574   22580235.6764
     -3509.2364
  -6854008.64548  -5331077.96144  23437570.2544   23437567.3794
      1635.7994
  -3122288.23848  -2424423.68444  23610226.5984   23610222.7504
      -730.4594
   1515897.53949   1177969.77746  21792191.2624   21792188.4694
      -801.4474
 04  9 14 22 10 30.0040000  0  7G10G 3G 8G13G28G19G27
  -1287819.62947   -999870.81642  24316200.1524   24316198.3984
      -762.1564
   8256194.20347   6429050.82842  24897771.9104   24897770.6684
     -3105.3304
  -4830378.37149  -3760645.66046  21871074.3794   21871071.6874
       347.7954
  11723917.19149   9127071.25845  22590274.1684   22590271.2894
     -3515.8604
  -6878472.17648  -5350140.43044  23432915.0984   23432912.3054
      1630.9024
  -3111191.06648  -2415776.53144  23612337.9104   23612333.8554
      -739.8114
   1527970.00849   1187376.89846  21794488.4414   21794485.8444
      -804.8314
 04  9 14 22 10 45.0040000  0  7G10G 3G 8G13G28G19G27
  -1276244.85946   -990851.52043  24318402.7074   24318400.5394
      -771.6514
   8302888.60946   6465436.05142  24906657.1684   24906656.2304
     -3112.9604
  -4835538.34849  -3764666.41046  21870092.5124   21870089.3284
       343.9984
  11776753.17249   9168242.13345  22600328.5194   22600325.7544
     -3522.3994
  -6902863.34048  -5369146.49644  23428273.1844   23428270.4024
      1626.0784
  -3099954.84448  -2407021.03544  23614476.2304   23614472.0624
      -749.0824
   1540091.96549   1196822.57846  21796795.3484   21796792.6254
      -808.1304
 04  9 14 22 11  0.0040000  0  7G10G 3G 8G13G28G19G27
  -1264526.35947   -981720.21143  24320632.9494   24320630.4884
      -781.2334
   8349698.71946   6501911.42242  24915564.7384   24915563.8054
     -3120.6744
  -4840639.90649  -3768641.64546  21869121.5354   21869118.8984
       340.1044
  11829688.21549   9209490.19545  22610402.1374   22610399.0394
     -3529.0034
  -6927180.77748  -5388095.12144  23423645.9884   23423642.9024
      1621.1624
  -3088578.13747  -2398156.06244  23616641.1374   23616637.1134
      -758.4474
   1552264.80148   1206307.90646  21799111.5044   21799108.8324
      -811.5224
 04  9 14 22 11 15.0040000  0  7G10G 3G 8G13G28G19G27
  -1252662.90648   -972475.96543  24322890.4414   24322888.0744
      -790.8974
   8396625.39546   6538477.65242  24924494.4804   24924493.8284
     -3128.4454
  -4845681.86749  -3772570.43446  21868161.9884   21868159.2584
       336.1314
  11882723.27049   9250816.19145  22620494.0744   22620491.0434
     -3535.6704
  -6951423.20748  -5406985.30544  23419032.8164   23419029.9924
      1616.1624
  -3077059.79747  -2389180.72744  23618833.5354   23618829.2034
      -767.8894
   1564489.77749   1215833.86346  21801437.9104   21801435.2384
      -814.9984
 04  9 14 22 11 30.0040000  0  7G10G 3G 8G13G28G19G27
  -1240656.96547   -963120.69143  24325175.0434   24325172.6134
      -800.3964
   8443666.01246   6575132.65242  24933445.4964   24933445.5434
     -3136.0414
  -4850666.42249  -3776454.50446  21867213.7304   21867211.0474
       332.3044
  11935855.78949   9292218.13345  22630604.8944   22630601.8054
     -3542.1684
  -6975592.78148  -5425818.71944  23414433.2624   23414430.2384
      1611.3054
  -3065402.02748  -2380096.76644  23621051.2694   23621047.4884
      -777.1854
   1576764.56349   1225398.62146  21803774.0744   21803770.9734
      -818.3194
 04  9 14 22 11 45.0040000  0  7G10G 3G 8G13G28G19G27
  -1228503.15647   -953650.18743  24327487.6914   24327485.5514
      -810.2544
   8490825.82046   6611880.52042  24942419.6684   24942420.2384
     -3143.9874
  -4855588.19149  -3780289.62946  21866277.0664   21866274.5664
       328.1184
  11989091.10949   9333700.18845  22640735.1134   22640732.5044
     -3549.0214
  -6999683.99248  -5444591.06244  23409849.0044   23409845.8944
      1606.0814
  -3053599.36748  -2370899.87144  23623297.8324   23623293.2464
      -786.8444
   1589094.62949   1235006.46546  21806119.9804   21806117.2584
      -822.0044
 04  9 14 22 12  0.0040000  0  7G10G 3G 8G13G28G19G27
  -1216205.15247   -944067.32043  24329827.5194   24329825.8674
      -819.8674
   8538100.74246   6648718.12542  24951416.2694   24951415.9534
     -3151.6614
  -4860450.98849  -3784078.81646  21865351.2774   21865349.1134
       324.1864
  12042425.34049   9375259.30145  22650884.4184   22650881.4024
     -3555.6154
  -7023700.47748  -5463305.17244  23405278.6374   23405275.2894
      1601.0994
  -3041655.44147  -2361592.89844  23625570.3484   23625565.6844
      -796.2624
   1601476.33649   1244654.55146  21808476.5824   21808473.5474
      -825.4474
 04  9 14 22 12 15.0040000  0  7G10G 3G 8G13G28G19G27
  -1203765.91047   -934374.41043  24332194.9024   24332192.7194
      -829.2834
   8585487.62146   6685642.93442  24960433.5194   24960433.1094
     -3159.1254
  -4865257.46149  -3787824.10946  21864437.0904   21864434.4414
       320.4324
  12095855.27349   9416892.99245  22661051.4414   22661048.7464
     -3561.9964
  -7047645.02348  -5481963.23844  23400722.4344   23400719.2344
      1596.3034
  -3029573.12147  -2352178.10944  23627870.1604   23627865.3094
      -805.4884
   1613906.93448   1254340.73046  21810841.9574   21810839.2854
      -828.7074
 04  9 14 22 12 30.0040000  0  7G10G 3G 8G13G28G19G27
  -1191182.87147   -924569.44143  24334588.9654   24334587.6994
      -838.8694
   8632988.87147   6722656.85942  24969473.1294   24969472.1334
     -3166.7504
  -4870004.77349  -3791523.30946  21863533.7544   21863530.8754
       316.4884
  12149383.47349   9458603.25445  22671237.7694   22671235.0044
     -3568.5474
  -7071514.79748  -5500563.03544  23396180.0824   23396176.7584
      1591.3184
  -3017349.65647  -2342653.32444  23630195.2624   23630191.1724
      -814.8984
   1626389.05148   1264067.05546  21813217.0514   21813214.3674
      -832.1414
 04  9 14 22 12 45.0040000  0  7G10G 3G 8G13G28G19G27
  -1178455.00048   -914651.60943  24337011.3874   24337009.2934
      -848.5254
   8680605.19946   6759760.46542  24978533.8484   24978533.1414
     -3174.4224
  -4874692.10949  -3795175.77046  21862641.5124   21862638.5554
       312.4894
  12203010.77049   9500390.73845  22681442.8404   22681439.8284
     -3575.1534
  -7095308.73848  -5519103.74644  23391652.0354   23391649.0784
      1586.2634
  -3004984.05547  -2333017.79744  23632548.4804   23632544.0824
      -824.3734
   1638923.74648   1273834.34846  21815602.4184   21815599.6174
      -835.6464
 04  9 14 22 13  0.0040000  0  7G10G 3G 8G13G28G19G27
  -1165580.95348   -904619.88743  24339461.3014   24339459.1414
      -858.2704
   8728337.93446   6796954.77342  24987617.1844   24987616.2974
     -3182.1824
  -4879317.84449  -3798780.22746  21861761.5514   21861758.7074
       308.3824
  12256738.30149   9542256.32445  22691666.7694   22691663.9374
     -3581.8354
  -7119025.38349  -5537584.21144  23387138.9654   23387135.4774
      1581.1104
  -2992474.80947  -2323270.31644  23634929.0664   23634924.5194
      -833.9504
   1651512.55148   1283643.80946  21817998.0904   21817995.3914
      -839.2544
 04  9 14 22 13 15.0040000  0  7G10G 3G 8G13G28G19G27
  -1152562.01647   -894475.24643  24341938.9344   24341936.7344
      -867.9294
   8776185.46546   6834238.56342  24996722.7074   24996721.3944
     -3189.8354
  -4883883.02749  -3802337.50446  21860892.6914   21860890.0194
       304.3464
  12310564.78149   9584199.01245  22701909.6374   22701906.9844
     -3588.4324
  -7142665.67649  -5556005.19144  23382640.1054   23382637.4144
      1576.0204
  -2979822.89847  -2313411.67244  23637337.2384   23637332.6294
      -843.4614
   1664154.34848   1293494.56346  21820403.6054   21820400.8984
      -842.7864
 04  9 14 22 13 30.0040000  0  7G10G 3G 8G13G28G19G27
  -1139401.21547   -884220.07443  24344443.1214   24344441.6444
      -877.3874
   8824144.63347   6871609.29742  25005849.2074   25005847.9264
     -3197.2784
  -4888390.63349  -3805849.91846  21860034.9264   21860032.3634
       300.5074
  12364486.91449   9626216.23445  22712170.6374   22712167.8444
     -3594.8094
  -7166232.62548  -5574369.01644  23378155.9184   23378152.4184
      1571.1304
  -2967031.37147  -2303444.24644  23639770.7384   23639766.8634
      -852.7684
   1676846.18448   1303384.30946  21822818.8484   21822816.3444
      -846.1224
 04  9 14 22 13 45.0040000  0  7G10G 3G 8G13G28G19G27
  -1126097.84047   -873853.80943  24346974.9574   24346972.8754
      -886.8924
   8872215.82047   6909067.36342  25014997.0124   25014995.2774
     -3204.7464
  -4892839.83249  -3809316.82046  21859188.3324   21859185.1954
       296.6134
  12418505.37149   9668308.51645  22722450.1684   22722446.8874
     -3601.2304
  -7189725.29748  -5592674.97344  23373685.0434   23373682.1414
      1566.1784
  -2954099.48047  -2293367.45744  23642231.8244   23642227.7074
      -862.1264
   1689588.91048   1313313.69546  21825244.0354   21825240.7304
      -849.5154
 04  9 14 22 14  0.0040000  0  7G10G 3G 8G13G28G19G27
  -1112650.43447   -863375.30543  24349533.8244   24349531.3284
      -896.4944
   8920400.21547   6946613.63342  25024166.2774   25024165.0704
     -3212.2934
  -4897229.14549  -3812737.05546  21858353.1134   21858350.2504
       292.6214
  12472621.43849   9710476.85545  22732748.1134   22732745.0124
     -3607.7384
  -7213142.00849  -5610921.73044  23369229.3874   23369226.1484
      1561.1144
  -2941025.60947  -2283180.01644  23644719.7074   23644715.3164
      -871.5914
   1702384.09448   1323283.97746  21827678.5354   21827675.6604
      -853.0124
 04  9 14 22 14 15.0040000  0  7G10G 3G 8G13G28G19G27
  -1099058.55947   -852784.22743  24352119.8404   24352118.3524
      -906.1254
   8968698.31647   6984248.50042  25033356.6054   25033356.0944
     -3219.8734
  -4901558.09449  -3816110.25046  21857529.4414   21857526.7974
       288.5974
  12526835.52349   9752721.58245  22743064.9804   22743061.7934
     -3614.2724
  -7236482.09449  -5629108.78144  23364788.0354   23364784.8984
      1556.0064
  -2927809.06247  -2272881.40244  23647234.7544   23647230.2544
      -881.1034
   1715232.26649   1333295.53546  21830123.5594   21830120.5274
      -856.5454
 04  9 14 22 14 30.0040000  0  7G10G 3G 8G13G28G19G27
  -1085322.75047   -842081.00043  24354733.7934   24354732.1684
      -915.7214
   9017109.21947   7021971.28942  25042569.2544   25042568.0704
     -3227.3934
  -4905826.75849  -3819436.48046  21856716.8094   21856713.9534
       284.5784
  12581146.96549   9795042.16045  22753399.9024   22753396.7464
     -3620.7634
  -7259745.91849  -5647236.41044  23360360.5904   23360357.4774
      1550.9224
  -2914450.28948  -2262471.94544  23649776.3484   23649772.4614
      -890.5854
   1728133.17249   1343348.18846  21832578.5594   21832575.5394
      -860.0604
 04  9 14 22 14 45.0040000  0  7G10G 3G 8G13G28G19G27
  -1071445.14547   -831267.28143  24357374.4884   24357372.8944
      -925.1744
   9065630.67646   7059780.18442  25051801.9414   25051801.3244
     -3234.7644
  -4910037.30149  -3822717.41046  21855915.6214   21855913.0624
       280.7034
  12635553.41049   9837436.77745  22763753.1524   22763750.3714
     -3627.0964
  -7282935.53549  -5665306.21544  23355947.9264   23355944.3674
      1545.9744
  -2900951.28948  -2251953.25044  23652345.3244   23652341.1644
      -899.9334
   1741084.71549   1353440.29746  21835043.2694   21835040.2814
      -863.4364
 04  9 14 22 15  0.0040000  0  7G10G 3G 8G13G28G19G27
  -1057423.41846   -820341.26243  24360043.1134   24360041.3554
      -934.7824
   9114264.62146   7097676.78942  25061056.5824   25061056.2464
     -3242.2634
  -4914187.18049  -3825951.07446  21855125.9344   21855123.2234
       276.6594
  12690056.98449   9879907.07045  22774124.8094   22774121.8594
     -3633.5724
  -7306048.45349  -5683316.25444  23351549.4494   23351546.3754
      1540.8614
  -2887309.68447  -2241323.41844  23654941.4184   23654937.2114
      -909.4404
   1754089.30549   1363573.74246  21837517.8554   21837514.6764
      -866.9734
 04  9 14 22 15 15.0040000  0  7G10G 3G 8G13G28G19G27
  -1043256.18047   -809301.85943  24362738.9104   24362737.0354
      -944.4834
   9163012.36347   7135662.00042  25070333.5514   25070332.5124
     -3249.8494
  -4918274.97749  -3829136.36346  21854348.1294   21854345.4454
       272.5204
  12744658.87549   9922453.97345  22784515.1684   22784512.6684
     -3640.1264
  -7329083.19549  -5701265.37944  23347166.0984   23347162.8754
      1535.6494
  -2873524.07447  -2230581.37944  23657564.2304   23657560.3674
      -919.0414
   1767148.49248   1373749.73046  21840002.9104   21839999.9734
      -870.6124
 04  9 14 22 15 30.0040000  0  7G10G 3G 8G13G28G19G27
  -1028944.35247   -798149.77743  24365462.3634   24365460.2504
      -954.1224
   9211872.66847   7173734.94942  25079631.1374   25079630.1844
     -3257.3544
  -4922301.55149  -3832273.94946  21853582.0594   21853579.1484
       268.4384
  12799358.18449   9965076.78545  22794924.3554   22794921.1334
     -3646.6214
  -7352040.42648  -5719154.10244  23342797.2934   23342794.1644
      1530.4824
  -2859595.17248  -2219727.69144  23660215.0124   23660210.9104
      -928.5934
   1780261.46549   1383967.62946  21842498.3164   21842495.0434
      -874.1984
 04  9 14 22 15 45.0040000  0  7G10G 3G 8G13G28G19G27
  -1014489.05148   -786885.91043  24368213.4104   24368211.1564
      -963.6874
   9260844.33246   7211894.65642  25088949.8324   25088949.2854
     -3264.7784
  -4926267.64849  -3835364.40646  21852827.2384   21852824.3674
       264.4074
  12854153.60549  10007774.49245  22805351.1684   22805348.6874
     -3653.0284
  -7374921.03549  -5736983.12144  23338443.4264   23338439.9774
      1525.3744
  -2845523.94948  -2208763.09444  23662892.7694   23662889.0664
      -938.0824
   1793427.21949   1394226.66446  21845003.6214   21845000.5704
      -877.7174
 04  9 14 22 16  0.0040000  0  7G10G 3G 8G13G28G19G27
   -999890.69548   -775510.55943  24370991.4414   24370988.8554
      -973.2244
   9309926.64847   7250140.58642  25098290.4414   25098289.9964
     -3272.1544
  -4930173.59049  -3838407.98846  21852083.7694   21852080.7544
       260.3964
  12909044.70348  10050546.75445  22815796.8014   22815793.8364
     -3659.4074
  -7397725.31649  -5754752.66444  23334103.4654   23334100.6414
      1520.2854
  -2831310.69548  -2197687.81244  23665597.5664   23665593.0084
      -947.5504
   1806645.48049   1404526.60546  21847518.9344   21847516.0984
      -881.2174
 04  9 14 22 16 15.0040000  0  7G10G 3G 8G13G28G19G27
   -985149.03948   -764023.54743  24373796.2694   24373794.3674
      -982.7774
   9359119.73047   7288472.82042  25107651.2774   25107650.9734
     -3279.5394
  -4934019.33649  -3841404.67246  21851352.1764   21851349.1094
       256.3834
  12964031.44949  10093393.54745  22826260.1134   22826257.5434
     -3665.7834
  -7420452.92648  -5772462.46144  23329778.9344   23329775.5394
      1515.1744
  -2816955.16448  -2186501.68444  23668329.1764   23668324.7074
      -957.0354
   1819916.69949   1414867.81346  21850044.4414   21850041.2664
      -884.7484
 04  9 14 22 16 30.0040000  0  7G10G 3G 8G13G28G19G27
   -970263.39147   -752424.34043  24376629.0594   24376626.5904
      -992.3774
   9408424.00847   7326891.72742  25117033.3874   25117033.3524
     -3286.9524
  -4937803.71949  -3844353.53146  21850631.8094   21850628.9454
       252.2924
  13019114.41449  10136315.30945  22836742.7544   22836739.3634
     -3672.1984
  -7443102.95349  -5790111.80544  23325469.0594   23325465.8674
      1510.0024
  -2802456.46948  -2175204.00044  23671087.9654   23671083.9804
      -966.5804
   1833241.72349   1425250.94946  21852580.0984   21852577.0744
      -888.3354
 04  9 14 22 16 45.0040000  0  7G10G 3G 8G13G28G19G27
   -955234.12547   -740713.22343  24379489.2074   24379487.2814
     -1001.9514
   9457838.98447   7365396.88742  25126437.4964   25126436.9494
     -3294.3324
  -4941527.02049  -3847254.79346  21849922.9574   21849920.5594
       248.2204
  13074293.15249  10179311.70745  22847242.4654   22847239.6054
     -3678.5834
  -7465675.50849  -5807700.78544  23321173.2854   23321170.1564
      1504.8374
  -2787814.99248  -2163795.04744  23673874.5274   23673870.4804
      -976.0984
   1846620.28549   1435675.80946  21855125.4574   21855122.5194
      -891.9044
 04  9 14 22 17  0.0040000  0  7G10G 3G 8G13G28G19G27
   -940059.55548   -728888.88343  24382376.5354   24382374.2974
     -1011.6384
   9507365.95347   7403989.28942  25135861.7694   25135861.4304
     -3301.7984
  -4945187.36749  -3850107.00046  21849226.7694   21849223.8754
       244.0234
  13129569.14149  10222383.88745  22857761.1214   22857758.3284
     -3685.0664
  -7488168.83249  -5825228.02344  23316892.8634   23316889.8054
      1499.5554
  -2773028.83248  -2152273.36344  23676687.8714   23676684.2464
      -985.7444
   1860054.01649   1446143.64546  21857681.9964   21857679.4734
      -895.5824
 04  9 14 22 17 15.0040000  0  7G10G 3G 8G13G28G19G27
   -924741.85548   -716953.00843  24385291.3714   24385289.6374
     -1021.1804
   9557002.55147   7442667.15642  25145307.3714   25145306.8554
     -3309.1074
  -4948787.07449  -3852911.96546  21848541.5274   21848539.0434
       239.9804
  13184940.12549  10265530.08645  22868297.6914   22868295.0434
     -3691.3994
  -7510584.99649  -5842695.13744  23312627.2694   23312623.9804
      1494.4114
  -2758099.99248  -2140640.48844  23679529.0744   23679524.9414
      -995.2564
   1873541.05949   1456653.03946  21860248.5984   21860245.7034
      -899.1364
 04  9 14 22 17 30.0040000  0  7G10G 3G 8G13G28G19G27
   -909282.46948   -704906.73043  24388233.3244   24388230.9414
     -1030.6264
   9606747.10247   7481429.13342  25154773.4184   25154773.0944
     -3316.3034
  -4952327.05149  -3855670.37946  21847867.7464   21847865.3244
       235.9984
  13240404.42249  10308748.98845  22878852.5594   22878849.6844
     -3697.6204
  -7532925.18449  -5860103.04344  23308375.8484   23308372.7034
      1489.3464
  -2743030.01248  -2128897.65244  23682396.8404   23682392.6604
     -1004.6654
   1887079.99649   1467202.85246  21862825.0274   21862822.1994
      -902.5964
 04  9 14 22 17 45.0040000  0  7G10G 3G 8G13G28G19G27
   -893680.74647   -692749.53142  24391202.1054   24391199.8944
     -1040.1154
   9656600.32047   7520275.77042  25164260.7304   25164259.7624
     -3323.5484
  -4955806.71149  -3858381.80146  21847205.7234   21847203.2814
       231.9774
  13295962.83648  10352041.24245  22889425.3714   22889422.0194
     -3703.8944
  -7555188.46549  -5877451.03144  23304139.4964   23304136.2894
      1484.2194
  -2727817.95348  -2117044.09044  23685291.6444   23685287.8914
     -1014.1374
   1900671.92249   1477793.96546  21865411.3244   21865408.6334
      -906.1284
 04  9 14 22 18  0.0040000  0  7G10G 3G 8G13G28G19G27
   -877933.97348   -680479.32443  24394198.8324   24394196.2734
     -1049.7854
   9706564.58247   7559208.93842  25173768.5664   25173767.1484
     -3330.9514
  -4959223.01649  -3861043.84846  21846555.9884   21846553.0514
       227.7544
  13351617.81348  10395408.72745  22900015.8484   22900013.0434
     -3710.3324
  -7577372.02348  -5894736.88744  23299917.6444   23299914.5944
      1478.9044
  -2712461.03148  -2105077.65244  23688213.8714   23688210.0664
     -1023.7954
   1914319.42249   1488428.38746  21868008.5594   21868005.8754
      -909.8334
 04  9 14 22 18 15.0040000  0  7G10G 3G 8G13G28G19G27
   -862043.54748   -668097.17643  24397222.5664   24397220.0084
     -1059.3624
   9756638.32047   7598227.41042  25183297.0744   25183295.6294
     -3338.2494
  -4962577.55549  -3863657.76646  21845917.7074   21845914.6524
       223.6364
  13407367.73849  10438850.20745  22910624.8094   22910622.0004
     -3716.6624
  -7599477.12548  -5911961.62144  23295711.5044   23295708.6174
      1473.6734
  -2696960.50048  -2092999.30944  23691163.3714   23691159.3054
     -1033.3694
   1928021.39849   1499105.24646  21870616.2774   21870613.4264
      -913.4654
 04  9 14 22 18 30.0040000  0  7G10G 3G 8G13G28G19G27
   -846011.34448   -655604.53942  24400273.2304   24400271.0004
     -1068.8144
   9806819.47747   7637329.59842  25192845.9574   25192845.0084
     -3345.4104
  -4965871.70749  -3866224.63347  21845290.7074   21845287.7774
       219.6104
  13463210.71548  10482364.19145  22921251.3324   22921248.6564
     -3722.8654
  -7621505.27349  -5929126.38344  23291519.6844   23291516.7274
      1468.5434
  -2681317.98448  -2080810.32844  23694139.8554   23694136.2774
     -1042.8344
   1941776.16849   1509823.25046  21873233.3324   21873230.5084
      -916.9854
 04  9 14 22 18 45.0040000  0  7G10G 3G 8G13G28G19G27
   -829836.14847   -643000.49643  24403351.3094   24403349.1764
     -1078.3464
   9857109.03147   7676516.24642  25202415.6294   25202415.0004
     -3352.6374
  -4969104.24249  -3868743.48047  21844675.6604   21844672.9304
       215.5024
  13519147.90648  10525951.59045  22931895.7464   22931893.4024
     -3729.1464
  -7643455.27349  -5946230.25444  23287342.7304   23287339.5084
      1463.3334
  -2665532.41448  -2068509.89144  23697144.2074   23697139.9454
     -1052.3714
   1955584.99249   1520583.37946  21875860.9184   21875858.3404
      -920.5884
 04  9 14 22 19  0.0040000  0  7G10G 3G 8G13G28G19G27
   -813519.55547   -630286.27343  24406456.4184   24406453.9224
     -1087.7734
   9907505.26246   7715786.00842  25212006.1764   25212005.0594
     -3359.7494
  -4972276.45749  -3871215.32846  21844071.9024   21844069.1644
       211.4814
  13575177.50448  10569610.99245  22942558.1914   22942554.8204
     -3735.3074
  -7665328.42649  -5963274.24644  23283180.5594   23283177.3164
      1458.2104
  -2649605.21548  -2056099.07444  23700175.2234   23700171.0744
     -1061.8134
   1969446.54749   1531384.59046  21878498.9494   21878496.3124
      -924.1044
 04  9 14 22 19 15.0040000  0  7G10G 3G 8G13G28G19G27
   -797060.37947   -617460.94143  24409588.3944   24409585.6484
     -1097.2784
   9958009.00046   7755139.57442  25221615.6684   25221615.8244
     -3366.9164
  -4975387.25849  -3873639.32046  21843479.7384   21843476.9924
       207.3874
  13631300.49648  10613343.17245  22953237.8714   22953234.6994
     -3741.5334
  -7687123.42249  -5980257.33244  23279033.0664   23279029.5944
      1453.0004
  -2633535.08648  -2043576.87944  23703232.9024   23703228.5744
     -1071.3424
   1983361.97749   1542227.78546  21881147.0044   21881144.3014
      -927.6954
 04  9 14 22 19 30.0040000  0  7G10G 3G 8G13G28G19G27
   -780457.62547   -604523.73043  24412748.1374   24412745.2304
     -1106.8504
  10008621.11346   7794577.54741  25231246.6524   25231246.4264
     -3374.1414
  -4978435.13749  -3876014.28146  21842899.8794   21842896.9224
       203.1924
  13687517.82848  10657148.85545  22963935.7854   22963932.6764
     -3747.8224
  -7708839.09849  -5997178.62144  23274900.5194   23274897.4104
      1447.7124
  -2617320.89548  -2030942.44144  23706318.4104   23706313.8714
     -1080.9464
   1997332.58649   1553113.97746  21883805.2544   21883802.4264
      -931.3744
 04  9 14 22 19 45.0040000  0  7G10G 3G 8G13G28G19G27
   -763712.75847   -591475.77743  24415934.3324   24415932.2344
     -1116.3244
  10059339.90646   7834098.65241  25240898.3554   25240897.8444
     -3381.2534
  -4981421.63349  -3878341.41047  21842331.7304   21842328.6604
       199.1004
  13743827.76249  10701026.71145  22974651.0274   22974648.2894
     -3753.9964
  -7730476.69149  -6014039.05544  23270782.9654   23270779.9844
      1442.5064
  -2600963.96148  -2018196.77044  23709430.9104   23709426.6564
     -1090.4624
   2011356.93049   1564042.03546  21886473.8484   21886471.2234
      -934.9564
 04  9 14 22 20  0.0040000  0  7G10G 3G 8G13G28G19G27
   -746827.78147   -578318.64843  24419146.8794   24419145.3284
     -1125.6654
  10110163.10546   7873701.16841  25250569.9804   25250569.1954
     -3388.2134
  -4984348.65649  -3880622.20746  21841774.5194   21841771.9534
       195.1354
  13800228.34848  10744975.18844  22985383.5594   22985380.8014
     -3760.0394
  -7752038.08249  -6030840.11744  23266679.9574   23266676.6294
      1437.4264
  -2584466.21147  -2005341.36344  23712570.1374   23712566.3054
     -1099.8504
   2025433.30949   1575010.64546  21889153.1214   21889150.0004
      -938.4254
 04  9 14 22 20 15.0040000  0  7G10G 3G 8G13G28G19G27
   -729800.52747   -565050.65243  24422387.4884   24422385.5824
     -1135.1504
  10161092.84846   7913386.68041  25260261.6684   25260261.1684
     -3395.3164
  -4987213.81649  -3882854.79346  21841229.1524   21841226.7464
       191.0114
  13856721.55148  10788995.84444  22996134.0514   22996131.1294
     -3766.2144
  -7773520.92249  -6047579.96144  23262591.9414   23262588.7544
      1432.1894
  -2567825.39148  -1992374.49644  23715736.6914   23715732.6644
     -1109.3884
   2039563.96949   1586021.55546  21891841.7074   21891838.8484
      -942.0444
 04  9 14 22 20 30.0040000  0  7G10G 3G 8G13G28G19G27
   -712629.87147   -551670.93743  24425654.8094   24425653.5004
     -1144.7104
  10212129.98446   7953155.84841  25269973.8164   25269972.5944
     -3402.4764
  -4990015.81249  -3885038.16446  21840696.1604   21840693.3364
       186.8004
  13913308.38348  10833089.45744  23006902.3714   23006898.7274
     -3772.4554
  -7794923.88749  -6064257.57844  23258519.2694   23258515.7894
      1426.8644
  -2551040.30148  -1979295.19544  23718931.1214   23718927.0234
     -1119.0064
   2053750.11749   1597075.69546  21894541.1214   21894538.1804
      -945.7434
 04  9 14 22 20 45.0040000  0  7G10G 3G 8G13G28G19G27
   -695317.42648   -538180.71543  24428949.6134   24428947.9224
     -1154.1634
  10263272.74645   7993007.32041  25279705.4574   25279705.4414
     -3409.5174
  -4992756.00849  -3887173.36746  21840174.7854   21840172.1764
       182.6804
  13969987.10548  10877254.67245  23017687.9734   23017684.9924
     -3778.5824
  -7816248.32049  -6080873.99644  23254460.9574   23254458.0314
      1421.6294
  -2534112.36748  -1966104.59044  23722152.4104   23722148.2424
     -1128.5294
   2067990.43049   1608172.04746  21897250.9494   21897248.0594
      -949.3544
 04  9 14 22 21  0.0040000  0  7G10G 3G 8G13G28G19G27
   -677863.05548   -524579.90643  24432271.3794   24432269.2584
     -1163.6254
  10314521.18845   8032941.14841  25289457.6134   25289457.8914
     -3416.5634
  -4995434.16849  -3889260.23446  21839665.2934   21839662.3984
       178.5444
  14026757.82848  10921491.57845  23028490.9654   23028488.5514
     -3784.7154
  -7837493.90649  -6097428.96545  23250418.2304   23250415.0594
      1416.3724
  -2517041.37948  -1952802.52044  23725400.8714   23725396.2854
     -1138.0664
   2082285.30949   1619310.91846  21899971.2234   21899968.6094
      -952.9924
 04  9 14 22 21 15.0040000  0  6G10G 8G13G28G19G27
   -660266.28947   -510868.14543  24435619.4574   24435617.3914
     -1173.1184
  -4998049.68749  -3891298.30546  21839167.3244   21839164.3634
       174.3684
  14083620.84849  10965800.40245  23039311.4734   23039308.5944
     -3790.8684
  -7858659.99649  -6113922.00044  23246390.3164   23246387.3634
      1411.0734
  -2499826.68748  -1939388.46544  23728676.0904   23728672.5624
     -1147.6464
   2096635.34049   1630492.75846  21902702.2624   21902699.1294
      -956.6694
 04  9 14 22 21 30.0040000  0  6G10G 8G13G28G19G27
   -642526.66047   -497045.05543  24438995.0514   24438993.2234
     -1182.6424
  -5000601.83649  -3893286.98446  21838681.9494   21838678.7344
       170.1434
  14140576.51248  11010181.42245  23050149.9734   23050147.2504
     -3797.0444
  -7879745.93049  -6130352.56244  23242377.7384   23242374.8714
      1405.7294
  -2482467.57048  -1925861.88744  23731980.0514   23731975.8524
     -1157.2744
   2111040.99649   1641717.94946  21905443.2624   21905440.6724
      -960.3774
 04  9 14 22 21 45.0040000  0  6G10G 8G13G28G19G27
   -624647.32047   -483113.10943  24442397.5824   24442395.5824
     -1191.9564
  -5003093.50849  -3895228.53546  21838207.2774   21838204.5164
       166.1114
  14197621.77748  11054632.25445  23061005.3714   23061002.3714
     -3803.0184
  -7900754.58249  -6146722.92244  23238379.7934   23238376.9804
      1400.5774
  -2464967.17248  -1912225.19944  23735310.0594   23735305.6374
     -1166.6934
   2125499.64549   1652984.43446  21908194.7694   21908192.3014
      -963.9104
 04  9 14 22 22  0.0040000  0  6G10G 8G13G28G19G27
   -606626.05547   -469070.56243  24445826.9344   24445825.0744
     -1201.4184
  -5005522.36349  -3897121.14146  21837745.3324   21837742.3124
       161.9244
  14254758.52748  11099154.37144  23071878.1214   23071875.5944
     -3809.1174
  -7921683.60549  -6163031.22745  23234397.5124   23234394.4414
      1395.2684
  -2447323.21947  -1898476.64844  23738667.8094   23738663.5944
     -1176.2644
   2140013.41849   1664293.86346  21910956.7464   21910954.0664
      -967.5854
 04  9 14 22 22 15.0040000  0  6G10G 8G13G28G19G27
   -588461.27747   -454916.19143  24449283.8794   24449281.5314
     -1210.9854
  -5007886.66049  -3898963.44546  21837295.3244   21837292.4374
       157.6204
  14311988.14848  11143748.85944  23082768.6684   23082766.2274
     -3815.3084
  -7942531.31249  -6179276.17245  23230430.3794   23230427.0394
      1389.8474
  -2429534.05548  -1884614.95744  23742052.9414   23742049.1914
     -1185.9444
   2154584.03549   1675647.59446  21913729.3324   21913726.5194
      -971.3744
 04  9 14 22 22 30.0040000  0  6G10G 8G13G28G19G27
   -570152.85548   -440649.88743  24452767.2074   24452766.0044
     -1220.5614
  -5010185.93749  -3900755.08646  21836857.9884   21836855.1764
       153.2854
  14369310.89549  11188415.91044  23093676.6764   23093674.1564
     -3821.5164
  -7963297.14549  -6195457.31245  23226478.6684   23226475.3794
      1384.3894
  -2411599.32848  -1870639.84044  23745465.9024   23745461.7694
     -1195.6484
   2169212.02349   1687046.03946  21916512.9184   21916510.2304
      -975.1994
 04  9 14 22 22 45.0040000  0  6G10G 8G13G28G19G27
   -551702.07447   -426272.66043  24456278.7464   24456276.7694
     -1230.0524
  -5012421.40649  -3902497.00046  21836432.1994   21836429.4694
       149.0314
  14426725.27048  11233154.35945  23104602.3634   23104599.6024
     -3827.6254
  -7983982.34849  -6211575.62545  23222542.3484   23222538.9964
      1379.0144
  -2393520.24248  -1856552.22744  23748906.4654   23748902.3674
     -1205.2724
   2183896.26649   1698488.30546  21919307.3634   21919304.4654
      -978.9494
 04  9 14 22 23  0.0040000  0  6G10G 8G13G28G19G27
   -533109.66047   -411785.08243  24459816.8634   24459815.0044
     -1239.4944
  -5014593.63349  -3904189.63746  21836019.2074   21836016.0624
       144.8154
  14484230.44548  11277963.56344  23115545.3714   23115542.8874
     -3833.6784
  -8004587.50849  -6227631.57445  23218621.5124   23218617.9304
      1373.6774
  -2375297.45348  -1842352.65244  23752373.7694   23752369.6914
     -1214.8534
   2198636.03549   1709973.84446  21922112.2854   21922109.3594
      -982.6514
 04  9 14 22 23 15.0040000  0  6G10G 8G13G28G19G27
   -514377.40247   -397188.51643  24463381.3244   24463379.2934
     -1248.8174
  -5016704.18449  -3905834.21146  21835617.2154   21835614.4344
       140.7034
  14541824.55148  11322842.06645  23126505.0664   23126502.2734
     -3839.6074
  -8025114.07849  -6243626.28545  23214715.4184   23214711.7274
      1368.4384
  -2356932.73848  -1828042.47344  23755868.3484   23755864.5434
     -1224.3144
   2213429.83649   1721501.47746  21924927.2464   21924924.4414
      -986.2534
 04  9 14 22 23 30.0040000  0  6G10G 8G13G28G19G27
   -495501.89147   -382480.30943  24466973.3014   24466971.3484
     -1258.3674
  -5018749.21149  -3907427.73447  21835228.5514   21835225.3524
       136.3354
  14599510.84848  11367792.41044  23137482.3244   23137479.5594
     -3845.7534
  -8045558.48049  -6259556.94945  23210824.8244   23210821.3164
      1362.9604
  -2338422.37148  -1813618.81244  23759390.7074   23759386.6134
     -1234.0244
   2228281.26649   1733074.02346  21927753.5354   21927750.3054
      -990.0954
 04  9 14 22 23 45.0040000  0  6G10G 8G13G28G19G27
   -476484.82448   -367661.82843  24470592.0044   24470590.1174
     -1267.8044
  -5020730.68049  -3908971.73046  21834851.1374   21834848.2934
       132.0984
  14657287.53949  11412813.18044  23148476.9264   23148474.2814
     -3851.7794
  -8065922.28949  -6275424.84045  23206949.6214   23206946.1214
      1357.5874
  -2319768.05548  -1799082.98844  23762940.6844   23762936.4694
     -1243.6214
   2243188.80149   1744690.28946  21930590.5904   21930587.5904
      -993.8364
 04  9 14 22 24  0.0040000  0  6G10G 8G13G28G19G27
   -457328.10248   -352734.52043  24474237.5124   24474235.3874
     -1277.1154
  -5022650.14149  -3910467.40646  21834486.0194   21834483.1024
       127.9644
  14715152.56349  11457902.78544  23159488.4184   23159485.6804
     -3857.6684
  -8086207.11349  -6291231.17644  23203089.4734   23203086.3594
      1352.3224
  -2300971.51648  -1784436.31244  23766517.4964   23766513.5124
     -1253.1034
   2258150.80549   1756348.99646  21933437.3164   21933434.3754
      -997.4674
 04  9 14 22 24 15.0040000  0  6G10G 8G13G28G19G27
   -438031.34448   -337698.08243  24477909.1684   24477907.5044
     -1286.4514
  -5024507.08249  -3911914.36746  21834132.6764   21834129.8754
       123.7964
  14773106.20348  11503061.44544  23170516.2774   23170513.9104
     -3863.5764
  -8106412.33249  -6306975.47745  23199244.5194   23199241.0664
      1347.0154
  -2282032.29348  -1769678.46944  23770121.6214   23770117.6214
     -1262.6154
   2273167.75049   1768050.52046  21936295.0274   21936291.9224
     -1001.1304
 04  9 14 22 24 30.0040000  0  6G10G 8G13G28G19G27
   -418595.35248   -322553.16043  24481607.6524   24481605.6334
     -1295.7334
  -5026301.88749  -3913312.90646  21833791.1684   21833788.1684
       119.6544
  14831147.65648  11548288.53544  23181561.4804   23181558.7664
     -3869.4304
  -8126538.62149  -6322658.27045  23195415.0824   23195411.1914
      1341.7534
  -2262951.03948  -1754809.95744  23773752.5354   23773748.2854
     -1272.0844
   2288239.05549   1779794.39546  21939162.9414   21939160.0164
     -1004.7544
 04  9 14 22 24 45.0040000  0  6G10G 8G13G28G19G27
   -399018.03947   -307298.10243  24485333.4344   24485330.8984
     -1305.1544
  -5028032.42249  -3914661.37146  21833461.6844   21833458.6604
       115.3694
  14889278.81649  11593585.50444  23192623.3634   23192620.9804
     -3875.4114
  -8146583.73049  -6338277.80945  23191600.0354   23191596.9454
      1336.3414
  -2243725.62148  -1739829.10944  23777411.2234   23777407.0944
     -1281.6954
   2303366.93449   1791582.35246  21942041.5904   21942038.8524
     -1008.5254
 04  9 14 22 25  0.0040000  0  6G10G 8G13G28G19G27
   -379301.09847   -291934.25843  24489085.2304   24489083.0664
     -1314.4634
  -5029700.24649  -3915960.96946  21833144.4024   21833141.5084
       111.1884
  14947497.79348  11638950.92244  23203702.3014   23203699.6214
     -3881.2654
  -8166549.23449  -6353835.32045  23187800.8404   23187797.8634
      1331.0344
  -2224357.63748  -1724737.17244  23781096.7154   23781092.4924
     -1291.1994
   2318549.85549   1803413.20346  21944931.0354   21944928.0044
     -1012.1954
 04  9 14 22 25 15.0040000  0  6G10G 8G13G28G19G27
   -359443.91447   -276461.13343  24492864.3014   24492861.8014
     -1323.8124
  -5031304.49249  -3917211.02046  21832838.9804   21832836.4654
       106.9504
  15005805.20748  11684385.25044  23214797.9024   23214795.2274
     -3887.1614
  -8186434.19149  -6369330.07045  23184016.9804   23184013.5944
      1325.6644
  -2204846.39548  -1709533.59844  23784809.6444   23784805.5274
     -1300.7494
   2333788.82049   1815287.71946  21947830.8554   21947828.0194
     -1015.9314
 04  9 14 22 25 30.0040000  0  6G10G 8G13G28G19G27
   -339446.58647   -260878.79343  24496669.3874   24496667.2194
     -1333.1554
  -5032845.18049  -3918411.55547  21832545.7854   21832542.8874
       102.7134
  15064200.86748  11729888.32844  23225910.0824   23225907.6844
     -3893.0444
  -8206238.60549  -6384762.05945  23180247.9654   23180244.8754
      1320.2944
  -2185191.86348  -1694218.37544  23788549.9964   23788545.4844
     -1310.3024
   2349083.78949   1827205.88346  21950741.2854   21950738.3284
     -1019.6654
 04  9 14 22 25 45.0040000  0  6G10G 8G13G28G19G27
   -319310.60547   -245188.41843  24500501.2074   24500498.5274
     -1342.3994
  -5034323.14149  -3919563.20346  21832264.7694   21832261.7694
        98.5314
  15122683.12948  11775458.89544  23237038.8794   23237036.3834
     -3898.8174
  -8225963.48849  -6400132.07445  23176494.5124   23176491.4224
      1314.9924
  -2165395.23448  -1678792.43444  23792316.7854   23792312.5664
     -1319.7754
   2364433.60549   1839166.77746  21953662.4804   21953659.5234
     -1023.3214
 04  9 14 22 26  0.0040000  0  6G10G 8G13G28G19G27
   -299036.58248   -229390.48843  24504359.0274   24504356.8284
     -1351.6024
  -5035739.01649  -3920666.46946  21831995.0664   21831992.3014
        94.3924
  15181251.35248  11821096.44944  23248184.3944   23248181.2624
     -3904.5484
  -8245609.40649  -6415440.55545  23172756.2384   23172752.7974
      1309.7284
  -2145457.16048  -1663256.26244  23796110.5824   23796106.5904
     -1329.2054
   2379837.76649   1851170.02046  21956594.2624   21956590.8094
     -1026.9444
 04  9 14 22 26 15.0040000  0  6G10G 8G13G28G19G27
   -278622.55547   -213483.46142  24508243.6764   24508241.7304
     -1360.9354
  -5037090.50049  -3921719.57446  21831738.2694   21831734.8714
        90.0994
  15239907.58249  11866802.57444  23259345.9964   23259343.2774
     -3910.4154
  -8265174.10249  -6430685.75445  23169032.9264   23169029.9184
      1304.3134
  -2125375.28548  -1647608.04744  23799932.7234   23799927.6914
     -1338.7924
   2395298.65249   1863217.47346  21959535.6444   21959532.9344
     -1030.7264
 04  9 14 22 26 30.0040000  0  6G10G 8G13G28G19G27
   -258069.77347   -197468.30943  24512154.6214   24512152.5394
     -1370.1854
  -5038379.03149  -3922723.61347  21831492.5984   21831490.0744
        85.9024
  15298650.27749  11912576.08244  23270524.5124   23270521.8054
     -3916.1804
  -8284658.65649  -6445868.49645  23165325.2854   23165321.8054
      1298.9704
  -2105150.98848  -1631848.85944  23803781.0274   23803776.3054
     -1348.2864
   2410815.00449   1875308.13346  21962488.8634   21962485.6804
     -1034.4234
 04  9 14 22 26 45.0040000  0  6G10G 8G13G28G19G27
   -237378.43048   -181345.18043  24516092.0274   24516090.0194
     -1379.4234
  -5039604.18749  -3923678.27046  21831259.8554   21831256.7584
        81.6774
  15357479.08248  11958416.68444  23281719.5354   23281716.4414
     -3921.9204
  -8304062.98049  -6460988.72745  23161632.6604   23161629.1804
      1293.6224
  -2084784.34848  -1615978.74244  23807656.2934   23807652.5744
     -1357.7764
   2426386.93449   1887442.11346  21965451.6294   21965448.7934
     -1038.1294
 04  9 14 22 27  0.0040000  0  6G10G 8G13G28G19G27
   -216548.53948   -165114.10243  24520056.2694   24520054.2114
     -1388.6594
  -5040765.72749  -3924583.35947  21831038.6054   21831035.6684
        77.4364
  15416393.94548  12004324.34044  23292930.3634   23292928.0704
     -3927.6584
  -8323386.96549  -6476046.34445  23157955.3794   23157952.0704
      1288.2664
  -2064275.27048  -1599997.63344  23811558.9964   23811555.0164
     -1367.2724
   2442014.53949   1899619.46546  21968425.6134   21968422.6054
     -1041.8404
 04  9 14 22 27 15.0040000  0  6G10G 8G13G28G19G27
   -195580.64548   -148775.48043  24524046.2544   24524044.2774
     -1397.8604
  -5041864.25849  -3925439.35546  21830829.6214   21830826.5624
        73.2354
  15475394.29348  12050298.60944  23304157.8244   23304155.1214
     -3933.3574
  -8342630.91449  -6491041.61745  23154293.4494   23154289.7194
      1282.9304
  -2043624.20748  -1583905.89844  23815488.7854   23815485.1174
     -1376.7374
   2457697.48049   1911839.94546  21971410.0664   21971406.9024
     -1045.5294
 04  9 14 22 27 30.0040000  0  6G10G 8G13G28G19G27
   -174475.30548   -132329.77343  24528062.6444   24528060.6174
     -1407.0234
  -5042900.03549  -3926246.44546  21830632.7154   21830629.5234
        69.0524
  15534479.43048  12096338.95344  23315401.5434   23315398.5664
     -3939.0094
  -8361795.21949  -6505974.82445  23150646.5744   23150642.9374
      1277.6204
  -2022831.61748  -1567703.88344  23819445.5194   23819441.7664
     -1386.1734
   2473435.42649   1924103.28146  21974404.9104   21974401.8874
     -1049.1964
 04  9 14 22 27 45.0040000  0  6G10G 8G13G28G19G27
   -153232.58248   -115777.02043  24532104.8634   24532102.7194
     -1416.1824
  -5043872.92249  -3927004.52746  21830447.1524   21830444.2934
        64.8594
  15593649.13748  12142445.19144  23326660.8874   23326658.5904
     -3944.6474
  -8380879.82049  -6520845.91045  23147014.6444   23147011.5434
      1272.3074
  -2001897.54748  -1551391.62544  23823429.4654   23823424.8914
     -1395.6054
   2489228.46949   1936409.54346  21977409.8404   21977407.3014
     -1052.8704
 04  9 14 22 28  0.0040000  0  6G10G 8G13G28G19G27
   -131852.53147    -99117.23843  24536173.3794   24536171.0044
     -1425.3374
  -5044782.76649  -3927713.49247  21830274.2774   21830271.5394
        60.6564
  15652903.34448  12188617.27344  23337936.4344   23337934.2664
     -3950.2804
  -8399884.36349  -6535654.62545  23143398.5984   23143394.8944
      1266.9704
  -1980821.73448  -1534968.91044  23827440.1604   23827435.7424
     -1405.0544
   2505076.99649   1948759.05146  21980425.9494   21980423.2664
     -1056.5684
 04  9 14 22 28 15.0040000  0  6G10G 8G13G28G19G27
   -110335.43047    -82350.66443  24540267.9964   24540265.5554
     -1434.4734
  -5045629.65649  -3928373.39846  21830113.1844   21830110.2274
        56.4594
  15712241.58248  12234854.83644  23349228.5984   23349225.9454
     -3955.8834
  -8418808.96949  -6550401.05145  23139797.1604   23139793.7504
      1261.6404
  -1959604.47348  -1518435.97744  23831477.3714   23831473.0594
     -1414.4844
   2520980.80149   1961151.62546  21983452.3164   21983449.3674
     -1060.2544
 04  9 14 22 28 30.0040000  0  6G10G 8G13G28G19G27
    -88679.67647    -65476.05543  24544388.8324   24544386.6564
     -1443.7174
  -5046411.58249  -3928982.69146  21829964.3714   21829961.1564
        52.1284
  15771665.60248  12281159.23444  23360536.2384   23360533.6604
     -3961.6014
  -8437651.78149  -6565083.73445  23136211.2854   23136207.9884
      1256.1884
  -1938243.85948  -1501791.33644  23835542.0354   23835537.9534
     -1424.0414
   2536941.74649   1973588.72746  21986489.6214   21986486.1564
     -1064.0634
 04  9 14 22 28 45.0040000  0  6G10G 8G13G28G19G27
    -66886.96547    -48494.73443  24548536.0194   24548533.8204
     -1452.8474
  -5047130.20349  -3929542.64546  21829827.4104   21829824.6564
        47.9084
  15831173.36348  12327528.89844  23371860.3554   23371857.9534
     -3967.1844
  -8456414.35249  -6579703.89145  23132640.9734   23132637.5984
      1250.8384
  -1916741.65648  -1485036.36344  23839633.7774   23839629.5984
     -1433.4804
   2552958.43449   1986069.26246  21989537.3404   21989534.6604
     -1067.7794
 04  9 14 22 29  0.0040000  0  6G10G 8G13G28G19G27
    -44955.69547    -31405.43743  24552709.2074   24552707.4734
     -1462.0854
  -5047783.54749  -3930051.73846  21829703.2694   21829700.2544
        43.5564
  15890766.44948  12373965.03944  23383200.3164   23383198.1054
     -3972.8724
  -8475094.84849  -6594260.09845  23129086.3554   23129082.8834
      1245.3664
  -1895096.04348  -1468169.65244  23843753.1844   23843748.6174
     -1443.0414
   2569032.54349   1998594.54346  21992596.1764   21992593.2344
     -1071.6074
 04  9 14 22 29 15.0040000  0  6G10G 8G13G28G19G27
    -22887.30947    -14209.29343  24556908.5044   24556906.6414
     -1471.2264
  -5048372.92249  -3930510.98047  21829590.7774   21829587.7974
        39.2924
  15950443.39548  12420466.52344  23394556.5744   23394554.5044
     -3978.4634
  -8493694.55149  -6608753.35545  23125547.1684   23125543.0784
      1239.9804
  -1873308.37948  -1451192.25444  23847899.0824   23847894.4774
     -1452.5114
   2585162.92249   2011163.67246  21995665.9494   21995662.8524
     -1075.3594
 04  9 14 22 29 30.0040000  0  6G10G 8G13G28G19G27
      -682.18047      3093.39543  24561134.2464   24561132.4804
     -1480.3424
  -5048898.48449  -3930920.50447  21829490.9494   21829487.8284
        35.0384
  16010203.64548  12467032.92644  23405928.8014   23405926.0394
     -3984.0174
  -8512213.56249  -6623183.73045  23122023.0124   23122019.2234
      1234.6014
  -1851378.92648  -1434104.37144  23852072.0194   23852067.7154
     -1461.9644
   2601349.38749   2023776.49646  21998745.8794   21998743.0514
     -1079.0984
 04  9 14 22 29 45.0040000  0  6G10G 8G13G28G19G27
     21659.88348     20502.79343  24565385.5124   24565384.0944
     -1489.4714
  -5049359.60949  -3931279.81246  21829403.3554   21829400.4344
        30.7424
  16070047.32448  12513664.34044  23417316.6134   23417314.0554
     -3989.5794
  -8530651.52349  -6637550.95345  23118514.0594   23118510.7194
      1229.1974
  -1829307.52048  -1416905.86344  23856272.1294   23856267.7074
     -1471.4274
   2617592.37549   2036433.37146  22001836.7234   22001834.0434
     -1082.8664
 04  9 14 22 30  0.0040000  0  6G10G 8G13G28G19G27
     44139.07847     38019.04343  24569663.2464   24569661.6564
     -1498.6134
  -5049756.18049  -3931588.82446  21829327.6844   21829324.8054
        26.4384
  16129974.59848  12560360.89544  23428720.5664   23428717.7344
     -3995.1524
  -8549007.82449  -6651854.53945  23115021.0744   23115017.3204
      1223.7534
  -1807093.63748  -1399596.34844  23860498.9884   23860495.0234
     -1480.9264
   2633892.38349   2049134.68046  22004938.7544   22004935.7464
     -1086.6674
 04  9 14 22 30 15.0040000  0  6G10G 8G13G28G19G27
     66755.74248     55642.41443  24573967.2774   24573965.1874
     -1507.7784
  -5050087.44149  -3931846.94146  21829264.3794   21829261.8444
        22.0844
  16189985.75048  12607122.80944  23440140.5194   23440137.6874
     -4000.7434
  -8567281.96549  -6666094.11345  23111543.5904   23111539.8444
      1218.2764
  -1784737.03148  -1382175.60944  23864753.8094   23864749.1334
     -1490.4404
   2650249.80949   2061880.72346  22008051.5124   22008048.3554
     -1090.4954
 04  9 14 22 30 30.0040000  0  6G10G 8G13G28G19G27
     89508.82048     73372.08643  24578296.6844   24578294.8484
     -1516.8724
  -5050354.28149  -3932054.86746  21829213.7384   21829210.9144
        17.7894
  16250079.53948  12653949.10544  23451575.7854   23451573.4304
     -4006.2534
  -8585474.85949  -6680270.36745  23108081.5354   23108077.6604
      1212.8604
  -1762238.49648  -1364644.28544  23869034.7854   23869030.6764
     -1499.9024
   2666664.09449   2074671.08246  22011174.8714   22011172.0474
     -1094.2864
 04  9 14 22 30 45.0040000  0  6G10G 8G13G28G19G27
    112397.27048     91207.23443  24582652.5274   24582650.7584
     -1525.8974
  -5050557.35249  -3932213.09447  21829175.4804   21829172.8244
        13.5384
  16310254.91048  12700838.98444  23463026.6524   23463024.0904
     -4011.6914
  -8603587.28149  -6694383.91845  23104634.8094   23104631.2234
      1207.4954
  -1739599.11748  -1347003.20744  23873342.6524   23873339.2384
     -1509.2924
   2683134.17649   2087504.90646  22014309.1914   22014306.0594
     -1098.0054
 04  9 14 22 31  0.0040000  0  6G10G 8G13G28G19G27
    135420.43047    109147.34843  24587033.5044   24587031.5514
     -1534.8774
  -5050697.03149  -3932321.93046  21829148.2074   21829145.7344
         9.3124
  16370511.28548  12747791.97744  23474492.7934   23474490.7974
     -4017.0924
  -8621619.55149  -6708435.01645  23101203.5044   23101199.9614
      1202.1514
  -1716819.17248  -1329252.58644  23877678.0274   23877674.0784
     -1518.6634
   2699659.87949   2100382.07846  22017453.9024   22017450.8204
     -1101.7144
 04  9 14 22 31 15.0040000  0  6G10G 8G13G28G19G27
    158580.16047    127193.88742  24591441.0904   24591438.9734
     -1543.9824
  -5050771.39849  -3932379.87546  21829134.5664   21829131.5824
         4.9584
  16430850.28548  12794809.34444  23485975.1374   23485972.8484
     -4022.6004
  -8639569.71949  -6722422.13345  23097787.5594   23097783.9654
      1196.6784
  -1693896.71548  -1311390.94144  23882039.3094   23882035.6374
     -1528.1644
   2716243.19549   2113304.14146  22020609.1444   22020606.5394
     -1105.5544
 04  9 14 22 31 30.0040000  0  6G10G 8G13G28G19G27
    181878.25047    145348.23843  24595874.0984   24595872.1604
     -1553.2064
  -5050778.16849  -3932385.14146  21829133.2774   21829130.6024
         0.4514
  16491273.56648  12841892.40244  23497473.3874   23497470.9414
     -4028.2194
  -8657435.72349  -6736343.67245  23094387.7544   23094384.0824
      1191.0674
  -1670830.04348  -1293416.91044  23886428.6294   23886425.2304
     -1537.7784
   2732886.05149   2126272.60546  22023776.5904   22023773.9494
     -1109.5244
 04  9 14 22 31 45.0040000  0  6G10G 8G13G28G19G27
    205313.52747    163609.49243  24600333.8794   24600331.5864
     -1562.3524
  -5050718.57449  -3932338.69946  21829144.5664   21829141.8834
        -3.9734
  16551779.80548  12889040.09044  23508987.3554   23508984.7624
     -4033.7494
  -8675218.52049  -6750200.36745  23091003.6994   23090999.9534
      1185.5204
  -1647620.09848  -1275331.23044  23890846.0044   23890841.7544
     -1547.3304
   2749587.66049   2139286.84846  22026954.5514   22026951.6994
     -1113.4414
 04  9 14 22 32  0.0040000  0  6G10G 8G13G28G19G27
    228883.82047    181975.94143  24604819.0984   24604817.1914
     -1571.3534
  -5050594.51249  -3932242.02047  21829167.9804   21829165.1214
        -8.2714
  16612366.93048  12936250.80544  23520516.6214   23520514.4574
     -4039.1424
  -8692920.08249  -6763993.77345  23087635.3094   23087632.1054
      1180.1044
  -1624268.97748  -1257135.55944  23895289.5354   23895285.1054
     -1556.7414
   2766346.00849   2152345.29746  22030143.6134   22030140.7854
     -1117.2234
 04  9 14 22 32 15.0040000  0  6G10G 8G13G28G19G27
    252589.99247    200448.27742  24609330.5824   24609328.3874
     -1580.4114
  -5050404.76249  -3932094.15646  21829204.5124   21829201.4374
       -12.6504
  16673035.70348  12983525.14144  23532061.5194   23532058.9184
     -4044.5854
  -8710539.15249  -6777722.89545  23084282.5274   23084278.9344
      1174.6054
  -1600775.69148  -1238829.10244  23899760.3794   23899755.9264
     -1566.2194
   2783162.39549   2165448.97746  22033343.8404   22033340.8914
     -1121.0924
 04  9 14 22 32 30.0040000  0  6G10G 8G13G28G19G27
    276430.61748    219025.38743  24613866.8944   24613865.0664
     -1589.3754
  -5050150.39549  -3931895.94946  21829252.5904   21829249.7894
       -16.9584
  16733784.52348  13030861.85944  23543622.1524   23543619.1724
     -4049.9214
  -8728077.09449  -6791388.79745  23080945.1684   23080941.2384
      1169.1964
  -1577141.64848  -1220412.95744  23904257.8094   23904253.6684
     -1575.6034
   2800035.35249   2178596.73046  22036554.6214   22036552.0474
     -1124.8644
 04  9 14 22 32 45.0040000  0  6G10G 8G13G28G19G27
    300407.53147    237708.69543  24618429.8244   24618427.7234
     -1598.4614
  -5049829.62949  -3931645.99646  21829313.7624   21829310.8834
       -21.3844
  16794615.05948  13078262.25044  23555197.7934   23555194.9734
     -4055.3694
  -8745531.93049  -6804989.94145  23077623.8164   23077619.9804
      1163.6564
  -1553364.93448  -1201885.65644  23908781.9654   23908778.0194
     -1585.1144
   2816966.92649   2191790.16446  22039776.7624   22039773.5624
     -1128.7724
 04  9 14 22 33  0.0040000  0  6G10G 8G13G28G19G27
    324519.11347    256496.93443  24623017.7624   24623015.6954
     -1607.4394
  -5049443.77349  -3931345.32446  21829386.9884   21829384.3094
       -25.7244
  16855525.83648  13125725.16844  23566788.2694   23566786.3444
     -4060.7184
  -8762904.94549  -6818527.33645  23074317.6764   23074313.8524
      1158.2014
  -1529446.85548  -1183248.18744  23913333.6994   23913329.6414
     -1594.5394
   2833956.03149   2205028.43046  22043009.6684   22043006.6094
     -1132.6074
 04  9 14 22 33 15.0040000  0  6G10G 8G13G28G19G27
    348764.87147    275389.73443  24627631.3794   24627629.3094
     -1616.3844
  -5048992.78949  -3930993.90246  21829472.9884   21829469.8794
       -30.0664
  16916516.27048  13173250.15244  23578395.0594   23578391.9884
     -4066.0294
  -8780196.30949  -6832001.10545  23071027.2774   23071023.8054
      1152.7584
  -1505387.85948  -1164500.92244  23917912.1444   23917908.1764
     -1603.9334
   2851002.30549   2218311.24246  22046253.2934   22046250.0004
     -1136.4184
 04  9 14 22 33 30.0040000  0  6G10G 8G13G28G19G27
    373145.70347    294387.77043  24632271.3874   24632268.9304
     -1625.3894
  -5048475.37949  -3930590.72347  21829571.4804   21829568.3094
       -34.4944
  16977587.15248  13220837.83244  23590016.3164   23590013.5474
     -4071.3924
  -8797405.00849  -6845410.45745  23067752.3244   23067748.8674
      1147.2474
  -1481186.93448  -1145643.04744  23922517.3094   23922513.1804
     -1613.3954
   2868106.97749   2231639.55546  22049508.5984   22049505.3164
     -1140.3114
 04  9 14 22 33 45.0040000  0  6G10G 8G13G28G19G27
    397661.09047    313490.66443  24636936.5194   24636934.4734
     -1634.3594
  -5047892.13749  -3930136.24246  21829682.3164   21829679.3874
       -38.8834
  17038737.84048  13268487.68844  23601652.6134   23601650.1054
     -4076.7124
  -8814531.28549  -6858755.58245  23064493.0904   23064489.8364
      1141.7524
  -1456844.60948  -1126675.01244  23927149.4344   23927144.9344
     -1622.8224
   2885269.62549   2245013.05546  22052774.3244   22052771.6564
     -1144.1774
 04  9 14 22 34  0.0050000  0  6G10G 8G13G28G19G27
    422313.87948    332700.63343  24641627.7284   24641625.6774
     -1643.5194
  -5047241.56649  -3929629.30946  21829806.2124   21829803.4544
       -43.3714
  17099973.46548  13316203.72744  23613305.3294   23613303.2594
     -4082.3754
  -8831574.84449  -6872036.25845  23061249.9704   23061246.5174
      1136.2374
  -1432357.87948  -1107594.43744  23931809.2354   23931805.0564
     -1632.4494
   2902492.89849   2258433.77746  22056051.8764   22056049.0404
     -1148.2184
 04  9 14 22 34 15.0050000  0  6G10G 8G13G28G19G27
    447098.37948    352013.21543  24646344.0874   24646341.9624
     -1652.3004
  -5046525.94149  -3929071.66447  21829942.2204   21829939.1304
       -47.7084
  17161283.51648  13363977.76644  23624972.4384   23624969.6574
     -4087.3374
  -8848535.53149  -6885252.35545  23058022.5014   23058018.7314
      1130.7134
  -1407732.18048  -1088405.58644  23936495.7044   23936490.8214
     -1641.7134
   2919772.41849   2271898.34046  22059339.8064   22059336.5794
     -1151.9684
 04  9 14 22 34 30.0050000  0  6G10G 8G13G28G19G27
    472017.12948    371430.42243  24651086.1034   24651084.0014
     -1661.2504
  -5045743.87549  -3928462.25447  21830091.1654   21830088.3764
       -52.1384
  17222673.01648  13411813.71944  23636654.0634   23636651.7314
     -4092.6334
  -8865413.29349  -6898403.83645  23054810.7124   23054807.2314
      1125.1844
  -1382964.98848  -1069106.47344  23941208.0324   23941203.6694
     -1651.1464
   2937110.50449   2285408.53946  22062639.3604   22062636.1854
     -1155.8724
 04  9 14 22 34 45.0050000  0  6G10G 8G13G28G19G27
    497069.76648    390951.94543  24655853.0174   24655850.9074
     -1670.1764
  -5044895.49649  -3927801.18447  21830252.3764   21830249.7744
       -56.5594
  17284141.31348  13459711.05944  23648351.5874   23648348.9074
     -4097.8864
  -8882208.34049  -6911490.85945  23051614.8764   23051611.3024
      1119.6704
  -1358056.45748  -1049697.23044  23945948.1344   23945944.2284
     -1660.5694
   2954506.95749   2298964.21146  22065949.7204   22065946.5954
     -1159.7644
 04  9 14 22 35  0.0050000  0  6G10G 8G13G28G19G27
    522256.21948    410577.75843  24660645.9854   24660644.1614
     -1679.0974
  -5043980.54349  -3927088.22747  21830426.7124   21830423.8954
       -60.9974
  17345688.42248  13507669.81644  23660063.6884   23660060.7554
     -4103.1414
  -8898920.48049  -6924513.28545  23048434.8064   23048430.5524
      1114.1434
  -1333006.62148  -1030177.88744  23950715.0564   23950710.8804
     -1669.9894
   2971962.07849   2312565.60246  22069271.2354   22069268.3884
     -1163.6754
 04  9 14 22 35 15.0050000  0  6G10G 8G13G28G19G27
    547575.79748    430307.28543  24665464.8134   24665462.8024
     -1687.9724
  -5042999.59849  -3926323.85246  21830613.5954   21830610.7004
       -65.3964
  17407313.51248  13555689.34444  23671790.6494   23671787.9934
     -4108.3394
  -8915550.23449  -6937471.51645  23045270.0174   23045266.5364
      1108.6504
  -1307816.09048  -1010548.89844  23955508.6734   23955504.2824
     -1679.3694
   2989475.37549   2326212.32446  22072604.0094   22072601.2864
     -1167.5534
 04  9 14 22 35 30.0050000  0  6G10G 8G13G28G19G27
    573030.78948    450142.33243  24670308.0244   24670306.2434
     -1696.9994
  -5041949.89549  -3925505.89546  21830813.0244   21830810.0914
       -69.9804
  17469018.87948  13603771.42244  23683532.5094   23683529.9154
     -4113.6914
  -8932095.00049  -6950363.52045  23042121.8454   23042117.7164
      1102.9844
  -1282482.46148   -990808.40644  23960329.3924   23960325.2394
     -1688.9094
   3007049.40649   2339906.36746  22075948.3684   22075945.3494
     -1171.6024
 04  9 14 22 35 45.0050000  0  6G10G 8G13G28G19G27
    598620.46947    470082.35243  24675177.8844   24675175.6494
     -1705.9794
  -5040832.15649  -3924634.92646  21831026.0174   21831022.7204
       -74.5164
  17530803.62948  13651915.35244  23695289.7124   23695287.3884
     -4118.9834
  -8948555.31249  -6963189.71545  23038989.2434   23038985.6534
      1097.3544
  -1257006.39548   -970956.92244  23965177.7674   23965173.1264
     -1698.4044
   3024683.69549   2353647.37146  22079303.7434   22079300.9544
     -1175.6194
 04  9 14 22 36  0.0050000  0  6G10G 8G13G28G19G27
    624343.93847    490126.59843  24680072.6344   24680070.5874
     -1714.8984
  -5039646.99249  -3923711.41446  21831251.2594   21831248.3104
       -79.0114
  17592666.94548  13700120.51244  23707062.1734   23707060.0054
     -4124.2214
  -8964931.67649  -6975950.50045  23035872.8534   23035869.3564
      1091.7584
  -1231388.43448   -950994.87944  23970052.2284   23970047.9274
     -1707.8644
   3042377.62149   2367434.84046  22082671.0174   22082667.9034
     -1179.5954
 04  9 14 22 36 15.0050000  0  6G10G 8G13G28G19G27
    650200.73047    510274.73843  24684993.5094   24684990.7864
     -1723.7864
  -5038394.30949  -3922735.29346  21831489.6034   21831486.9424
       -83.5124
  17654608.11348  13748386.32043  23718849.1574   23718846.7044
     -4129.4114
  -8981224.48849  -6988646.16845  23032772.4234   23032768.9424
      1086.1884
  -1205629.01248   -930922.60944  23974953.8994   23974949.8134
     -1717.2954
   3060131.12549   2381268.74646  22086049.6964   22086046.3564
     -1183.5674
 04  9 14 22 36 30.0050000  0  6G10G 8G13G28G19G27
    676190.48847    530526.49243  24689939.0564   24689937.2244
     -1732.6514
  -5037074.33649  -3921706.73847  21831740.9854   21831737.9934
       -87.9984
  17716626.73048  13796712.48844  23730651.0014   23730648.2634
     -4134.5744
  -8997433.86349  -7001276.83245  23029687.9384   23029684.2244
      1080.6254
  -1179728.56648   -910740.43744  23979882.4784   23979878.2084
     -1726.6964
   3077943.93049   2395148.85246  22089438.8924   22089436.0564
     -1187.5204
 04  9 14 22 36 45.0050000  0  6G10G 8G13G28G19G27
    702310.96147    550880.09843  24694909.5014   24694907.3924
     -1741.3654
  -5035688.88349  -3920627.15647  21832004.4384   21832001.5914
       -92.3644
  17778720.68848  13845097.37144  23742466.8684   23742464.5014
     -4139.5974
  -9013561.67649  -7013843.94145  23026618.6654   23026615.2284
      1075.1884
  -1153689.02048   -890449.87544  23984837.7044   23984833.6494
     -1735.9704
   3095814.25849   2409073.77746  22092839.4154   22092836.4354
     -1191.3554
 04  9 14 22 37  0.0050000  0  6G10G 8G13G28G19G27
    728562.58647    571335.91043  24699905.2824   24699903.3414
     -1750.1084
  -5034237.34449  -3919496.08247  21832280.7204   21832277.9664
       -96.7694
  17840890.18048  13893541.09044  23754297.5404   23754294.9624
     -4144.6334
  -9029607.20749  -7026346.93045  23023565.3844   23023561.7944
      1069.7024
  -1127509.99248   -870050.64144  23989819.9784   23989815.2944
     -1745.2684
   3113742.71549   2423043.99646  22096251.2674   22096248.2204
     -1195.2304
 04  9 14 22 37 15.0050000  0  6G10G 8G13G28G19G27
    754947.48047    591895.55143  24704925.5794   24704923.6774
     -1758.9934
  -5032717.55549  -3918311.82447  21832570.0324   21832567.0834
      -101.3194
  17903137.27048  13942045.29744  23766142.6104   23766140.5054
     -4149.8064
  -9045568.26649  -7038784.09845  23020528.2984   23020524.8684
      1064.0714
  -1101189.19548   -849540.93444  23994828.0404   23994824.1344
     -1754.7204
   3131731.60249   2437061.31346  22099674.4854   22099671.4154
     -1199.2594
 04  9 14 22 37 30.0050000  0  6G10G 8G13G28G19G27
    781465.88347    612559.23042  24709972.0874   24709970.4194
     -1767.8934
  -5031129.00049  -3917073.98447  21832872.5094   21832869.2904
      -105.9044
  17965462.30547  13990610.22344  23778002.7904   23778000.7004
     -4155.0024
  -9061444.28149  -7051155.00445  23017507.3454   23017503.4114
      1058.4014
  -1074726.26248   -828920.46144  23999863.9704   23999859.9814
     -1764.1964
   3149781.53949   2451126.19946  22103109.3214   22103106.2784
     -1203.3294
 04  9 14 22 37 45.0050000  0  6G10G 8G13G28G19G27
    808116.69547    633326.08643  24715043.2744   24715041.7284
     -1776.7214
  -5029472.16049  -3915782.94546  21833187.5564   21833184.5444
      -110.4564
  18027864.02048  14039234.91044  23789877.7674   23789874.4354
     -4160.1144
  -9077236.17249  -7063460.34445  23014502.0244   23014498.2744
      1052.7934
  -1048122.19948   -808190.02044  24004927.1264   24004922.4074
     -1773.6044
   3167891.73449   2465238.03946  22106555.3604   22106552.2164
     -1207.3464
 04  9 14 22 38  0.0050000  0  6G10G 8G13G28G19G27
    834901.59447    654197.43042  24720140.5484   24720138.5794
     -1785.6604
  -5027745.35249  -3914437.37547  21833516.1964   21833513.0174
      -115.1214
  18090343.89848  14087920.50044  23801766.6424   23801764.5054
     -4165.3254
  -9092941.99249  -7075698.63345  23011513.0094   23011509.5874
      1047.0554
  -1021375.26248   -787348.25444  24010016.4854   24010012.1494
     -1783.1294
   3186064.01249   2479398.24646  22110013.2824   22110010.3134
     -1211.4854
 04  9 14 22 38 15.0050000  0  6G10G 8G13G28G19G27
    861817.71547    675171.01642  24725262.6184   24725260.5954
     -1794.4084
  -5025950.78149  -3913039.00847  21833857.7514   21833854.8564
      -119.6384
  18152899.25047  14136664.90243  23813670.8994   23813668.3564
     -4170.3574
  -9108564.16849  -7087871.73445  23008540.5014   23008536.7904
      1041.4784
   -994487.94948   -766397.10944  24015133.3064   24015128.9744
     -1792.4874
   3204295.92649   2493604.93446  22113482.9624   22113479.9194
     -1215.4614
 04  9 14 22 38 30.0050000  0  6G10G 8G13G28G19G27
    888864.31647    696246.27742  24730409.5794   24730407.5284
     -1803.1074
  -5024089.30949  -3911588.50447  21834212.0794   21834208.7744
      -124.0984
  18215529.04748  14185467.30943  23825588.8994   23825586.7084
     -4175.3204
  -9124103.32449  -7099980.14545  23005583.5094   23005580.0324
      1035.9444
   -967461.27048   -745337.35944  24020275.8604   24020271.8534
     -1801.7794
   3222586.86749   2507857.61346  22116963.5874   22116960.8134
     -1219.3964
 04  9 14 22 38 45.0050000  0  6G10G 8G13G28G19G27
    916040.69547    717422.68042  24735580.6964   24735578.8644
     -1811.7594
  -5022161.15649  -3910086.04347  21834578.9704   21834575.7824
      -128.5434
  18278232.61748  14234327.19944  23837521.5174   23837518.8024
     -4180.2384
  -9139559.98449  -7112024.28145  23002642.0564   23002638.5714
      1030.4444
   -940295.66048   -724169.35944  24025445.2354   24025441.2904
     -1811.0414
   3240936.52749   2522156.04346  22120455.3604   22120452.6224
     -1223.3114
 04  9 14 22 39  0.0050000  0  6G10G 8G13G28G19G27
    943351.17647    738703.55543  24740777.7124   24740775.7514
     -1820.6994
  -5020161.62949  -3908527.96147  21834959.3684   21834956.1454
      -133.3024
  18341014.28948  14283247.95744  23849467.9074   23849465.9934
     -4185.4454
  -9154929.54749  -7124000.55145  22999717.2354   22999713.7284
      1024.6384
   -912986.66448   -702889.62544  24030642.4854   24030637.7474
     -1820.6004
   3259349.39849   2536503.73046  22123959.2904   22123956.2594
     -1227.5254
 04  9 14 22 39 15.0050000  0  6G10G 8G13G28G19G27
    970793.01647    760086.80943  24745999.9384   24745997.5174
     -1829.4564
  -5018093.25049  -3906916.23847  21835352.7824   21835350.0954
      -137.8924
  18403871.31348  14332227.42644  23861429.6184   23861427.2554
     -4190.4684
  -9170214.42649  -7135910.82045  22996808.5714   22996805.1884
      1018.9924
   -885536.89148   -681500.19544  24035865.7744   24035861.9074
     -1829.9854
   3277823.25049   2550898.94146  22127474.7984   22127471.5204
     -1231.5904
 04  9 14 22 39 30.0050000  0  7G10G29G 8G13G28G19G27
    998365.07847    781571.52742  24751246.7434   24751244.6574
     -1838.1374
   -109138.32057    -71191.26252  25681442.5174   25681440.1344

  -5015956.91849  -3905251.55947  21835759.3604   21835756.3724
      -142.4224
  18466802.44548  14381264.64544  23873404.9704   23873402.2984
     -4195.4094
  -9185415.65649  -7147755.90645  22993916.1654   22993912.4504
      1013.4154
   -857947.51648   -660001.97744  24041115.3684   24041111.6924
     -1839.2924
   3296357.02749   2565340.84846  22131001.5874   22130998.6814
     -1235.5854
 04  9 14 22 39 45.0050000  0  7G10G29G 8G13G28G19G27
   1026066.57447    803157.10242  24756518.5324   24756515.9894
     -1846.7664
   -143675.02047    -98102.96542  25674870.3684   25674868.0134
      2302.4474
  -5013753.12949  -3903534.30947  21836178.6034   21836175.7704
      -146.9194
  18529806.90648  14430359.00043  23885394.3134   23885391.7824
     -4200.2974
  -9200533.55149  -7159536.07045  22991039.1814   22991035.5954
      1007.8604
   -830218.96548   -638395.31644  24046392.2434   24046388.2594
     -1848.5704
   3314950.36349   2579829.16046  22134539.7124   22134536.5994
     -1239.5564
 04  9 14 22 40  0.0050000  0  7G10G29G 8G13G28G19G27
   1053895.85947    824842.25842  24761813.9384   24761812.1774
     -1855.2864
   -178178.60247   -124988.87142  25668304.3924   25668302.5604
      2300.2394
  -5011483.24649  -3901765.57047  21836610.4464   21836607.7824
      -151.3264
  18592882.89548  14479509.09044  23897397.3294   23897394.9624
     -4205.0664
  -9215569.57849  -7171252.44145  22988177.9854   22988174.1034
      1002.4024
   -802352.84448   -616681.45344  24051694.8684   24051690.7784
     -1857.7414
   3333601.96549   2594362.86346  22138089.1344   22138085.9544
     -1243.4404
 04  9 14 22 40 15.0050000  0  7G10G29G 8G13G28G19G27
   1081853.62947    846627.51242  24767134.1574   24767131.7044
     -1863.8514
   -212647.83247   -151847.99642  25661745.0174   25661743.2284
      2297.9494
  -5009146.11749  -3899944.42246  21837055.3534   21837052.5754
      -155.8094
  18656031.24648  14528715.57843  23909414.1884   23909411.6184
     -4209.8904
  -9230522.78549  -7182904.27345  22985332.4234   22985328.6884
       996.8804
   -774348.33648   -594859.77044  24057024.3994   24057020.0134
     -1866.9674
   3352312.72349   2608942.67646  22141649.3924   22141646.7904
     -1247.3844
 04  9 14 22 40 30.0050000  0  7G10G29G 8G13G28G19G27
   1109938.93847    868512.15642  24772478.6424   24772475.7984
     -1872.3544
   -247083.31247   -178680.80942  25655192.2124   25655190.3684
      2295.6994
  -5006742.32049  -3898071.33646  21837513.0094   21837509.9584
      -160.2534
  18719250.73048  14577977.48443  23921444.2824   23921441.8684
     -4214.6324
  -9245393.97349  -7194492.18745  22982502.4464   22982498.5284
       991.4134
   -746206.36348   -572930.96144  24062379.6104   24062375.3374
     -1876.1324
   3371081.98449   2623568.07046  22145221.4074   22145218.0874
     -1251.2844
 04  9 14 22 40 45.0050000  0  7G10G29G 8G13G28G19G27
   1138154.51647    890498.30943  24777847.8294   24777845.5364
     -1881.0394
   -281481.66047   -205484.71542  25648646.3294   25648644.2164
      2293.2234
  -5004269.09449  -3896144.14147  21837983.2904   21837980.5204
      -164.8824
  18782543.97348  14627296.85544  23933488.3684   23933485.8884
     -4219.5494
  -9260180.14549  -7206013.86745  22979688.6104   22979684.8804
       985.7454
   -717924.29748   -550892.98444  24067761.1264   24067757.3104
     -1885.4714
   3389912.65249   2638241.31646  22148804.7434   22148801.4854
     -1255.3784
 04  9 14 22 41  0.0050000  0  7G10G29G 8G13G28G19G27
   1166499.18047    912585.06343  24783241.5404   24783239.7314
     -1889.6444
   -315843.80547   -232260.39542  25642107.4464   25642105.2984
      2290.8104
  -5001727.35549  -3894163.56247  21838466.9704   21838464.2824
      -169.4494
  18845909.91848  14676672.88344  23945546.9934   23945544.4974
     -4224.3964
  -9274882.21949  -7217470.00445  22976890.8534   22976887.4894
       980.1384
   -689503.01248   -528746.53544  24073169.8844   24073165.6224
     -1894.7524
   3408803.86349   2652961.73446  22152399.4464   22152396.4354
     -1259.4144
 04  9 14 22 41 15.0050000  0  7G10G29G 8G13G28G19G27
   1194974.35247    934773.50042  24788660.3604   24788658.2204
     -1898.3454
   -350167.67247   -259006.23042  25635576.5404   25635574.2824
      2288.2584
  -4999115.16849  -3892128.09047  21838963.7044   21838961.3064
      -174.1464
  18909349.89148  14726106.59844  23957618.8684   23957617.2004
     -4229.3324
  -9289498.45749  -7228859.26245  22974109.5014   22974106.0914
       974.4164
   -660940.86748   -506490.31644  24078605.3924   24078600.7554
     -1904.1434
   3427757.49649   2667730.79746  22156005.9154   22156003.4544
     -1263.5764
 04  9 14 22 41 30.0050000  0  7G10G29G 8G13G28G19G27
   1223578.33247    957062.30542  24794103.6424   24794101.5174
     -1906.9324
   -384454.35247   -285723.11342  25629050.7284   25629048.6774
      2285.7794
  -4996434.00049  -3890038.86347  21839474.3534   21839471.5604
      -178.7454
  18972862.13348  14775596.62544  23969705.0634   23969702.7554
     -4234.1494
  -9304030.21549  -7240182.69545  22971344.0634   22971340.6184
       968.7844
   -632239.49248   -484125.61344  24084066.6494   24084062.4584
     -1913.4254
   3446772.05149   2682547.33646  22159624.6494   22159621.8214
     -1267.6374
 04  9 14 22 41 45.0050000  0  7G10G29G 8G13G28G19G27
   1252311.14847    979451.49243  24799570.9624   24799568.7944
     -1915.5214
   -418703.43446   -312410.67642  25622533.7904   25622531.5604
      2283.2724
  -4993683.60949  -3887895.69946  21839997.5954   21839994.9074
      -183.3594
  19036446.60947  14825142.93444  23981804.9544   23981803.0284
     -4238.9654
  -9318477.38749  -7251440.20745  22968595.1424   22968591.0244
       963.1454
   -603398.89548   -461652.42644  24089554.8844   24089551.0674
     -1922.7074
   3465847.92649   2697411.65246  22163254.6574   22163251.6104
     -1271.7254
 04  9 14 22 42  0.0050000  0  7G10G29G 8G13G28G19G27
   1281173.38747   1001941.53142  24805063.6654   24805061.3294
     -1924.1494
   -452913.64546   -339067.97342  25616023.8684   25616021.7394
      2280.6814
  -4990862.91849  -3885697.75047  21840534.3994   21840531.6814
      -188.0464
  19100104.09047  14874746.12944  23993918.3604   23993916.0994
     -4243.8324
  -9332838.87949  -7262630.96945  22965862.1574   22965858.5364
       957.4334
   -574418.16848   -439070.04744  24095069.9624   24095065.6344
     -1932.0484
   3484985.99649   2712324.42246  22166896.3064   22166893.3994
     -1275.8714
 04  9 14 22 42 15.0050000  0  7G10G29G 8G13G28G19G27
   1310166.09447   1024533.25042  24810580.6034   24810578.7704
     -1932.8474
   -487083.58246   -365693.88742  25609521.3134   25609519.0444
      2277.9964
  -4987970.42249  -3883443.85546  21841084.8924   21841081.8804
      -192.8334
  19163835.33248  14924406.81344  24006045.8994   24006044.1534
     -4248.7494
  -9347113.57849  -7273754.08645  22963145.7824   22963141.7944
       951.6474
   -545296.20748   -416377.60944  24100611.7984   24100607.0564
     -1941.4644
   3504187.68049   2727286.77046  22170550.4314   22170547.4854
     -1280.1124
 04  9 14 22 42 30.0050000  0  7G10G29G 8G13G28G19G27
   1339287.34447   1047225.11342  24816122.2434   24816120.5634
     -1941.4174
   -521214.69146   -392289.52742  25603025.8604   25603024.5524
      2275.4074
  -4985008.07849  -3881135.52747  21841648.5014   21841645.6344
      -197.4904
  19227638.24647  14974123.33244  24018187.0794   24018185.3884
     -4253.5284
  -9361303.17649  -7284810.89845  22960445.7594   22960441.7314
       945.9734
   -516034.92248   -393576.60544  24106179.7124   24106175.6534
     -1950.7524
   3523451.22749   2742297.32846  22174216.0244   22174213.1344
     -1284.2364
 04  9 14 22 42 45.0050000  0  7G10G29G 8G13G28G19G27
   1368536.39547   1070016.57842  24821687.8294   24821685.8414
     -1949.9374
   -555307.19146   -418855.07842  25596538.8764   25596536.9424
      2272.8334
  -4981976.23449  -3878773.05947  21842225.6034   21842222.6104
      -202.1234
  19291512.18448  15023895.18843  24030342.1814   24030340.1614
     -4258.2624
  -9375408.05149  -7295801.69545  22957761.1654   22957757.4314
       940.3254
   -486635.10248   -370667.67244  24111774.0564   24111769.9624
     -1959.9884
   3542776.16449   2757355.71946  22177893.5404   22177891.0994
     -1288.3294
 04  9 14 22 43  0.0050000  0  8G10G29G 8G13G28G19G31G27
   1397912.11747   1092906.74242  24827278.3534   24827276.0634
     -1958.3824
   -589361.65246   -445391.00442  25590058.2434   25590056.7394
      2270.2974
  -4978875.53149  -3876356.91846  21842815.5794   21842812.7554
      -206.7144
  19355456.06348  15073721.55944  24042510.2904   24042508.0094
     -4262.9254
  -9389429.02049  -7306727.10545  22955093.3294   22955089.4934
       934.7314
   -457097.50048   -347651.35544  24117395.0564   24117390.7634
     -1969.1734
   -138883.06257    -90573.47352  25532216.8534   25532216.9274

   3562161.84049   2772461.43446  22181582.4464   22181579.5524
     -1292.3784
 04  9 14 22 43 15.0050000  0  8G10G29G 8G13G28G19G31G27
   1427412.70747   1115894.21142  24832892.2204   24832890.2984
     -1966.7064
   -623379.34846   -471898.25042  25583585.3214   25583583.6694
      2267.8464
  -4975707.74649  -3873888.51647  21843418.3534   21843415.5134
      -211.1864
  19419468.03947  15123600.98443  24054691.3764   24054689.0834
     -4267.4654
  -9403367.85949  -7317588.51646  22952441.0484   22952437.0604
       929.2564
   -427423.92248   -324529.08644  24123041.3684   24123037.5714
     -1978.2394
   -182924.74247   -124891.59042  25523836.4234   25523836.1494
      2936.1124
   3581606.58649   2787613.18046  22185282.6734   22185280.0484
     -1296.3164
 04  9 14 22 43 30.0050000  0  8G10G29G 8G13G28G19G31G27
   1457039.32047   1138979.87542  24838530.2904   24838527.3024
     -1975.1084
   -657358.60546   -498375.56642  25577118.9464   25577117.5714
      2265.2844
  -4972471.20749  -3871366.53547  21844034.2434   21844031.4154
      -215.7694
  19483549.25848  15173534.37543  24066885.1964   24066883.3564
     -4272.0814
  -9417223.00049  -7328384.71145  22949804.3214   22949800.6304
       923.6764
   -397613.04747   -301299.84444  24128714.3764   24128710.3534
     -1987.3924
   -226960.04746   -159204.73842  25515456.7044   25515456.3294
      2935.6874
   3601111.90249   2802812.12946  22188994.4234   22188991.6304
     -1300.3544
 04  9 14 22 43 45.0050000  0  8G10G29G 8G13G28G19G31G27
   1486791.28147   1162163.20342  24844191.4704   24844188.8884
     -1983.4644
   -691299.70346   -524823.14142  25570659.3604   25570658.6104
      2262.7404
  -4969166.21949  -3868791.21547  21844662.9314   21844660.5244
      -220.3334
  19547698.92248  15223521.08643  24079092.9384   24079090.8134
     -4276.6444
  -9430994.80149  -7339115.97345  22947183.5714   22947179.7554
       918.1204
   -367665.42647   -277964.05544  24134413.9704   24134409.1854
     -1996.5084
   -270989.00046   -193512.93442  25507078.0634   25507077.6924
      2935.2644
   3620677.61349   2818058.12546  22192717.8604   22192714.6654
     -1304.3814
 04  9 14 22 44  0.0050000  0  8G10G29G 8G13G28G19G31G27
   1516668.67647   1185444.28142  24849877.3764   24849874.5054
     -1991.8264
   -725201.84846   -551240.35542  25564208.3294   25564206.9274
      2260.1434
  -4965792.56249  -3866162.39147  21845305.1264   21845302.2084
      -224.9104
  19611917.11347  15273561.20743  24091313.0404   24091311.1924
     -4281.2134
  -9444682.89849  -7349782.00445  22944578.9544   22944575.0994
       912.5404
   -337580.90247   -254521.57044  24140138.1654   24140133.8954
     -2005.6354
   -315011.09446   -227815.78542  25498700.7904   25498701.0174
      2934.8064
   3640303.88749   2833351.32846  22196452.3374   22196449.5244
     -1308.4184
 04  9 14 22 44 15.0050000  0  8G10G29G 8G13G28G19G31G27
   1546671.85547   1208823.38742  24855586.5094   24855583.8924
     -2000.2124
   -759064.23847   -577626.60942  25557764.8764   25557763.0094
      2257.4934
  -4962349.38349  -3863479.39146  21845960.2984   21845957.5874
      -229.5454
  19676204.21548  15323655.00443  24103546.6884   24103545.0444
     -4285.8074
  -9458286.75449  -7360382.39145  22941989.9784   22941986.3214
       906.9244
   -307359.02047   -230972.05144  24145889.1184   24145884.9034
     -2014.7924
   -359025.23846   -262112.43442  25490324.8924   25490324.7434
      2934.2764
   3659991.51249   2848692.32446  22200198.5484   22200196.0444
     -1312.5084
 04  9 14 22 44 30.0050000  0  8G10G29G 8G13G28G19G31G27
   1576800.81347   1232300.47742  24861319.8924   24861317.8764
     -2008.5974
   -792886.41047   -603981.53142  25551328.8924   25551326.7944
      2254.8114
  -4958836.37949  -3860741.98446  21846628.7744   21846626.3024
      -234.2004
  19740560.09847  15373802.42244  24115793.2744   24115791.3994
     -4290.3924
  -9471806.07449  -7370916.91045  22939417.3134   22939413.6224
       901.2884
   -276999.68748   -207315.43744  24151666.4704   24151662.3174
     -2023.9554
   -403030.96146   -296402.53942  25481951.0014   25481950.7004
      2933.7154
   3679740.73849   2864081.32846  22203957.0954   22203953.9784
     -1316.6154
 04  9 14 22 44 45.0050000  0  8G10G29G 8G13G28G19G31G27
   1607054.69547   1255874.92642  24867076.4544   24867074.5834
     -2016.9264
   -826668.70347   -630305.35942  25544900.3684   25544898.4424
      2252.1534
  -4955254.09449  -3857950.59046  21847310.6494   21847307.5324
      -238.8194
  19804983.85248  15424002.71143  24128053.2204   24128050.3764
     -4294.9174
  -9485241.47749  -7381386.04345  22936860.6574   22936856.9744
       895.6934
   -246503.57047   -183552.23444  24157469.7354   24157465.3564
     -2033.0744
   -447028.49246   -330686.25842  25473578.3134   25473578.5994
      2933.1694
   3699551.11349   2879517.98446  22207726.7124   22207724.0054
     -1320.6924
 04  9 14 22 45  0.0050000  0  8G10G29G 8G13G28G19G31G27
   1637436.39147   1279548.94942  24872858.3064   24872856.3924
     -2025.4464
   -860407.58647   -656595.38342  25538480.3214   25538477.9354
      2249.2594
  -4951599.38349  -3855102.75847  21848005.9544   21848002.9704
      -243.6474
  19869478.34048  15474258.13344  24140325.6184   24140323.7674
     -4299.6334
  -9498589.73449  -7391787.25445  22934320.5714   22934316.9704
       889.8844
   -215867.72747   -159680.14844  24163299.5404   24163295.3764
     -2042.3904
   -491014.33646   -364960.85942  25465208.3684   25465207.6144
      2932.3904
   3719425.74649   2895004.70746  22211508.9154   22211506.3024
     -1324.9764
 04  9 14 22 45 15.0050000  0  8G10G29G 8G13G28G19G31G27
   1667941.66847   1303319.28942  24878663.0794   24878661.2474
     -2033.6854
   -894107.03947   -682854.66842  25532067.2674   25532065.1144
      2246.6304
  -4947876.21549  -3852201.58647  21848714.2204   21848711.5754
      -248.2114
  19934039.31648  15524565.34843  24152611.2824   24152609.0014
     -4304.0654
  -9511854.96149  -7402123.78145  22931796.3454   22931792.3414
       884.3484
   -185096.39847   -135702.50044  24169155.3924   24169151.0174
     -2051.4224
   -534992.30946   -399229.34442  25456839.4704   25456839.1454
      2931.8654
   3739360.81349   2910538.52046  22215302.5244   22215299.6884
     -1329.0044
 04  9 14 22 45 30.0050000  0  8G10G29G 8G13G28G19G31G27
   1698572.07447   1327187.12542  24884491.9784   24884489.8174
     -2042.0274
   -927764.69547   -709081.41842  25525662.2674   25525659.5244
      2243.8444
  -4944082.66449  -3849245.57046  21849436.5484   21849433.9624
      -252.9034
  19998668.29348  15574925.55143  24164909.8994   24164907.4234
     -4308.5984
  -9525035.19149  -7412394.06645  22929288.2124   22929284.7044
       878.6824
   -154187.86347   -111617.92644  24175036.4234   24175032.8494
     -2060.5694
   -578960.21146   -433489.96942  25448472.6264   25448472.7314
      2931.1934
   3759358.10549   2926120.82046  22219107.5324   22219104.9784
     -1333.1534
